Darstellungsparameter: Aktuell verwendete Einstellungen:
Skalierung der Graphiken ... ?
xyx+y,   Skalierungsfaktor:      Skalierung: Modus: x, Faktor: 1
Darstellungszeitraum ... ?
Vom - - bis: - -   Zeitraum: 16.07.2019 - 15.08.2019
Min/Max/Avg-Anzeige ... ?
Zeige MMA aktuell
Zeige MMA Monat
Zeige MMA alles
Zeige --A aktuell
Zeige --A Monat
Zeige --A alles
Keine MMA-Anzeige
MMA:
Keine MMA-Graphiken
MMA-Basis: 16.07.2019 - 15.08.2019
Quicknavigation für Darstellung... ?
Tage:      1T, 2T, 3T, 5T -1T -2T -3T -5T +1T +2T +3T +5T
Wochen: 1W, 2W, 3W -1W -2W -3W +1W +2W +3W
Monate: 1M, 3M, 6M -1M -3M -6M +1M +3M +6M
Jahre:    1J, 3J, 5J, 10J -1J -3J -5J -10J +1J +3J +5J +10J
Nutze für die Darstellung ... ?
Originaldaten oder Mittelwerte auf ...
Stundenbasis Tagesbasis Wochenbasis
Monatsbasis Jahresbasis      Datenbasis: Original-Daten
Darstellen als:
Statistik (Auto) Statistik J:M      Darstellung:
Zur Graphik,    zurück zur Übersicht aller Sensoren.
 
Tabellarische Datenbersicht: ?
 
Sensor: Nr:Datum:Temp:Feuchte:Taupunkt:
Aussen-T/F 1 16-07-2019 00:00:00 15.1 C 79 % 11.49 C
2 16-07-2019 00:05:00 15 C 80 % 11.58 C
3 16-07-2019 00:10:00 14.9 C 79 % 11.29 C
4 16-07-2019 00:15:00 14.8 C 80 % 11.39 C
5 16-07-2019 00:20:00 14.8 C 80 % 11.39 C
6 16-07-2019 00:25:00 14.7 C 80 % 11.29 C
7 16-07-2019 00:30:00 14.7 C 79 % 11.1 C
8 16-07-2019 00:35:00 14.7 C 81 % 11.48 C
9 16-07-2019 00:40:00 14.6 C 80 % 11.19 C
10 16-07-2019 00:45:00 14.6 C 80 % 11.19 C
11 16-07-2019 00:50:00 14.6 C 80 % 11.19 C
12 16-07-2019 00:55:00 14.5 C 80 % 11.09 C
13 16-07-2019 01:00:00 14.4 C 79 % 10.81 C
14 16-07-2019 01:05:00 14.3 C 79 % 10.71 C
15 16-07-2019 01:10:00 14.2 C 79 % 10.61 C
16 16-07-2019 01:15:00 14 C 79 % 10.42 C
17 16-07-2019 01:20:00 13.9 C 79 % 10.32 C
18 16-07-2019 01:25:00 13.7 C 80 % 10.32 C
19 16-07-2019 01:30:00 13.6 C 81 % 10.4 C
20 16-07-2019 01:35:00 13.4 C 81 % 10.21 C
21 16-07-2019 01:40:00 13.3 C 81 % 10.11 C
22 16-07-2019 01:45:00 13.2 C 82 % 10.2 C
23 16-07-2019 01:50:00 13.1 C 82 % 10.1 C
24 16-07-2019 01:55:00 13 C 82 % 10 C
25 16-07-2019 02:00:00 12.9 C 83 % 10.09 C
Sensor: Nr:Datum:Temp:Feuchte:Taupunkt:
Aussen-T/F 26 16-07-2019 02:05:00 12.8 C 83 % 9.99 C
27 16-07-2019 02:10:00 12.7 C 84 % 10.07 C
28 16-07-2019 02:15:00 12.6 C 84 % 9.97 C
29 16-07-2019 02:20:00 12.5 C 85 % 10.05 C
30 16-07-2019 02:25:00 12.4 C 85 % 9.95 C
31 16-07-2019 02:30:00 12.2 C 86 % 9.93 C
32 16-07-2019 02:35:00 12.1 C 86 % 9.83 C
33 16-07-2019 02:40:00 11.9 C 87 % 9.81 C
34 16-07-2019 02:45:00 11.7 C 87 % 9.61 C
35 16-07-2019 02:50:00 11.6 C 88 % 9.68 C
36 16-07-2019 02:55:00 11.4 C 88 % 9.49 C
37 16-07-2019 03:00:00 11.3 C 88 % 9.39 C
38 16-07-2019 03:05:00 11.2 C 89 % 9.46 C
39 16-07-2019 03:10:00 11.2 C 90 % 9.62 C
40 16-07-2019 03:15:00 11.1 C 90 % 9.52 C
41 16-07-2019 03:20:00 10.9 C 90 % 9.33 C
42 16-07-2019 03:25:00 10.9 C 90 % 9.33 C
43 16-07-2019 03:30:00 10.8 C 91 % 9.39 C
44 16-07-2019 03:35:00 10.8 C 91 % 9.39 C
45 16-07-2019 03:40:00 10.7 C 91 % 9.29 C
46 16-07-2019 03:45:00 10.7 C 91 % 9.29 C
47 16-07-2019 03:50:00 10.6 C 91 % 9.19 C
48 16-07-2019 03:55:00 10.6 C 91 % 9.19 C
49 16-07-2019 04:00:00 10.6 C 92 % 9.36 C
50 16-07-2019 04:05:00 10.5 C 92 % 9.26 C
Sensor: Nr:Datum:Temp:Feuchte:Taupunkt:
Aussen-T/F 51 16-07-2019 04:10:00 10.5 C 92 % 9.26 C
52 16-07-2019 04:15:00 10.4 C 92 % 9.16 C
53 16-07-2019 04:20:00 10.3 C 92 % 9.06 C
54 16-07-2019 04:25:00 10.3 C 92 % 9.06 C
55 16-07-2019 04:30:00 10.2 C 92 % 8.96 C
56 16-07-2019 04:35:00 10.2 C 92 % 8.96 C
57 16-07-2019 04:40:00 10.1 C 92 % 8.86 C
58 16-07-2019 04:45:00 10.1 C 93 % 9.02 C
59 16-07-2019 04:50:00 10.1 C 93 % 9.02 C
60 16-07-2019 04:55:00 10.1 C 93 % 9.02 C
61 16-07-2019 05:00:00 10.1 C 93 % 9.02 C
62 16-07-2019 05:05:00 10.2 C 93 % 9.12 C
63 16-07-2019 05:10:00 10.1 C 93 % 9.02 C
64 16-07-2019 05:15:00 10.1 C 93 % 9.02 C
65 16-07-2019 05:20:00 10.1 C 93 % 9.02 C
66 16-07-2019 05:25:00 10 C 93 % 8.92 C
67 16-07-2019 05:30:00 10 C 93 % 8.92 C
68 16-07-2019 05:35:00 9.9 C 93 % 8.82 C
69 16-07-2019 05:40:00 9.9 C 93 % 8.82 C
70 16-07-2019 05:45:00 9.8 C 93 % 8.72 C
71 16-07-2019 05:50:00 9.8 C 94 % 8.88 C
72 16-07-2019 05:55:00 9.8 C 94 % 8.88 C
73 16-07-2019 06:00:00 9.9 C 94 % 8.98 C
74 16-07-2019 06:05:00 9.9 C 94 % 8.98 C
75 16-07-2019 06:10:00 9.9 C 94 % 8.98 C
Sensor: Nr:Datum:Temp:Feuchte:Taupunkt:
Aussen-T/F 76 16-07-2019 06:15:00 9.9 C 94 % 8.98 C
77 16-07-2019 06:20:00 9.9 C 94 % 8.98 C
78 16-07-2019 06:25:00 10 C 94 % 9.08 C
79 16-07-2019 06:30:00 10.1 C 94 % 9.18 C
80 16-07-2019 06:35:00 10.1 C 95 % 9.34 C
81 16-07-2019 06:40:00 10.3 C 95 % 9.54 C
82 16-07-2019 06:45:00 10.4 C 95 % 9.63 C
83 16-07-2019 06:50:00 10.5 C 95 % 9.73 C
84 16-07-2019 06:55:00 10.6 C 95 % 9.83 C
85 16-07-2019 07:00:00 10.6 C 94 % 9.68 C
86 16-07-2019 07:05:00 10.7 C 94 % 9.77 C
87 16-07-2019 07:10:00 10.7 C 94 % 9.77 C
88 16-07-2019 07:15:00 10.8 C 94 % 9.87 C
89 16-07-2019 07:20:00 10.8 C 94 % 9.87 C
90 16-07-2019 07:25:00 10.9 C 94 % 9.97 C
91 16-07-2019 07:30:00 11 C 94 % 10.07 C
92 16-07-2019 07:35:00 11.2 C 94 % 10.27 C
93 16-07-2019 07:40:00 11.2 C 94 % 10.27 C
94 16-07-2019 07:45:00 11.3 C 93 % 10.21 C
95 16-07-2019 07:50:00 11.4 C 93 % 10.31 C
96 16-07-2019 07:55:00 11.6 C 93 % 10.51 C
97 16-07-2019 08:00:00 11.7 C 93 % 10.61 C
98 16-07-2019 08:05:00 11.8 C 93 % 10.71 C
99 16-07-2019 08:10:00 11.9 C 92 % 10.64 C
100 16-07-2019 08:15:00 12.1 C 92 % 10.84 C
Sensor: Nr:Datum:Temp:Feuchte:Taupunkt:
Aussen-T/F 101 16-07-2019 08:20:00 12.3 C 92 % 11.04 C
102 16-07-2019 08:25:00 12.4 C 91 % 10.97 C
103 16-07-2019 08:30:00 12.7 C 91 % 11.27 C
104 16-07-2019 08:35:00 12.8 C 90 % 11.2 C
105 16-07-2019 08:40:00 13.1 C 90 % 11.5 C
106 16-07-2019 08:45:00 13.3 C 89 % 11.53 C
107 16-07-2019 08:50:00 13.6 C 88 % 11.65 C
108 16-07-2019 08:55:00 13.8 C 88 % 11.85 C
109 16-07-2019 09:00:00 13.9 C 87 % 11.77 C
110 16-07-2019 09:05:00 14 C 86 % 11.7 C
111 16-07-2019 09:10:00 14.2 C 86 % 11.89 C
112 16-07-2019 09:15:00 14.3 C 86 % 11.99 C
113 16-07-2019 09:20:00 14.5 C 86 % 12.19 C
114 16-07-2019 09:25:00 14.7 C 84 % 12.03 C
115 16-07-2019 09:30:00 14.8 C 84 % 12.12 C
116 16-07-2019 09:35:00 14.8 C 83 % 11.94 C
117 16-07-2019 09:40:00 14.9 C 83 % 12.04 C
118 16-07-2019 09:45:00 14.9 C 83 % 12.04 C
119 16-07-2019 09:50:00 15 C 81 % 11.77 C
120 16-07-2019 09:55:00 15 C 81 % 11.77 C
121 16-07-2019 10:00:00 15.1 C 80 % 11.68 C
122 16-07-2019 10:05:00 15.3 C 80 % 11.87 C
123 16-07-2019 10:10:00 15.4 C 78 % 11.59 C
124 16-07-2019 10:15:00 15.4 C 78 % 11.59 C
125 16-07-2019 10:20:00 15.4 C 78 % 11.59 C
Sensor: Nr:Datum:Temp:Feuchte:Taupunkt:
Aussen-T/F 126 16-07-2019 10:25:00 15.5 C 77 % 11.49 C
127 16-07-2019 10:30:00 15.5 C 76 % 11.29 C
128 16-07-2019 10:35:00 15.6 C 77 % 11.59 C
129 16-07-2019 10:40:00 15.7 C 77 % 11.68 C
130 16-07-2019 10:45:00 15.7 C 77 % 11.68 C
131 16-07-2019 10:50:00 15.8 C 76 % 11.58 C
132 16-07-2019 10:55:00 15.8 C 76 % 11.58 C
133 16-07-2019 11:00:00 15.9 C 75 % 11.48 C
134 16-07-2019 11:05:00 15.9 C 75 % 11.48 C
135 16-07-2019 11:10:00 16 C 75 % 11.57 C
136 16-07-2019 11:15:00 16 C 75 % 11.57 C
137 16-07-2019 11:20:00 16.1 C 75 % 11.67 C
138 16-07-2019 11:25:00 16.1 C 75 % 11.67 C
139 16-07-2019 11:30:00 15.9 C 75 % 11.48 C
140 16-07-2019 11:35:00 15.8 C 75 % 11.38 C
141 16-07-2019 11:40:00 15.9 C 75 % 11.48 C
142 16-07-2019 11:45:00 16 C 74 % 11.37 C
143 16-07-2019 11:50:00 16.1 C 73 % 11.26 C
144 16-07-2019 11:55:00 16.2 C 74 % 11.56 C
145 16-07-2019 12:00:00 16.3 C 73 % 11.46 C
146 16-07-2019 12:05:00 16.3 C 73 % 11.46 C
147 16-07-2019 12:10:00 16.4 C 73 % 11.55 C
148 16-07-2019 12:15:00 16.5 C 73 % 11.65 C
149 16-07-2019 12:20:00 16.6 C 73 % 11.74 C
150 16-07-2019 12:25:00 16.7 C 72 % 11.63 C
Sensor: Nr:Datum:Temp:Feuchte:Taupunkt:
Aussen-T/F 151 16-07-2019 12:30:00 16.8 C 71 % 11.52 C
152 16-07-2019 12:35:00 16.9 C 71 % 11.61 C
153 16-07-2019 12:40:00 17 C 71 % 11.71 C
154 16-07-2019 12:45:00 17 C 71 % 11.71 C
155 16-07-2019 12:50:00 17.1 C 71 % 11.8 C
156 16-07-2019 12:55:00 17.1 C 70 % 11.59 C
157 16-07-2019 13:00:00 17.2 C 70 % 11.68 C
158 16-07-2019 13:05:00 17.2 C 71 % 11.9 C
159 16-07-2019 13:10:00 17.3 C 70 % 11.78 C
160 16-07-2019 13:15:00 17.3 C 70 % 11.78 C
161 16-07-2019 13:20:00 17.3 C 69 % 11.56 C
162 16-07-2019 13:25:00 17.2 C 70 % 11.68 C
163 16-07-2019 13:30:00 17.3 C 71 % 12 C
164 16-07-2019 13:35:00 17.7 C 70 % 12.16 C
165 16-07-2019 13:40:00 17.7 C 68 % 11.72 C
166 16-07-2019 13:45:00 17.6 C 67 % 11.4 C
167 16-07-2019 13:50:00 17.5 C 69 % 11.75 C
168 16-07-2019 13:55:00 17.6 C 68 % 11.63 C
169 16-07-2019 14:00:00 17.6 C 70 % 12.07 C
170 16-07-2019 14:05:00 17.7 C 68 % 11.72 C
171 16-07-2019 14:10:00 17.9 C 68 % 11.91 C
172 16-07-2019 14:15:00 18 C 68 % 12.01 C
173 16-07-2019 14:20:00 18.2 C 67 % 11.98 C
174 16-07-2019 14:25:00 18.3 C 66 % 11.84 C
175 16-07-2019 14:30:00 18.4 C 65 % 11.71 C
Sensor: Nr:Datum:Temp:Feuchte:Taupunkt:
Aussen-T/F 176 16-07-2019 14:35:00 18.6 C 65 % 11.9 C
177 16-07-2019 14:40:00 18.8 C 66 % 12.32 C
178 16-07-2019 14:45:00 18.9 C 65 % 12.18 C
179 16-07-2019 14:50:00 19 C 65 % 12.28 C
180 16-07-2019 14:55:00 19.2 C 65 % 12.47 C
181 16-07-2019 15:00:00 19.3 C 64 % 12.32 C
182 16-07-2019 15:05:00 19.4 C 64 % 12.42 C
183 16-07-2019 15:10:00 19.6 C 63 % 12.37 C
184 16-07-2019 15:15:00 19.6 C 62 % 12.13 C
185 16-07-2019 15:20:00 19.7 C 62 % 12.22 C
186 16-07-2019 15:25:00 20 C 61 % 12.26 C
187 16-07-2019 15:30:00 20.4 C 62 % 12.88 C
188 16-07-2019 15:35:00 20.8 C 60 % 12.76 C
189 16-07-2019 15:40:00 21.2 C 60 % 13.13 C
190 16-07-2019 15:45:00 21.3 C 57 % 12.44 C
191 16-07-2019 15:50:00 21.2 C 59 % 12.87 C
192 16-07-2019 15:55:00 21.4 C 57 % 12.53 C
193 16-07-2019 16:00:00 21.7 C 58 % 13.08 C
194 16-07-2019 16:05:00 22.1 C 58 % 13.45 C
195 16-07-2019 16:10:00 22.2 C 55 % 12.73 C
196 16-07-2019 16:15:00 22.3 C 55 % 12.83 C
197 16-07-2019 16:20:00 22.5 C 55 % 13.01 C
198 16-07-2019 16:25:00 22.7 C 54 % 12.92 C
199 16-07-2019 16:30:00 22.7 C 53 % 12.63 C
200 16-07-2019 16:35:00 22.6 C 52 % 12.25 C
Sensor: Nr:Datum:Temp:Feuchte:Taupunkt:
Aussen-T/F 201 16-07-2019 16:40:00 22.3 C 54 % 12.55 C
202 16-07-2019 16:45:00 22.1 C 55 % 12.64 C
203 16-07-2019 16:50:00 22.2 C 55 % 12.73 C
204 16-07-2019 16:55:00 22.4 C 54 % 12.64 C
205 16-07-2019 17:00:00 22.5 C 54 % 12.73 C
206 16-07-2019 17:05:00 22.7 C 53 % 12.63 C
207 16-07-2019 17:10:00 22.8 C 52 % 12.43 C
208 16-07-2019 17:15:00 22.7 C 53 % 12.63 C
209 16-07-2019 17:20:00 22.6 C 53 % 12.54 C
210 16-07-2019 17:25:00 22.7 C 54 % 12.92 C
211 16-07-2019 17:30:00 22.9 C 54 % 13.1 C
212 16-07-2019 17:35:00 23 C 53 % 12.91 C
213 16-07-2019 17:40:00 23 C 53 % 12.91 C
214 16-07-2019 17:45:00 22.9 C 53 % 12.82 C
215 16-07-2019 17:50:00 22.9 C 52 % 12.53 C
216 16-07-2019 17:55:00 22.9 C 53 % 12.82 C
217 16-07-2019 18:00:00 22.8 C 53 % 12.73 C
218 16-07-2019 18:05:00 22.8 C 53 % 12.73 C
219 16-07-2019 18:10:00 22.8 C 52 % 12.43 C
220 16-07-2019 18:15:00 22.9 C 53 % 12.82 C
221 16-07-2019 18:20:00 23.2 C 52 % 12.8 C
222 16-07-2019 18:25:00 23.3 C 51 % 12.6 C
223 16-07-2019 18:30:00 23.4 C 50 % 12.39 C
224 16-07-2019 18:35:00 23.3 C 51 % 12.6 C
225 16-07-2019 18:40:00 23.2 C 52 % 12.8 C
Sensor: Nr:Datum:Temp:Feuchte:Taupunkt:
Aussen-T/F 226 16-07-2019 18:45:00 23.2 C 52 % 12.8 C
227 16-07-2019 18:50:00 23.1 C 52 % 12.71 C
228 16-07-2019 18:55:00 22.9 C 53 % 12.82 C
229 16-07-2019 19:00:00 23 C 52 % 12.62 C
230 16-07-2019 19:05:00 23 C 53 % 12.91 C
231 16-07-2019 19:10:00 22.9 C 52 % 12.53 C
232 16-07-2019 19:15:00 22.8 C 52 % 12.43 C
233 16-07-2019 19:20:00 22.4 C 53 % 12.36 C
234 16-07-2019 19:25:00 22.1 C 54 % 12.36 C
235 16-07-2019 19:30:00 21.9 C 55 % 12.46 C
236 16-07-2019 19:35:00 21.7 C 55 % 12.27 C
237 16-07-2019 19:40:00 21.5 C 55 % 12.08 C
238 16-07-2019 19:45:00 21.4 C 56 % 12.27 C
239 16-07-2019 19:50:00 21.4 C 56 % 12.27 C
240 16-07-2019 19:55:00 21.4 C 57 % 12.53 C
241 16-07-2019 20:00:00 21.4 C 56 % 12.27 C
242 16-07-2019 20:05:00 21.4 C 57 % 12.53 C
243 16-07-2019 20:10:00 21.3 C 56 % 12.17 C
244 16-07-2019 20:15:00 21.3 C 57 % 12.44 C
245 16-07-2019 20:20:00 21.1 C 57 % 12.25 C
246 16-07-2019 20:25:00 21 C 58 % 12.43 C
247 16-07-2019 20:30:00 20.8 C 58 % 12.24 C
248 16-07-2019 20:35:00 20.6 C 59 % 12.31 C
249 16-07-2019 20:40:00 20.4 C 59 % 12.12 C
250 16-07-2019 20:45:00 20.3 C 60 % 12.29 C
Sensor: Nr:Datum:Temp:Feuchte:Taupunkt:
Aussen-T/F 251 16-07-2019 20:50:00 20.2 C 61 % 12.44 C
252 16-07-2019 20:55:00 20 C 62 % 12.5 C
253 16-07-2019 21:00:00 19.9 C 64 % 12.89 C
254 16-07-2019 21:05:00 19.7 C 65 % 12.94 C
255 16-07-2019 21:10:00 19.6 C 66 % 13.08 C
256 16-07-2019 21:15:00 19.2 C 67 % 12.93 C
257 16-07-2019 21:20:00 18.8 C 69 % 13 C
258 16-07-2019 21:25:00 18.4 C 70 % 12.83 C
259 16-07-2019 21:30:00 18.1 C 71 % 12.76 C
260 16-07-2019 21:35:00 17.8 C 72 % 12.69 C
261 16-07-2019 21:40:00 17.4 C 73 % 12.51 C
262 16-07-2019 21:45:00 17.2 C 74 % 12.53 C
263 16-07-2019 21:50:00 16.9 C 75 % 12.44 C
264 16-07-2019 21:55:00 16.7 C 76 % 12.45 C
265 16-07-2019 22:00:00 16.5 C 76 % 12.26 C
266 16-07-2019 22:05:00 16.3 C 77 % 12.26 C
267 16-07-2019 22:10:00 16.2 C 78 % 12.36 C
268 16-07-2019 22:15:00 16.1 C 78 % 12.27 C
269 16-07-2019 22:20:00 15.9 C 78 % 12.07 C
270 16-07-2019 22:25:00 15.8 C 79 % 12.17 C
271 16-07-2019 22:30:00 15.7 C 79 % 12.07 C
272 16-07-2019 22:35:00 15.7 C 80 % 12.26 C
273 16-07-2019 22:40:00 15.6 C 80 % 12.16 C
274 16-07-2019 22:45:00 15.6 C 80 % 12.16 C
275 16-07-2019 22:50:00 15.4 C 81 % 12.16 C
Sensor: Nr:Datum:Temp:Feuchte:Taupunkt:
Aussen-T/F 276 16-07-2019 22:55:00 15.4 C 80 % 11.97 C
277 16-07-2019 23:00:00 15.4 C 81 % 12.16 C
278 16-07-2019 23:05:00 15.4 C 81 % 12.16 C
279 16-07-2019 23:10:00 15.3 C 81 % 12.06 C
280 16-07-2019 23:15:00 15.3 C 81 % 12.06 C
281 16-07-2019 23:20:00 15.2 C 81 % 11.96 C
282 16-07-2019 23:25:00 15.1 C 81 % 11.87 C
283 16-07-2019 23:30:00 15.1 C 82 % 12.05 C
284 16-07-2019 23:35:00 15 C 82 % 11.95 C
285 16-07-2019 23:40:00 14.9 C 82 % 11.86 C
286 16-07-2019 23:45:00 14.8 C 83 % 11.94 C
287 16-07-2019 23:50:00 14.8 C 83 % 11.94 C
288 16-07-2019 23:55:00 14.7 C 83 % 11.85 C
289 17-07-2019 00:00:00 14.7 C 83 % 11.85 C
290 17-07-2019 00:05:00 14.6 C 83 % 11.75 C
291 17-07-2019 00:10:00 14.4 C 83 % 11.55 C
292 17-07-2019 00:15:00 14.3 C 83 % 11.45 C
293 17-07-2019 00:20:00 14.3 C 84 % 11.64 C
294 17-07-2019 00:25:00 14.1 C 84 % 11.44 C
295 17-07-2019 00:30:00 14 C 84 % 11.34 C
296 17-07-2019 00:35:00 13.9 C 85 % 11.42 C
297 17-07-2019 00:40:00 13.8 C 85 % 11.32 C
298 17-07-2019 00:45:00 13.7 C 86 % 11.4 C
299 17-07-2019 00:50:00 13.7 C 86 % 11.4 C
300 17-07-2019 00:55:00 13.6 C 86 % 11.3 C
Sensor: Nr:Datum:Temp:Feuchte:Taupunkt:
Aussen-T/F 301 17-07-2019 01:00:00 13.4 C 87 % 11.28 C
302 17-07-2019 01:05:00 13.3 C 87 % 11.18 C
303 17-07-2019 01:10:00 13.2 C 87 % 11.09 C
304 17-07-2019 01:15:00 13.2 C 88 % 11.26 C
305 17-07-2019 01:20:00 13.1 C 88 % 11.16 C
306 17-07-2019 01:25:00 13.1 C 88 % 11.16 C
307 17-07-2019 01:30:00 13.1 C 89 % 11.33 C
308 17-07-2019 01:35:00 13 C 89 % 11.23 C
309 17-07-2019 01:40:00 13 C 89 % 11.23 C
310 17-07-2019 01:45:00 12.9 C 89 % 11.13 C
311 17-07-2019 01:50:00 12.9 C 89 % 11.13 C
312 17-07-2019 01:55:00 12.8 C 89 % 11.03 C
313 17-07-2019 02:00:00 12.8 C 89 % 11.03 C
314 17-07-2019 02:05:00 12.7 C 89 % 10.94 C
315 17-07-2019 02:10:00 12.7 C 89 % 10.94 C
316 17-07-2019 02:15:00 12.6 C 89 % 10.84 C
317 17-07-2019 02:20:00 12.5 C 90 % 10.91 C
318 17-07-2019 02:25:00 12.4 C 90 % 10.81 C
319 17-07-2019 02:30:00 12.3 C 90 % 10.71 C
320 17-07-2019 02:35:00 12.3 C 90 % 10.71 C
321 17-07-2019 02:40:00 12.3 C 90 % 10.71 C
322 17-07-2019 02:45:00 12.2 C 90 % 10.61 C
323 17-07-2019 02:50:00 12.1 C 91 % 10.68 C
324 17-07-2019 02:55:00 12 C 90 % 10.41 C
325 17-07-2019 03:00:00 11.9 C 91 % 10.48 C
Sensor: Nr:Datum:Temp:Feuchte:Taupunkt:
Aussen-T/F 326 17-07-2019 03:05:00 11.8 C 91 % 10.38 C
327 17-07-2019 03:10:00 11.8 C 91 % 10.38 C
328 17-07-2019 03:15:00 11.7 C 91 % 10.28 C
329 17-07-2019 03:20:00 11.6 C 91 % 10.18 C
330 17-07-2019 03:25:00 11.6 C 92 % 10.35 C
331 17-07-2019 03:30:00 11.6 C 92 % 10.35 C
332 17-07-2019 03:35:00 11.6 C 92 % 10.35 C
333 17-07-2019 03:40:00 11.6 C 92 % 10.35 C
334 17-07-2019 03:45:00 11.5 C 92 % 10.25 C
335 17-07-2019 03:50:00 11.5 C 92 % 10.25 C
336 17-07-2019 03:55:00 11.5 C 92 % 10.25 C
337 17-07-2019 04:00:00 11.4 C 92 % 10.15 C
338 17-07-2019 04:05:00 11.4 C 93 % 10.31 C
339 17-07-2019 04:10:00 11.4 C 93 % 10.31 C
340 17-07-2019 04:15:00 11.3 C 93 % 10.21 C
341 17-07-2019 04:20:00 11.2 C 92 % 9.95 C
342 17-07-2019 04:25:00 11.2 C 93 % 10.11 C
343 17-07-2019 04:30:00 11.2 C 93 % 10.11 C
344 17-07-2019 04:35:00 11.2 C 93 % 10.11 C
345 17-07-2019 04:40:00 11.2 C 93 % 10.11 C
346 17-07-2019 04:45:00 11.1 C 93 % 10.01 C
347 17-07-2019 04:50:00 11.1 C 93 % 10.01 C
348 17-07-2019 04:55:00 11 C 93 % 9.91 C
349 17-07-2019 05:00:00 10.9 C 93 % 9.81 C
350 17-07-2019 05:05:00 10.9 C 93 % 9.81 C
Sensor: Nr:Datum:Temp:Feuchte:Taupunkt:
Aussen-T/F 351 17-07-2019 05:10:00 10.9 C 93 % 9.81 C
352 17-07-2019 05:15:00 10.9 C 94 % 9.97 C
353 17-07-2019 05:20:00 10.9 C 94 % 9.97 C
354 17-07-2019 05:25:00 10.9 C 94 % 9.97 C
355 17-07-2019 05:30:00 10.9 C 94 % 9.97 C
356 17-07-2019 05:35:00 10.8 C 94 % 9.87 C
357 17-07-2019 05:40:00 10.8 C 94 % 9.87 C
358 17-07-2019 05:45:00 10.7 C 94 % 9.77 C
359 17-07-2019 05:50:00 10.7 C 94 % 9.77 C
360 17-07-2019 05:55:00 10.7 C 94 % 9.77 C
361 17-07-2019 06:00:00 10.7 C 94 % 9.77 C
362 17-07-2019 06:05:00 10.7 C 94 % 9.77 C
363 17-07-2019 06:10:00 10.6 C 94 % 9.68 C
364 17-07-2019 06:15:00 10.6 C 94 % 9.68 C
365 17-07-2019 06:20:00 10.6 C 94 % 9.68 C
366 17-07-2019 06:25:00 10.7 C 94 % 9.77 C
367 17-07-2019 06:30:00 10.7 C 95 % 9.93 C
368 17-07-2019 06:35:00 10.7 C 95 % 9.93 C
369 17-07-2019 06:40:00 10.8 C 95 % 10.03 C
370 17-07-2019 06:45:00 10.9 C 95 % 10.13 C
371 17-07-2019 06:50:00 10.9 C 95 % 10.13 C
372 17-07-2019 06:55:00 11 C 95 % 10.23 C
373 17-07-2019 07:00:00 11.1 C 95 % 10.33 C
374 17-07-2019 07:05:00 11.1 C 95 % 10.33 C
375 17-07-2019 07:10:00 11.2 C 95 % 10.43 C
Sensor: Nr:Datum:Temp:Feuchte:Taupunkt:
Aussen-T/F 376 17-07-2019 07:15:00 11.2 C 95 % 10.43 C
377 17-07-2019 07:20:00 11.3 C 95 % 10.53 C
378 17-07-2019 07:25:00 11.4 C 95 % 10.63 C
379 17-07-2019 07:30:00 11.6 C 95 % 10.83 C
380 17-07-2019 07:35:00 11.7 C 95 % 10.93 C
381 17-07-2019 07:40:00 11.8 C 95 % 11.03 C
382 17-07-2019 07:45:00 11.8 C 96 % 11.18 C
383 17-07-2019 07:50:00 11.9 C 95 % 11.13 C
384 17-07-2019 07:55:00 12.1 C 95 % 11.32 C
385 17-07-2019 08:00:00 12.2 C 96 % 11.58 C
386 17-07-2019 08:05:00 12.3 C 95 % 11.52 C
387 17-07-2019 08:10:00 12.4 C 95 % 11.62 C
388 17-07-2019 08:15:00 12.6 C 95 % 11.82 C
389 17-07-2019 08:20:00 12.6 C 95 % 11.82 C
390 17-07-2019 08:25:00 12.7 C 95 % 11.92 C
391 17-07-2019 08:30:00 12.8 C 95 % 12.02 C
392 17-07-2019 08:35:00 12.9 C 94 % 11.96 C
393 17-07-2019 08:40:00 13.1 C 94 % 12.16 C
394 17-07-2019 08:45:00 13.2 C 94 % 12.26 C
395 17-07-2019 08:50:00 13.3 C 93 % 12.19 C
396 17-07-2019 08:55:00 13.4 C 93 % 12.29 C
397 17-07-2019 09:00:00 13.7 C 93 % 12.59 C
398 17-07-2019 09:05:00 13.8 C 92 % 12.52 C
399 17-07-2019 09:10:00 14.1 C 92 % 12.82 C
400 17-07-2019 09:15:00 14.3 C 90 % 12.68 C
Sensor: Nr:Datum:Temp:Feuchte:Taupunkt:
Aussen-T/F 401 17-07-2019 09:20:00 14.5 C 90 % 12.88 C
402 17-07-2019 09:25:00 14.7 C 89 % 12.91 C
403 17-07-2019 09:30:00 15 C 88 % 13.03 C
404 17-07-2019 09:35:00 15.3 C 87 % 13.15 C
405 17-07-2019 09:40:00 15.5 C 87 % 13.35 C
406 17-07-2019 09:45:00 15.7 C 86 % 13.37 C
407 17-07-2019 09:50:00 15.8 C 85 % 13.28 C
408 17-07-2019 09:55:00 15.9 C 84 % 13.2 C
409 17-07-2019 10:00:00 16.1 C 83 % 13.21 C
410 17-07-2019 10:05:00 16.3 C 82 % 13.22 C
411 17-07-2019 10:10:00 16.4 C 81 % 13.13 C
412 17-07-2019 10:15:00 16.6 C 81 % 13.33 C
413 17-07-2019 10:20:00 16.8 C 80 % 13.33 C
414 17-07-2019 10:25:00 17.2 C 77 % 13.14 C
415 17-07-2019 10:30:00 17.5 C 76 % 13.23 C
416 17-07-2019 10:35:00 17.8 C 75 % 13.31 C
417 17-07-2019 10:40:00 17.9 C 74 % 13.2 C
418 17-07-2019 10:45:00 18 C 73 % 13.09 C
419 17-07-2019 10:50:00 18.1 C 74 % 13.4 C
420 17-07-2019 10:55:00 18.1 C 73 % 13.19 C
421 17-07-2019 11:00:00 18.2 C 73 % 13.28 C
422 17-07-2019 11:05:00 18.1 C 73 % 13.19 C
423 17-07-2019 11:10:00 18.2 C 73 % 13.28 C
424 17-07-2019 11:15:00 18.3 C 72 % 13.17 C
425 17-07-2019 11:20:00 18.5 C 72 % 13.36 C
Sensor: Nr:Datum:Temp:Feuchte:Taupunkt:
Aussen-T/F 426 17-07-2019 11:25:00 18.6 C 71 % 13.24 C
427 17-07-2019 11:30:00 18.7 C 72 % 13.55 C
428 17-07-2019 11:35:00 18.7 C 71 % 13.34 C
429 17-07-2019 11:40:00 18.7 C 71 % 13.34 C
430 17-07-2019 11:45:00 18.8 C 71 % 13.43 C
431 17-07-2019 11:50:00 19 C 71 % 13.63 C
432 17-07-2019 11:55:00 19.2 C 70 % 13.6 C
433 17-07-2019 12:00:00 19.1 C 69 % 13.28 C
434 17-07-2019 12:05:00 19.1 C 70 % 13.5 C
435 17-07-2019 12:10:00 19.2 C 70 % 13.6 C
436 17-07-2019 12:15:00 19.2 C 70 % 13.6 C
437 17-07-2019 12:20:00 19.3 C 70 % 13.69 C
438 17-07-2019 12:25:00 19.3 C 70 % 13.69 C
439 17-07-2019 12:30:00 19.4 C 69 % 13.57 C
440 17-07-2019 12:35:00 19.4 C 68 % 13.34 C
441 17-07-2019 12:40:00 19.6 C 68 % 13.54 C
442 17-07-2019 12:45:00 19.6 C 67 % 13.31 C
443 17-07-2019 12:50:00 19.7 C 67 % 13.4 C
444 17-07-2019 12:55:00 19.8 C 67 % 13.5 C
445 17-07-2019 13:00:00 19.8 C 67 % 13.5 C
446 17-07-2019 13:05:00 19.8 C 66 % 13.27 C
447 17-07-2019 13:10:00 19.8 C 65 % 13.03 C
448 17-07-2019 13:15:00 20 C 65 % 13.22 C
449 17-07-2019 13:20:00 20.3 C 64 % 13.27 C
450 17-07-2019 13:25:00 20.6 C 64 % 13.55 C
Sensor: Nr:Datum:Temp:Feuchte:Taupunkt:
Aussen-T/F 451 17-07-2019 13:30:00 20.7 C 63 % 13.41 C
452 17-07-2019 13:35:00 20.9 C 61 % 13.1 C
453 17-07-2019 13:40:00 20.9 C 60 % 12.85 C
454 17-07-2019 13:45:00 20.9 C 60 % 12.85 C
455 17-07-2019 13:50:00 21.1 C 60 % 13.04 C
456 17-07-2019 13:55:00 21.2 C 60 % 13.13 C
457 17-07-2019 14:00:00 21.1 C 59 % 12.78 C
458 17-07-2019 14:05:00 21.1 C 60 % 13.04 C
459 17-07-2019 14:10:00 21.3 C 60 % 13.22 C
460 17-07-2019 14:15:00 21.5 C 57 % 12.63 C
461 17-07-2019 14:20:00 21.5 C 58 % 12.89 C
462 17-07-2019 14:25:00 21.7 C 60 % 13.6 C
463 17-07-2019 14:30:00 21.9 C 59 % 13.53 C
464 17-07-2019 14:35:00 21.9 C 60 % 13.79 C
465 17-07-2019 14:40:00 22.1 C 58 % 13.45 C
466 17-07-2019 14:45:00 22.1 C 58 % 13.45 C
467 17-07-2019 14:50:00 22 C 59 % 13.62 C
468 17-07-2019 14:55:00 22.1 C 59 % 13.72 C
469 17-07-2019 15:00:00 22.3 C 61 % 14.42 C
470 17-07-2019 15:05:00 22.3 C 58 % 13.64 C
471 17-07-2019 15:10:00 22.3 C 58 % 13.64 C
472 17-07-2019 15:15:00 22.3 C 60 % 14.16 C
473 17-07-2019 15:20:00 22.4 C 59 % 14 C
474 17-07-2019 15:25:00 22.7 C 58 % 14.01 C
475 17-07-2019 15:30:00 22.7 C 56 % 13.47 C
Sensor: Nr:Datum:Temp:Feuchte:Taupunkt:
Aussen-T/F 476 17-07-2019 15:35:00 22.8 C 58 % 14.11 C
477 17-07-2019 15:40:00 22.9 C 57 % 13.93 C
478 17-07-2019 15:45:00 23.1 C 57 % 14.12 C
479 17-07-2019 15:50:00 23.2 C 56 % 13.94 C
480 17-07-2019 15:55:00 23.3 C 58 % 14.58 C
481 17-07-2019 16:00:00 23.3 C 55 % 13.76 C
482 17-07-2019 16:05:00 23.3 C 57 % 14.31 C
483 17-07-2019 16:10:00 23.2 C 56 % 13.94 C
484 17-07-2019 16:15:00 23.1 C 56 % 13.85 C
485 17-07-2019 16:20:00 23.2 C 58 % 14.48 C
486 17-07-2019 16:25:00 23.7 C 55 % 14.13 C
487 17-07-2019 16:30:00 23.9 C 54 % 14.03 C
488 17-07-2019 16:35:00 24.1 C 54 % 14.21 C
489 17-07-2019 16:40:00 24.1 C 53 % 13.93 C
490 17-07-2019 16:45:00 24.1 C 54 % 14.21 C
491 17-07-2019 16:50:00 24.2 C 53 % 14.02 C
492 17-07-2019 16:55:00 23.9 C 54 % 14.03 C
493 17-07-2019 17:00:00 23.7 C 55 % 14.13 C
494 17-07-2019 17:05:00 24 C 54 % 14.12 C
495 17-07-2019 17:10:00 24.3 C 54 % 14.4 C
496 17-07-2019 17:15:00 24.6 C 54 % 14.68 C
497 17-07-2019 17:20:00 24.6 C 52 % 14.09 C
498 17-07-2019 17:25:00 24.7 C 53 % 14.48 C
499 17-07-2019 17:30:00 24.8 C 53 % 14.57 C
500 17-07-2019 17:35:00 24.8 C 52 % 14.28 C
Sensor: Nr:Datum:Temp:Feuchte:Taupunkt:
Aussen-T/F 501 17-07-2019 17:40:00 24.7 C 52 % 14.19 C
502 17-07-2019 17:45:00 24.9 C 53 % 14.66 C
503 17-07-2019 17:50:00 25 C 51 % 14.16 C
504 17-07-2019 17:55:00 24.8 C 53 % 14.57 C
505 17-07-2019 18:00:00 24.8 C 53 % 14.57 C
506 17-07-2019 18:05:00 24.7 C 53 % 14.48 C
507 17-07-2019 18:10:00 24.7 C 52 % 14.19 C
508 17-07-2019 18:15:00 24.6 C 53 % 14.39 C
509 17-07-2019 18:20:00 24.4 C 53 % 14.2 C
510 17-07-2019 18:25:00 24.2 C 54 % 14.31 C
511 17-07-2019 18:30:00 24.1 C 55 % 14.5 C
512 17-07-2019 18:35:00 23.9 C 55 % 14.31 C
513 17-07-2019 18:40:00 23.8 C 56 % 14.5 C
514 17-07-2019 18:45:00 23.9 C 56 % 14.59 C
515 17-07-2019 18:50:00 23.9 C 55 % 14.31 C
516 17-07-2019 18:55:00 23.9 C 55 % 14.31 C
517 17-07-2019 19:00:00 23.7 C 57 % 14.68 C
518 17-07-2019 19:05:00 23.7 C 57 % 14.68 C
519 17-07-2019 19:10:00 23.9 C 56 % 14.59 C
520 17-07-2019 19:15:00 23.7 C 57 % 14.68 C
521 17-07-2019 19:20:00 23.6 C 58 % 14.86 C
522 17-07-2019 19:25:00 23.6 C 57 % 14.59 C
523 17-07-2019 19:30:00 23.3 C 58 % 14.58 C
524 17-07-2019 19:35:00 23.1 C 59 % 14.65 C
525 17-07-2019 19:40:00 22.7 C 60 % 14.54 C
Sensor: Nr:Datum:Temp:Feuchte:Taupunkt:
Aussen-T/F 526 17-07-2019 19:45:00 22.5 C 60 % 14.35 C
527 17-07-2019 19:50:00 22.4 C 61 % 14.51 C
528 17-07-2019 19:55:00 22.3 C 62 % 14.67 C
529 17-07-2019 20:00:00 22.2 C 61 % 14.32 C
530 17-07-2019 20:05:00 22.2 C 61 % 14.32 C
531 17-07-2019 20:10:00 22.1 C 62 % 14.48 C
532 17-07-2019 20:15:00 21.9 C 63 % 14.54 C
533 17-07-2019 20:20:00 21.8 C 64 % 14.69 C
534 17-07-2019 20:25:00 21.6 C 65 % 14.74 C
535 17-07-2019 20:30:00 21.4 C 65 % 14.55 C
536 17-07-2019 20:35:00 21.3 C 65 % 14.46 C
537 17-07-2019 20:40:00 21.2 C 65 % 14.36 C
538 17-07-2019 20:45:00 21 C 66 % 14.41 C
539 17-07-2019 20:50:00 20.9 C 67 % 14.55 C
540 17-07-2019 20:55:00 20.7 C 67 % 14.36 C
541 17-07-2019 21:00:00 20.6 C 68 % 14.49 C
542 17-07-2019 21:05:00 20.4 C 68 % 14.3 C
543 17-07-2019 21:10:00 20.3 C 68 % 14.2 C
544 17-07-2019 21:15:00 20.2 C 69 % 14.33 C
545 17-07-2019 21:20:00 20.1 C 69 % 14.24 C
546 17-07-2019 21:25:00 20.1 C 70 % 14.46 C
547 17-07-2019 21:30:00 19.9 C 71 % 14.49 C
548 17-07-2019 21:35:00 19.6 C 71 % 14.2 C
549 17-07-2019 21:40:00 19.3 C 72 % 14.13 C
550 17-07-2019 21:45:00 18.9 C 73 % 13.96 C
Sensor: Nr:Datum:Temp:Feuchte:Taupunkt:
Aussen-T/F 551 17-07-2019 21:50:00 18.6 C 74 % 13.88 C
552 17-07-2019 21:55:00 18.3 C 75 % 13.79 C
553 17-07-2019 22:00:00 18 C 76 % 13.71 C
554 17-07-2019 22:05:00 17.7 C 77 % 13.62 C
555 17-07-2019 22:10:00 17.5 C 78 % 13.62 C
556 17-07-2019 22:15:00 17.3 C 79 % 13.63 C
557 17-07-2019 22:20:00 17.2 C 80 % 13.72 C
558 17-07-2019 22:25:00 17.1 C 80 % 13.62 C
559 17-07-2019 22:30:00 16.9 C 81 % 13.62 C
560 17-07-2019 22:35:00 16.8 C 81 % 13.52 C
561 17-07-2019 22:40:00 16.7 C 81 % 13.43 C
562 17-07-2019 22:45:00 16.6 C 82 % 13.52 C
563 17-07-2019 22:50:00 16.4 C 82 % 13.32 C
564 17-07-2019 22:55:00 16.4 C 83 % 13.51 C
565 17-07-2019 23:00:00 16.3 C 84 % 13.59 C
566 17-07-2019 23:05:00 16.3 C 84 % 13.59 C
567 17-07-2019 23:10:00 16.3 C 84 % 13.59 C
568 17-07-2019 23:15:00 16.2 C 84 % 13.5 C
569 17-07-2019 23:20:00 16.2 C 84 % 13.5 C
570 17-07-2019 23:25:00 16.1 C 84 % 13.4 C
571 17-07-2019 23:30:00 16 C 85 % 13.48 C
572 17-07-2019 23:35:00 15.9 C 85 % 13.38 C
573 17-07-2019 23:40:00 15.8 C 85 % 13.28 C
574 17-07-2019 23:45:00 15.8 C 85 % 13.28 C
575 17-07-2019 23:50:00 15.7 C 85 % 13.19 C
Sensor: Nr:Datum:Temp:Feuchte:Taupunkt:
Aussen-T/F 576 17-07-2019 23:55:00 15.7 C 85 % 13.19 C
577 18-07-2019 00:00:00 15.6 C 85 % 13.09 C
578 18-07-2019 00:05:00 15.6 C 85 % 13.09 C
579 18-07-2019 00:10:00 15.5 C 86 % 13.17 C
580 18-07-2019 00:15:00 15.4 C 86 % 13.07 C
581 18-07-2019 00:20:00 15.4 C 86 % 13.07 C
582 18-07-2019 00:25:00 15.3 C 86 % 12.97 C
583 18-07-2019 00:30:00 15.3 C 86 % 12.97 C
584 18-07-2019 00:35:00 15.2 C 86 % 12.88 C
585 18-07-2019 00:40:00 15.2 C 86 % 12.88 C
586 18-07-2019 00:45:00 15.1 C 87 % 12.95 C
587 18-07-2019 00:50:00 15 C 87 % 12.86 C
588 18-07-2019 00:55:00 14.9 C 87 % 12.76 C
589 18-07-2019 01:00:00 14.8 C 87 % 12.66 C
590 18-07-2019 01:05:00 14.7 C 88 % 12.73 C
591 18-07-2019 01:10:00 14.7 C 88 % 12.73 C
592 18-07-2019 01:15:00 14.6 C 88 % 12.64 C
593 18-07-2019 01:20:00 14.4 C 88 % 12.44 C
594 18-07-2019 01:25:00 14.4 C 88 % 12.44 C
595 18-07-2019 01:30:00 14.3 C 88 % 12.34 C
596 18-07-2019 01:35:00 14.1 C 89 % 12.32 C
597 18-07-2019 01:40:00 14 C 89 % 12.22 C
598 18-07-2019 01:45:00 13.9 C 89 % 12.12 C
599 18-07-2019 01:50:00 13.8 C 90 % 12.19 C
600 18-07-2019 01:55:00 13.8 C 90 % 12.19 C
Sensor: Nr:Datum:Temp:Feuchte:Taupunkt:
Aussen-T/F 601 18-07-2019 02:00:00 13.8 C 90 % 12.19 C
602 18-07-2019 02:05:00 13.8 C 91 % 12.36 C
603 18-07-2019 02:10:00 13.7 C 91 % 12.26 C
604 18-07-2019 02:15:00 13.7 C 91 % 12.26 C
605 18-07-2019 02:20:00 13.7 C 91 % 12.26 C
606 18-07-2019 02:25:00 13.7 C 91 % 12.26 C
607 18-07-2019 02:30:00 13.6 C 91 % 12.16 C
608 18-07-2019 02:35:00 13.6 C 91 % 12.16 C
609 18-07-2019 02:40:00 13.7 C 92 % 12.42 C
610 18-07-2019 02:45:00 13.7 C 92 % 12.42 C
611 18-07-2019 02:50:00 13.7 C 92 % 12.42 C
612 18-07-2019 02:55:00 13.6 C 92 % 12.33 C
613 18-07-2019 03:00:00 13.6 C 92 % 12.33 C
614 18-07-2019 03:05:00 13.6 C 92 % 12.33 C
615 18-07-2019 03:10:00 13.5 C 92 % 12.23 C
616 18-07-2019 03:15:00 13.5 C 92 % 12.23 C
617 18-07-2019 03:20:00 13.5 C 92 % 12.23 C
618 18-07-2019 03:25:00 13.4 C 92 % 12.13 C
619 18-07-2019 03:30:00 13.4 C 92 % 12.13 C
620 18-07-2019 03:35:00 13.4 C 92 % 12.13 C
621 18-07-2019 03:40:00 13.4 C 92 % 12.13 C
622 18-07-2019 03:45:00 13.4 C 93 % 12.29 C
623 18-07-2019 03:50:00 13.4 C 93 % 12.29 C
624 18-07-2019 03:55:00 13.4 C 93 % 12.29 C
625 18-07-2019 04:00:00 13.4 C 93 % 12.29 C
Sensor: Nr:Datum:Temp:Feuchte:Taupunkt:
Aussen-T/F 626 18-07-2019 04:05:00 13.4 C 93 % 12.29 C
627 18-07-2019 04:10:00 13.4 C 93 % 12.29 C
628 18-07-2019 04:15:00 13.4 C 93 % 12.29 C
629 18-07-2019 04:20:00 13.3 C 93 % 12.19 C
630 18-07-2019 04:25:00 13.3 C 93 % 12.19 C
631 18-07-2019 04:30:00 13.3 C 93 % 12.19 C
632 18-07-2019 04:35:00 13.2 C 93 % 12.09 C
633 18-07-2019 04:40:00 13.2 C 93 % 12.09 C
634 18-07-2019 04:45:00 13.1 C 93 % 11.99 C
635 18-07-2019 04:50:00 13 C 92 % 11.73 C
636 18-07-2019 04:55:00 12.9 C 93 % 11.8 C
637 18-07-2019 05:00:00 12.9 C 93 % 11.8 C
638 18-07-2019 05:05:00 12.8 C 93 % 11.7 C
639 18-07-2019 05:10:00 12.8 C 93 % 11.7 C
640 18-07-2019 05:15:00 12.8 C 93 % 11.7 C
641 18-07-2019 05:20:00 12.8 C 93 % 11.7 C
642 18-07-2019 05:25:00 12.7 C 93 % 11.6 C
643 18-07-2019 05:30:00 12.7 C 93 % 11.6 C
644 18-07-2019 05:35:00 12.6 C 93 % 11.5 C
645 18-07-2019 05:40:00 12.6 C 93 % 11.5 C
646 18-07-2019 05:45:00 12.5 C 93 % 11.4 C
647 18-07-2019 05:50:00 12.5 C 93 % 11.4 C
648 18-07-2019 05:55:00 12.4 C 94 % 11.46 C
649 18-07-2019 06:00:00 12.4 C 94 % 11.46 C
650 18-07-2019 06:05:00 12.4 C 94 % 11.46 C
Sensor: Nr:Datum:Temp:Feuchte:Taupunkt:
Aussen-T/F 651 18-07-2019 06:10:00 12.4 C 94 % 11.46 C
652 18-07-2019 06:15:00 12.3 C 94 % 11.36 C
653 18-07-2019 06:20:00 12.4 C 94 % 11.46 C
654 18-07-2019 06:25:00 12.4 C 94 % 11.46 C
655 18-07-2019 06:30:00 12.4 C 94 % 11.46 C
656 18-07-2019 06:35:00 12.4 C 94 % 11.46 C
657 18-07-2019 06:40:00 12.5 C 95 % 11.72 C
658 18-07-2019 06:45:00 12.6 C 95 % 11.82 C
659 18-07-2019 06:50:00 12.6 C 95 % 11.82 C
660 18-07-2019 06:55:00 12.7 C 95 % 11.92 C
661 18-07-2019 07:00:00 12.8 C 95 % 12.02 C
662 18-07-2019 07:05:00 12.9 C 95 % 12.12 C
663 18-07-2019 07:10:00 13 C 95 % 12.22 C
664 18-07-2019 07:15:00 13.1 C 95 % 12.32 C
665 18-07-2019 07:20:00 13.2 C 95 % 12.42 C
666 18-07-2019 07:25:00 13.2 C 95 % 12.42 C
667 18-07-2019 07:30:00 13.3 C 95 % 12.52 C
668 18-07-2019 07:35:00 13.4 C 95 % 12.62 C
669 18-07-2019 07:40:00 13.4 C 95 % 12.62 C
670 18-07-2019 07:45:00 13.5 C 95 % 12.72 C
671 18-07-2019 07:50:00 13.6 C 95 % 12.81 C
672 18-07-2019 07:55:00 13.7 C 95 % 12.91 C
673 18-07-2019 08:00:00 13.7 C 94 % 12.75 C
674 18-07-2019 08:05:00 13.8 C 94 % 12.85 C
675 18-07-2019 08:10:00 13.9 C 94 % 12.95 C
Sensor: Nr:Datum:Temp:Feuchte:Taupunkt:
Aussen-T/F 676 18-07-2019 08:15:00 14 C 94 % 13.05 C
677 18-07-2019 08:20:00 14.1 C 94 % 13.15 C
678 18-07-2019 08:25:00 14.3 C 94 % 13.35 C
679 18-07-2019 08:30:00 14.3 C 93 % 13.18 C
680 18-07-2019 08:35:00 14.4 C 93 % 13.28 C
681 18-07-2019 08:40:00 14.6 C 92 % 13.32 C
682 18-07-2019 08:45:00 14.7 C 92 % 13.41 C
683 18-07-2019 08:50:00 14.9 C 92 % 13.61 C
684 18-07-2019 08:55:00 15.1 C 92 % 13.81 C
685 18-07-2019 09:00:00 15.2 C 92 % 13.91 C
686 18-07-2019 09:05:00 15.4 C 92 % 14.11 C
687 18-07-2019 09:10:00 15.6 C 91 % 14.14 C
688 18-07-2019 09:15:00 15.7 C 91 % 14.24 C
689 18-07-2019 09:20:00 15.9 C 91 % 14.43 C
690 18-07-2019 09:25:00 16.1 C 89 % 14.29 C
691 18-07-2019 09:30:00 16.3 C 88 % 14.31 C
692 18-07-2019 09:35:00 16.4 C 88 % 14.41 C
693 18-07-2019 09:40:00 16.7 C 88 % 14.7 C
694 18-07-2019 09:45:00 16.9 C 86 % 14.54 C
695 18-07-2019 09:50:00 17.1 C 86 % 14.74 C
696 18-07-2019 09:55:00 17.3 C 87 % 15.12 C
697 18-07-2019 10:00:00 17.4 C 87 % 15.21 C
698 18-07-2019 10:05:00 17.6 C 85 % 15.05 C
699 18-07-2019 10:10:00 17.7 C 85 % 15.15 C
700 18-07-2019 10:15:00 17.9 C 85 % 15.34 C
Sensor: Nr:Datum:Temp:Feuchte:Taupunkt:
Aussen-T/F 701 18-07-2019 10:20:00 18.2 C 84 % 15.45 C
702 18-07-2019 10:25:00 18.5 C 83 % 15.56 C
703 18-07-2019 10:30:00 18.9 C 80 % 15.38 C
704 18-07-2019 10:35:00 19.3 C 80 % 15.76 C
705 18-07-2019 10:40:00 19.7 C 78 % 15.76 C
706 18-07-2019 10:45:00 20 C 77 % 15.85 C
707 18-07-2019 10:50:00 20.3 C 77 % 16.14 C
708 18-07-2019 10:55:00 20.5 C 75 % 15.92 C
709 18-07-2019 11:00:00 20.7 C 76 % 16.32 C
710 18-07-2019 11:05:00 20.8 C 74 % 16 C
711 18-07-2019 11:10:00 20.9 C 73 % 15.88 C
712 18-07-2019 11:15:00 21.1 C 68 % 14.97 C
713 18-07-2019 11:20:00 21.3 C 64 % 14.22 C
714 18-07-2019 11:25:00 21.7 C 62 % 14.1 C
715 18-07-2019 11:30:00 22.1 C 62 % 14.48 C
716 18-07-2019 11:35:00 22.3 C 60 % 14.16 C
717 18-07-2019 11:40:00 22.6 C 60 % 14.44 C
718 18-07-2019 11:45:00 22.9 C 58 % 14.2 C
719 18-07-2019 11:50:00 23.1 C 58 % 14.39 C
720 18-07-2019 11:55:00 23.2 C 58 % 14.48 C
721 18-07-2019 12:00:00 23.3 C 59 % 14.84 C
722 18-07-2019 12:05:00 23.4 C 57 % 14.4 C
723 18-07-2019 12:10:00 23.6 C 55 % 14.03 C
724 18-07-2019 12:15:00 23.8 C 56 % 14.5 C
725 18-07-2019 12:20:00 23.9 C 54 % 14.03 C
Sensor: Nr:Datum:Temp:Feuchte:Taupunkt:
Aussen-T/F 726 18-07-2019 12:25:00 24.3 C 54 % 14.4 C
727 18-07-2019 12:30:00 24.5 C 54 % 14.58 C
728 18-07-2019 12:35:00 24.7 C 53 % 14.48 C
729 18-07-2019 12:40:00 24.7 C 52 % 14.19 C
730 18-07-2019 12:45:00 24.7 C 52 % 14.19 C
731 18-07-2019 12:50:00 24.7 C 54 % 14.77 C
732 18-07-2019 12:55:00 24.6 C 50 % 13.49 C
733 18-07-2019 13:00:00 24.8 C 51 % 13.98 C
734 18-07-2019 13:05:00 24.9 C 50 % 13.77 C
735 18-07-2019 13:10:00 25.1 C 50 % 13.95 C
736 18-07-2019 13:15:00 25.2 C 50 % 14.04 C
737 18-07-2019 13:20:00 25.4 C 50 % 14.22 C
738 18-07-2019 13:25:00 25.6 C 49 % 14.1 C
739 18-07-2019 13:30:00 25.8 C 49 % 14.28 C
740 18-07-2019 13:35:00 26.1 C 50 % 14.87 C
741 18-07-2019 13:40:00 26.3 C 50 % 15.05 C
742 18-07-2019 13:45:00 26.3 C 47 % 14.09 C
743 18-07-2019 13:50:00 26.4 C 49 % 14.83 C
744 18-07-2019 13:55:00 26.7 C 44 % 13.44 C
745 18-07-2019 14:00:00 26.8 C 42 % 12.82 C
746 18-07-2019 14:05:00 27 C 45 % 14.06 C
747 18-07-2019 14:10:00 27.3 C 42 % 13.27 C
748 18-07-2019 14:15:00 27.4 C 41 % 12.99 C
749 18-07-2019 14:20:00 27.6 C 40 % 12.79 C
750 18-07-2019 14:25:00 27.5 C 39 % 12.31 C
Sensor: Nr:Datum:Temp:Feuchte:Taupunkt:
Aussen-T/F 751 18-07-2019 14:30:00 27.3 C 41 % 12.9 C
752 18-07-2019 14:35:00 27.2 C 42 % 13.18 C
753 18-07-2019 14:40:00 27.2 C 40 % 12.43 C
754 18-07-2019 14:45:00 27.2 C 42 % 13.18 C
755 18-07-2019 14:50:00 27.1 C 39 % 11.96 C
756 18-07-2019 14:55:00 26.9 C 40 % 12.16 C
757 18-07-2019 15:00:00 26.8 C 39 % 11.69 C
758 18-07-2019 15:05:00 26.8 C 45 % 13.87 C
759 18-07-2019 15:10:00 26.6 C 42 % 12.64 C
760 18-07-2019 15:15:00 26.3 C 44 % 13.08 C
761 18-07-2019 15:20:00 26.1 C 44 % 12.9 C
762 18-07-2019 15:25:00 25.9 C 48 % 14.05 C
763 18-07-2019 15:30:00 25.8 C 50 % 14.59 C
764 18-07-2019 15:35:00 25.7 C 43 % 12.19 C
765 18-07-2019 15:40:00 25.7 C 44 % 12.54 C
766 18-07-2019 15:45:00 25.6 C 43 % 12.1 C
767 18-07-2019 15:50:00 25.6 C 45 % 12.79 C
768 18-07-2019 15:55:00 25.6 C 52 % 15.02 C
769 18-07-2019 16:00:00 25.5 C 52 % 14.92 C
770 18-07-2019 16:05:00 25.2 C 51 % 14.35 C
771 18-07-2019 16:10:00 24.9 C 53 % 14.66 C
772 18-07-2019 16:15:00 24.7 C 55 % 15.05 C
773 18-07-2019 16:20:00 24.5 C 57 % 15.42 C
774 18-07-2019 16:25:00 24.6 C 51 % 13.79 C
775 18-07-2019 16:30:00 24.6 C 50 % 13.49 C
Sensor: Nr:Datum:Temp:Feuchte:Taupunkt:
Aussen-T/F 776 18-07-2019 16:35:00 24.6 C 50 % 13.49 C
777 18-07-2019 16:40:00 24.5 C 52 % 14 C
778 18-07-2019 16:45:00 24.6 C 52 % 14.09 C
779 18-07-2019 16:50:00 24.7 C 51 % 13.89 C
780 18-07-2019 16:55:00 24.8 C 55 % 15.15 C
781 18-07-2019 17:00:00 24.9 C 50 % 13.77 C
782 18-07-2019 17:05:00 24.9 C 50 % 13.77 C
783 18-07-2019 17:10:00 24.9 C 53 % 14.66 C
784 18-07-2019 17:15:00 24.8 C 54 % 14.86 C
785 18-07-2019 17:20:00 24.8 C 57 % 15.7 C
786 18-07-2019 17:25:00 24.8 C 55 % 15.15 C
787 18-07-2019 17:30:00 24.8 C 55 % 15.15 C
788 18-07-2019 17:35:00 24.9 C 57 % 15.8 C
789 18-07-2019 17:40:00 24.9 C 58 % 16.07 C
790 18-07-2019 17:45:00 24.8 C 59 % 16.24 C
791 18-07-2019 17:50:00 24.8 C 62 % 17.02 C
792 18-07-2019 17:55:00 24.8 C 63 % 17.28 C
793 18-07-2019 18:00:00 24.7 C 56 % 15.33 C
794 18-07-2019 18:05:00 24.8 C 61 % 16.77 C
795 18-07-2019 18:10:00 24.8 C 60 % 16.51 C
796 18-07-2019 18:15:00 24.8 C 52 % 14.28 C
797 18-07-2019 18:20:00 24.7 C 54 % 14.77 C
798 18-07-2019 18:25:00 24.7 C 51 % 13.89 C
799 18-07-2019 18:30:00 24.6 C 66 % 17.83 C
800 18-07-2019 18:35:00 24.2 C 66 % 17.45 C
Sensor: Nr:Datum:Temp:Feuchte:Taupunkt:
Aussen-T/F 801 18-07-2019 18:40:00 23.5 C 70 % 17.71 C
802 18-07-2019 18:45:00 22.8 C 71 % 17.27 C
803 18-07-2019 18:50:00 22.3 C 73 % 17.23 C
804 18-07-2019 18:55:00 21.8 C 73 % 16.75 C
805 18-07-2019 19:00:00 21.6 C 74 % 16.77 C
806 18-07-2019 19:05:00 21.4 C 75 % 16.79 C
807 18-07-2019 19:10:00 21.3 C 76 % 16.9 C
808 18-07-2019 19:15:00 21.2 C 75 % 16.59 C
809 18-07-2019 19:20:00 21.2 C 76 % 16.8 C
810 18-07-2019 19:25:00 21.1 C 75 % 16.5 C
811 18-07-2019 19:30:00 21 C 75 % 16.4 C
812 18-07-2019 19:35:00 20.9 C 75 % 16.3 C
813 18-07-2019 19:40:00 20.9 C 74 % 16.09 C
814 18-07-2019 19:45:00 20.8 C 73 % 15.78 C
815 18-07-2019 19:50:00 20.7 C 72 % 15.47 C
816 18-07-2019 19:55:00 20.7 C 71 % 15.25 C
817 18-07-2019 20:00:00 20.7 C 72 % 15.47 C
818 18-07-2019 20:05:00 20.7 C 71 % 15.25 C
819 18-07-2019 20:10:00 20.8 C 72 % 15.57 C
820 18-07-2019 20:15:00 20.8 C 71 % 15.35 C
821 18-07-2019 20:20:00 20.9 C 70 % 15.23 C
822 18-07-2019 20:25:00 21 C 70 % 15.32 C
823 18-07-2019 20:30:00 21 C 69 % 15.1 C
824 18-07-2019 20:35:00 21 C 69 % 15.1 C
825 18-07-2019 20:40:00 21 C 69 % 15.1 C
Sensor: Nr:Datum:Temp:Feuchte:Taupunkt:
Aussen-T/F 826 18-07-2019 20:45:00 20.9 C 69 % 15 C
827 18-07-2019 20:50:00 20.8 C 69 % 14.91 C
828 18-07-2019 20:55:00 20.8 C 69 % 14.91 C
829 18-07-2019 21:00:00 20.8 C 68 % 14.68 C
830 18-07-2019 21:05:00 20.7 C 68 % 14.58 C
831 18-07-2019 21:10:00 20.6 C 69 % 14.71 C
832 18-07-2019 21:15:00 20.6 C 68 % 14.49 C
833 18-07-2019 21:20:00 20.4 C 69 % 14.52 C
834 18-07-2019 21:25:00 20.4 C 69 % 14.52 C
835 18-07-2019 21:30:00 20.3 C 69 % 14.43 C
836 18-07-2019 21:35:00 20.2 C 69 % 14.33 C
837 18-07-2019 21:40:00 20.2 C 70 % 14.56 C
838 18-07-2019 21:45:00 20.1 C 70 % 14.46 C
839 18-07-2019 21:50:00 20 C 70 % 14.36 C
840 18-07-2019 21:55:00 19.9 C 70 % 14.27 C
841 18-07-2019 22:00:00 19.8 C 70 % 14.17 C
842 18-07-2019 22:05:00 19.8 C 71 % 14.39 C
843 18-07-2019 22:10:00 19.8 C 71 % 14.39 C
844 18-07-2019 22:15:00 19.7 C 71 % 14.3 C
845 18-07-2019 22:20:00 19.7 C 71 % 14.3 C
846 18-07-2019 22:25:00 19.7 C 72 % 14.51 C
847 18-07-2019 22:30:00 19.7 C 73 % 14.73 C
848 18-07-2019 22:35:00 19.7 C 73 % 14.73 C
849 18-07-2019 22:40:00 19.6 C 72 % 14.42 C
850 18-07-2019 22:45:00 19.6 C 72 % 14.42 C
Sensor: Nr:Datum:Temp:Feuchte:Taupunkt:
Aussen-T/F 851 18-07-2019 22:50:00 19.5 C 72 % 14.32 C
852 18-07-2019 22:55:00 19.4 C 72 % 14.22 C
853 18-07-2019 23:00:00 19.4 C 72 % 14.22 C
854 18-07-2019 23:05:00 19.4 C 72 % 14.22 C
855 18-07-2019 23:10:00 19.4 C 72 % 14.22 C
856 18-07-2019 23:15:00 19.3 C 72 % 14.13 C
857 18-07-2019 23:20:00 19.3 C 73 % 14.34 C
858 18-07-2019 23:25:00 19.3 C 73 % 14.34 C
859 18-07-2019 23:30:00 19.3 C 73 % 14.34 C
860 18-07-2019 23:35:00 19.3 C 73 % 14.34 C
861 18-07-2019 23:40:00 19.3 C 72 % 14.13 C
862 18-07-2019 23:45:00 19.4 C 73 % 14.44 C
863 18-07-2019 23:50:00 19.4 C 73 % 14.44 C
864 18-07-2019 23:55:00 19.5 C 72 % 14.32 C
865 19-07-2019 00:00:00 19.6 C 72 % 14.42 C
866 19-07-2019 00:05:00 19.6 C 73 % 14.63 C
867 19-07-2019 00:10:00 19.5 C 73 % 14.53 C
868 19-07-2019 00:15:00 19.5 C 74 % 14.74 C
869 19-07-2019 00:20:00 19.4 C 74 % 14.65 C
870 19-07-2019 00:25:00 19.3 C 74 % 14.55 C
871 19-07-2019 00:30:00 19.3 C 74 % 14.55 C
872 19-07-2019 00:35:00 19.2 C 74 % 14.46 C
873 19-07-2019 00:40:00 19.2 C 74 % 14.46 C
874 19-07-2019 00:45:00 19.2 C 75 % 14.66 C
875 19-07-2019 00:50:00 19.1 C 76 % 14.77 C
Sensor: Nr:Datum:Temp:Feuchte:Taupunkt:
Aussen-T/F 876 19-07-2019 00:55:00 19.1 C 76 % 14.77 C
877 19-07-2019 01:00:00 19 C 76 % 14.68 C
878 19-07-2019 01:05:00 18.9 C 77 % 14.78 C
879 19-07-2019 01:10:00 18.9 C 78 % 14.98 C
880 19-07-2019 01:15:00 18.9 C 79 % 15.18 C
881 19-07-2019 01:20:00 18.8 C 81 % 15.47 C
882 19-07-2019 01:25:00 18.7 C 83 % 15.75 C
883 19-07-2019 01:30:00 18.5 C 84 % 15.75 C
884 19-07-2019 01:35:00 18.3 C 84 % 15.55 C
885 19-07-2019 01:40:00 18.1 C 85 % 15.54 C
886 19-07-2019 01:45:00 17.9 C 87 % 15.71 C
887 19-07-2019 01:50:00 17.8 C 87 % 15.61 C
888 19-07-2019 01:55:00 17.7 C 88 % 15.69 C
889 19-07-2019 02:00:00 17.6 C 88 % 15.59 C
890 19-07-2019 02:05:00 17.4 C 89 % 15.57 C
891 19-07-2019 02:10:00 17.3 C 89 % 15.47 C
892 19-07-2019 02:15:00 17.2 C 89 % 15.37 C
893 19-07-2019 02:20:00 17.1 C 89 % 15.27 C
894 19-07-2019 02:25:00 17 C 90 % 15.35 C
895 19-07-2019 02:30:00 16.9 C 90 % 15.25 C
896 19-07-2019 02:35:00 16.9 C 91 % 15.42 C
897 19-07-2019 02:40:00 16.9 C 91 % 15.42 C
898 19-07-2019 02:45:00 16.8 C 91 % 15.32 C
899 19-07-2019 02:50:00 16.8 C 91 % 15.32 C
900 19-07-2019 02:55:00 16.8 C 91 % 15.32 C
Sensor: Nr:Datum:Temp:Feuchte:Taupunkt:
Aussen-T/F 901 19-07-2019 03:00:00 16.7 C 91 % 15.22 C
902 19-07-2019 03:05:00 16.7 C 91 % 15.22 C
903 19-07-2019 03:10:00 16.7 C 92 % 15.39 C
904 19-07-2019 03:15:00 16.7 C 92 % 15.39 C
905 19-07-2019 03:20:00 16.6 C 92 % 15.3 C
906 19-07-2019 03:25:00 16.6 C 92 % 15.3 C
907 19-07-2019 03:30:00 16.6 C 93 % 15.46 C
908 19-07-2019 03:35:00 16.6 C 93 % 15.46 C
909 19-07-2019 03:40:00 16.6 C 93 % 15.46 C
910 19-07-2019 03:45:00 16.5 C 93 % 15.36 C
911 19-07-2019 03:50:00 16.5 C 93 % 15.36 C
912 19-07-2019 03:55:00 16.5 C 93 % 15.36 C
913 19-07-2019 04:00:00 16.5 C 93 % 15.36 C
914 19-07-2019 04:05:00 16.4 C 93 % 15.27 C
915 19-07-2019 04:10:00 16.4 C 93 % 15.27 C
916 19-07-2019 04:15:00 16.4 C 93 % 15.27 C
917 19-07-2019 04:20:00 16.4 C 93 % 15.27 C
918 19-07-2019 04:25:00 16.4 C 93 % 15.27 C
919 19-07-2019 04:30:00 16.4 C 93 % 15.27 C
920 19-07-2019 04:35:00 16.4 C 94 % 15.43 C
921 19-07-2019 04:40:00 16.3 C 94 % 15.33 C
922 19-07-2019 04:45:00 16.3 C 94 % 15.33 C
923 19-07-2019 04:50:00 16.3 C 94 % 15.33 C
924 19-07-2019 04:55:00 16.3 C 94 % 15.33 C
925 19-07-2019 05:00:00 16.3 C 94 % 15.33 C
Sensor: Nr:Datum:Temp:Feuchte:Taupunkt:
Aussen-T/F 926 19-07-2019 05:05:00 16.3 C 94 % 15.33 C
927 19-07-2019 05:10:00 16.3 C 94 % 15.33 C
928 19-07-2019 05:15:00 16.3 C 94 % 15.33 C
929 19-07-2019 05:20:00 16.3 C 94 % 15.33 C
930 19-07-2019 05:25:00 16.3 C 94 % 15.33 C
931 19-07-2019 05:30:00 16.3 C 94 % 15.33 C
932 19-07-2019 05:35:00 16.3 C 94 % 15.33 C
933 19-07-2019 05:40:00 16.3 C 94 % 15.33 C
934 19-07-2019 05:45:00 16.3 C 94 % 15.33 C
935 19-07-2019 05:50:00 16.3 C 95 % 15.5 C
936 19-07-2019 05:55:00 16.3 C 95 % 15.5 C
937 19-07-2019 06:00:00 16.3 C 95 % 15.5 C
938 19-07-2019 06:05:00 16.3 C 95 % 15.5 C
939 19-07-2019 06:10:00 16.3 C 95 % 15.5 C
940 19-07-2019 06:15:00 16.3 C 95 % 15.5 C
941 19-07-2019 06:20:00 16.3 C 95 % 15.5 C
942 19-07-2019 06:25:00 16.3 C 95 % 15.5 C
943 19-07-2019 06:30:00 16.4 C 95 % 15.6 C
944 19-07-2019 06:35:00 16.4 C 95 % 15.6 C
945 19-07-2019 06:40:00 16.4 C 95 % 15.6 C
946 19-07-2019 06:45:00 16.4 C 95 % 15.6 C
947 19-07-2019 06:50:00 16.4 C 95 % 15.6 C
948 19-07-2019 06:55:00 16.4 C 95 % 15.6 C
949 19-07-2019 07:00:00 16.5 C 95 % 15.7 C
950 19-07-2019 07:05:00 16.6 C 95 % 15.8 C
Sensor: Nr:Datum:Temp:Feuchte:Taupunkt:
Aussen-T/F 951 19-07-2019 07:10:00 16.6 C 95 % 15.8 C
952 19-07-2019 07:15:00 16.6 C 95 % 15.8 C
953 19-07-2019 07:20:00 16.6 C 95 % 15.8 C
954 19-07-2019 07:25:00 16.7 C 95 % 15.9 C
955 19-07-2019 07:30:00 16.7 C 95 % 15.9 C
956 19-07-2019 07:35:00 16.7 C 95 % 15.9 C
957 19-07-2019 07:40:00 16.8 C 95 % 15.99 C
958 19-07-2019 07:45:00 16.8 C 96 % 16.16 C
959 19-07-2019 07:50:00 16.9 C 96 % 16.26 C
960 19-07-2019 07:55:00 16.9 C 96 % 16.26 C
961 19-07-2019 08:00:00 16.9 C 96 % 16.26 C
962 19-07-2019 08:05:00 16.9 C 96 % 16.26 C
963 19-07-2019 08:10:00 17 C 96 % 16.36 C
964 19-07-2019 08:15:00 17.1 C 96 % 16.46 C
965 19-07-2019 08:20:00 17.1 C 96 % 16.46 C
966 19-07-2019 08:25:00 17.2 C 96 % 16.56 C
967 19-07-2019 08:30:00 17.3 C 96 % 16.66 C
968 19-07-2019 08:35:00 17.4 C 96 % 16.76 C
969 19-07-2019 08:40:00 17.4 C 96 % 16.76 C
970 19-07-2019 08:45:00 17.4 C 96 % 16.76 C
971 19-07-2019 08:50:00 17.5 C 96 % 16.85 C
972 19-07-2019 08:55:00 17.6 C 96 % 16.95 C
973 19-07-2019 09:00:00 17.7 C 96 % 17.05 C
974 19-07-2019 09:05:00 17.8 C 96 % 17.15 C
975 19-07-2019 09:10:00 17.8 C 96 % 17.15 C
Sensor: Nr:Datum:Temp:Feuchte:Taupunkt:
Aussen-T/F 976 19-07-2019 09:15:00 17.8 C 95 % 16.99 C
977 19-07-2019 09:20:00 17.9 C 95 % 17.09 C
978 19-07-2019 09:25:00 17.9 C 95 % 17.09 C
979 19-07-2019 09:30:00 18.1 C 95 % 17.29 C
980 19-07-2019 09:35:00 18.1 C 95 % 17.29 C
981 19-07-2019 09:40:00 18.2 C 94 % 17.22 C
982 19-07-2019 09:45:00 18.3 C 94 % 17.32 C
983 19-07-2019 09:50:00 18.3 C 94 % 17.32 C
984 19-07-2019 09:55:00 18.4 C 93 % 17.25 C
985 19-07-2019 10:00:00 18.6 C 93 % 17.45 C
986 19-07-2019 10:05:00 18.8 C 94 % 17.81 C
987 19-07-2019 10:10:00 18.9 C 92 % 17.57 C
988 19-07-2019 10:15:00 19 C 92 % 17.67 C
989 19-07-2019 10:20:00 19.1 C 91 % 17.6 C
990 19-07-2019 10:25:00 19.1 C 90 % 17.42 C
991 19-07-2019 10:30:00 19.3 C 90 % 17.62 C
992 19-07-2019 10:35:00 19.5 C 89 % 17.64 C
993 19-07-2019 10:40:00 19.6 C 89 % 17.74 C
994 19-07-2019 10:45:00 19.7 C 88 % 17.66 C
995 19-07-2019 10:50:00 19.8 C 89 % 17.93 C
996 19-07-2019 10:55:00 19.9 C 87 % 17.67 C
997 19-07-2019 11:00:00 19.9 C 87 % 17.67 C
998 19-07-2019 11:05:00 20 C 87 % 17.77 C
999 19-07-2019 11:10:00 20 C 85 % 17.4 C
1000 19-07-2019 11:15:00 20.1 C 85 % 17.5 C
Sensor: Nr:Datum:Temp:Feuchte:Taupunkt:
Aussen-T/F 1001 19-07-2019 11:20:00 20.3 C 85 % 17.7 C
1002 19-07-2019 11:25:00 20.6 C 84 % 17.8 C
1003 19-07-2019 11:30:00 20.8 C 83 % 17.81 C
1004 19-07-2019 11:35:00 20.9 C 83 % 17.9 C
1005 19-07-2019 11:40:00 20.9 C 81 % 17.52 C
1006 19-07-2019 11:45:00 20.8 C 81 % 17.42 C
1007 19-07-2019 11:50:00 20.7 C 82 % 17.52 C
1008 19-07-2019 11:55:00 20.7 C 81 % 17.32 C
1009 19-07-2019 12:00:00 20.4 C 83 % 17.42 C
1010 19-07-2019 12:05:00 20.2 C 84 % 17.41 C
1011 19-07-2019 12:10:00 20.1 C 86 % 17.68 C
1012 19-07-2019 12:15:00 20.1 C 88 % 18.05 C
1013 19-07-2019 12:20:00 19.9 C 88 % 17.85 C
1014 19-07-2019 12:25:00 19.8 C 87 % 17.57 C
1015 19-07-2019 12:30:00 19.7 C 88 % 17.66 C
1016 19-07-2019 12:35:00 19.7 C 87 % 17.47 C
1017 19-07-2019 12:40:00 19.8 C 87 % 17.57 C
1018 19-07-2019 12:45:00 20.1 C 87 % 17.87 C
1019 19-07-2019 12:50:00 20.3 C 85 % 17.7 C
1020 19-07-2019 12:55:00 20.4 C 84 % 17.61 C
1021 19-07-2019 13:00:00 20.6 C 85 % 17.99 C
1022 19-07-2019 13:05:00 20.7 C 85 % 18.09 C
1023 19-07-2019 13:10:00 20.9 C 83 % 17.9 C
1024 19-07-2019 13:15:00 21.2 C 78 % 17.21 C
1025 19-07-2019 13:20:00 21.6 C 76 % 17.19 C
Sensor: Nr:Datum:Temp:Feuchte:Taupunkt:
Aussen-T/F 1026 19-07-2019 13:25:00 22.1 C 75 % 17.46 C
1027 19-07-2019 13:30:00 22.5 C 74 % 17.63 C
1028 19-07-2019 13:35:00 22.8 C 70 % 17.04 C
1029 19-07-2019 13:40:00 22.9 C 69 % 16.91 C
1030 19-07-2019 13:45:00 22.9 C 67 % 16.45 C
1031 19-07-2019 13:50:00 22.8 C 67 % 16.35 C
1032 19-07-2019 13:55:00 22.7 C 69 % 16.72 C
1033 19-07-2019 14:00:00 22.7 C 71 % 17.17 C
1034 19-07-2019 14:05:00 22.7 C 69 % 16.72 C
1035 19-07-2019 14:10:00 22.7 C 69 % 16.72 C
1036 19-07-2019 14:15:00 22.8 C 71 % 17.27 C
1037 19-07-2019 14:20:00 23 C 62 % 15.33 C
1038 19-07-2019 14:25:00 23.4 C 62 % 15.71 C
1039 19-07-2019 14:30:00 23.8 C 56 % 14.5 C
1040 19-07-2019 14:35:00 23.9 C 56 % 14.59 C
1041 19-07-2019 14:40:00 24.2 C 57 % 15.14 C
1042 19-07-2019 14:45:00 24.4 C 51 % 13.61 C
1043 19-07-2019 14:50:00 24.3 C 54 % 14.4 C
1044 19-07-2019 14:55:00 24.4 C 53 % 14.2 C
1045 19-07-2019 15:00:00 24.5 C 54 % 14.58 C
1046 19-07-2019 15:05:00 24.6 C 51 % 13.79 C
1047 19-07-2019 15:10:00 24.6 C 54 % 14.68 C
1048 19-07-2019 15:15:00 24.8 C 54 % 14.86 C
1049 19-07-2019 15:20:00 25 C 54 % 15.05 C
1050 19-07-2019 15:25:00 24.9 C 53 % 14.66 C
Sensor: Nr:Datum:Temp:Feuchte:Taupunkt:
Aussen-T/F 1051 19-07-2019 15:30:00 24.9 C 51 % 14.07 C
1052 19-07-2019 15:35:00 25.1 C 52 % 14.55 C
1053 19-07-2019 15:40:00 25.2 C 54 % 15.23 C
1054 19-07-2019 15:45:00 25.1 C 53 % 14.85 C
1055 19-07-2019 15:50:00 24.9 C 53 % 14.66 C
1056 19-07-2019 15:55:00 24.9 C 51 % 14.07 C
1057 19-07-2019 16:00:00 24.9 C 52 % 14.37 C
1058 19-07-2019 16:05:00 24.9 C 50 % 13.77 C
1059 19-07-2019 16:10:00 24.9 C 51 % 14.07 C
1060 19-07-2019 16:15:00 24.9 C 50 % 13.77 C
1061 19-07-2019 16:20:00 25 C 52 % 14.46 C
1062 19-07-2019 16:25:00 25 C 51 % 14.16 C
1063 19-07-2019 16:30:00 25.2 C 50 % 14.04 C
1064 19-07-2019 16:35:00 25.4 C 50 % 14.22 C
1065 19-07-2019 16:40:00 25.7 C 50 % 14.5 C
1066 19-07-2019 16:45:00 25.8 C 50 % 14.59 C
1067 19-07-2019 16:50:00 25.6 C 51 % 14.71 C
1068 19-07-2019 16:55:00 25.3 C 50 % 14.13 C
1069 19-07-2019 17:00:00 25.5 C 51 % 14.62 C
1070 19-07-2019 17:05:00 25.9 C 51 % 14.99 C
1071 19-07-2019 17:10:00 26 C 51 % 15.08 C
1072 19-07-2019 17:15:00 26.1 C 49 % 14.55 C
1073 19-07-2019 17:20:00 26.3 C 48 % 14.42 C
1074 19-07-2019 17:25:00 26.5 C 46 % 13.94 C
1075 19-07-2019 17:30:00 26.2 C 47 % 14 C
Sensor: Nr:Datum:Temp:Feuchte:Taupunkt:
Aussen-T/F 1076 19-07-2019 17:35:00 26 C 49 % 14.46 C
1077 19-07-2019 17:40:00 25.8 C 48 % 13.96 C
1078 19-07-2019 17:45:00 25.6 C 51 % 14.71 C
1079 19-07-2019 17:50:00 25.4 C 53 % 15.13 C
1080 19-07-2019 17:55:00 25.7 C 51 % 14.81 C
1081 19-07-2019 18:00:00 25.9 C 50 % 14.68 C
1082 19-07-2019 18:05:00 25.9 C 50 % 14.68 C
1083 19-07-2019 18:10:00 25.7 C 49 % 14.19 C
1084 19-07-2019 18:15:00 25.7 C 49 % 14.19 C
1085 19-07-2019 18:20:00 25.6 C 50 % 14.41 C
1086 19-07-2019 18:25:00 25.4 C 49 % 13.91 C
1087 19-07-2019 18:30:00 25.3 C 50 % 14.13 C
1088 19-07-2019 18:35:00 25.3 C 50 % 14.13 C
1089 19-07-2019 18:40:00 25.2 C 54 % 15.23 C
1090 19-07-2019 18:45:00 25.2 C 52 % 14.65 C
1091 19-07-2019 18:50:00 25.1 C 58 % 16.26 C
1092 19-07-2019 18:55:00 24.9 C 52 % 14.37 C
1093 19-07-2019 19:00:00 24.8 C 53 % 14.57 C
1094 19-07-2019 19:05:00 24.9 C 59 % 16.34 C
1095 19-07-2019 19:10:00 24.9 C 60 % 16.6 C
1096 19-07-2019 19:15:00 25.1 C 52 % 14.55 C
1097 19-07-2019 19:20:00 25.2 C 63 % 17.65 C
1098 19-07-2019 19:25:00 25.1 C 60 % 16.79 C
1099 19-07-2019 19:30:00 24.9 C 63 % 17.37 C
1100 19-07-2019 19:35:00 24.8 C 63 % 17.28 C
Sensor: Nr:Datum:Temp:Feuchte:Taupunkt:
Aussen-T/F 1101 19-07-2019 19:40:00 24.7 C 62 % 16.93 C
1102 19-07-2019 19:45:00 24.5 C 60 % 16.23 C
1103 19-07-2019 19:50:00 24.3 C 62 % 16.55 C
1104 19-07-2019 19:55:00 24.2 C 65 % 17.2 C
1105 19-07-2019 20:00:00 24.1 C 64 % 16.86 C
1106 19-07-2019 20:05:00 23.9 C 64 % 16.68 C
1107 19-07-2019 20:10:00 23.8 C 63 % 16.33 C
1108 19-07-2019 20:15:00 23.7 C 63 % 16.24 C
1109 19-07-2019 20:20:00 23.7 C 65 % 16.73 C
1110 19-07-2019 20:25:00 23.5 C 63 % 16.05 C
1111 19-07-2019 20:30:00 23.3 C 63 % 15.86 C
1112 19-07-2019 20:35:00 23.1 C 63 % 15.67 C
1113 19-07-2019 20:40:00 22.8 C 64 % 15.64 C
1114 19-07-2019 20:45:00 22.6 C 66 % 15.93 C
1115 19-07-2019 20:50:00 22.4 C 66 % 15.74 C
1116 19-07-2019 20:55:00 22.2 C 67 % 15.78 C
1117 19-07-2019 21:00:00 22 C 67 % 15.59 C
1118 19-07-2019 21:05:00 21.8 C 68 % 15.63 C
1119 19-07-2019 21:10:00 21.6 C 69 % 15.67 C
1120 19-07-2019 21:15:00 21.3 C 70 % 15.61 C
1121 19-07-2019 21:20:00 21.1 C 70 % 15.42 C
1122 19-07-2019 21:25:00 20.9 C 72 % 15.66 C
1123 19-07-2019 21:30:00 20.8 C 72 % 15.57 C
1124 19-07-2019 21:35:00 20.7 C 73 % 15.69 C
1125 19-07-2019 21:40:00 20.4 C 73 % 15.4 C
Sensor: Nr:Datum:Temp:Feuchte:Taupunkt:
Aussen-T/F 1126 19-07-2019 21:45:00 20.3 C 74 % 15.51 C
1127 19-07-2019 21:50:00 20.1 C 75 % 15.53 C
1128 19-07-2019 21:55:00 19.9 C 76 % 15.54 C
1129 19-07-2019 22:00:00 19.8 C 76 % 15.45 C
1130 19-07-2019 22:05:00 19.6 C 77 % 15.46 C
1131 19-07-2019 22:10:00 19.5 C 78 % 15.56 C
1132 19-07-2019 22:15:00 19.3 C 78 % 15.37 C
1133 19-07-2019 22:20:00 19.2 C 79 % 15.47 C
1134 19-07-2019 22:25:00 19.2 C 79 % 15.47 C
1135 19-07-2019 22:30:00 19.1 C 80 % 15.57 C
1136 19-07-2019 22:35:00 19.1 C 80 % 15.57 C
1137 19-07-2019 22:40:00 19 C 80 % 15.47 C
1138 19-07-2019 22:45:00 18.9 C 80 % 15.38 C
1139 19-07-2019 22:50:00 18.9 C 81 % 15.57 C
1140 19-07-2019 22:55:00 18.9 C 81 % 15.57 C
1141 19-07-2019 23:00:00 18.8 C 81 % 15.47 C
1142 19-07-2019 23:05:00 18.8 C 82 % 15.66 C
1143 19-07-2019 23:10:00 18.8 C 82 % 15.66 C
1144 19-07-2019 23:15:00 18.7 C 82 % 15.57 C
1145 19-07-2019 23:20:00 18.7 C 82 % 15.57 C
1146 19-07-2019 23:25:00 18.6 C 83 % 15.66 C
1147 19-07-2019 23:30:00 18.5 C 83 % 15.56 C
1148 19-07-2019 23:35:00 18.4 C 83 % 15.46 C
1149 19-07-2019 23:40:00 18.4 C 84 % 15.65 C
1150 19-07-2019 23:45:00 18.3 C 84 % 15.55 C
Sensor: Nr:Datum:Temp:Feuchte:Taupunkt:
Aussen-T/F 1151 19-07-2019 23:50:00 18.2 C 84 % 15.45 C
1152 19-07-2019 23:55:00 18.1 C 85 % 15.54 C
1153 20-07-2019 00:00:00 17.9 C 85 % 15.34 C
1154 20-07-2019 00:05:00 17.8 C 86 % 15.43 C
1155 20-07-2019 00:10:00 17.7 C 85 % 15.15 C
1156 20-07-2019 00:15:00 17.6 C 85 % 15.05 C
1157 20-07-2019 00:20:00 17.5 C 86 % 15.13 C
1158 20-07-2019 00:25:00 17.4 C 86 % 15.03 C
1159 20-07-2019 00:30:00 17.3 C 86 % 14.94 C
1160 20-07-2019 00:35:00 17.2 C 87 % 15.02 C
1161 20-07-2019 00:40:00 17.2 C 87 % 15.02 C
1162 20-07-2019 00:45:00 17.1 C 87 % 14.92 C
1163 20-07-2019 00:50:00 17.1 C 87 % 14.92 C
1164 20-07-2019 00:55:00 16.9 C 87 % 14.72 C
1165 20-07-2019 01:00:00 17 C 87 % 14.82 C
1166 20-07-2019 01:05:00 16.9 C 87 % 14.72 C
1167 20-07-2019 01:10:00 16.9 C 87 % 14.72 C
1168 20-07-2019 01:15:00 16.8 C 88 % 14.8 C
1169 20-07-2019 01:20:00 16.7 C 88 % 14.7 C
1170 20-07-2019 01:25:00 16.6 C 88 % 14.6 C
1171 20-07-2019 01:30:00 16.5 C 89 % 14.68 C
1172 20-07-2019 01:35:00 16.4 C 89 % 14.58 C
1173 20-07-2019 01:40:00 16.4 C 89 % 14.58 C
1174 20-07-2019 01:45:00 16.4 C 89 % 14.58 C
1175 20-07-2019 01:50:00 16.3 C 89 % 14.48 C
Sensor: Nr:Datum:Temp:Feuchte:Taupunkt:
Aussen-T/F 1176 20-07-2019 01:55:00 16.3 C 89 % 14.48 C
1177 20-07-2019 02:00:00 16.2 C 90 % 14.56 C
1178 20-07-2019 02:05:00 16.2 C 90 % 14.56 C
1179 20-07-2019 02:10:00 16.1 C 90 % 14.46 C
1180 20-07-2019 02:15:00 15.9 C 90 % 14.26 C
1181 20-07-2019 02:20:00 15.9 C 90 % 14.26 C
1182 20-07-2019 02:25:00 15.8 C 90 % 14.16 C
1183 20-07-2019 02:30:00 15.7 C 90 % 14.06 C
1184 20-07-2019 02:35:00 15.6 C 91 % 14.14 C
1185 20-07-2019 02:40:00 15.5 C 91 % 14.04 C
1186 20-07-2019 02:45:00 15.4 C 91 % 13.94 C
1187 20-07-2019 02:50:00 15.3 C 91 % 13.84 C
1188 20-07-2019 02:55:00 15.3 C 92 % 14.01 C
1189 20-07-2019 03:00:00 15.3 C 92 % 14.01 C
1190 20-07-2019 03:05:00 15.2 C 92 % 13.91 C
1191 20-07-2019 03:10:00 15.2 C 92 % 13.91 C
1192 20-07-2019 03:15:00 15.2 C 92 % 13.91 C
1193 20-07-2019 03:20:00 15.1 C 92 % 13.81 C
1194 20-07-2019 03:25:00 15.1 C 92 % 13.81 C
1195 20-07-2019 03:30:00 15 C 93 % 13.88 C
1196 20-07-2019 03:35:00 14.9 C 92 % 13.61 C
1197 20-07-2019 03:40:00 14.9 C 93 % 13.78 C
1198 20-07-2019 03:45:00 14.8 C 93 % 13.68 C
1199 20-07-2019 03:50:00 14.8 C 93 % 13.68 C
1200 20-07-2019 03:55:00 14.8 C 93 % 13.68 C
Sensor: Nr:Datum:Temp:Feuchte:Taupunkt:
Aussen-T/F 1201 20-07-2019 04:00:00 14.8 C 93 % 13.68 C
1202 20-07-2019 04:05:00 14.7 C 93 % 13.58 C
1203 20-07-2019 04:10:00 14.7 C 93 % 13.58 C
1204 20-07-2019 04:15:00 14.7 C 93 % 13.58 C
1205 20-07-2019 04:20:00 14.6 C 93 % 13.48 C
1206 20-07-2019 04:25:00 14.6 C 93 % 13.48 C
1207 20-07-2019 04:30:00 14.6 C 93 % 13.48 C
1208 20-07-2019 04:35:00 14.5 C 94 % 13.55 C
1209 20-07-2019 04:40:00 14.4 C 94 % 13.45 C
1210 20-07-2019 04:45:00 14.4 C 94 % 13.45 C
1211 20-07-2019 04:50:00 14.4 C 94 % 13.45 C
1212 20-07-2019 04:55:00 14.3 C 94 % 13.35 C
1213 20-07-2019 05:00:00 14.3 C 94 % 13.35 C
1214 20-07-2019 05:05:00 14.3 C 94 % 13.35 C
1215 20-07-2019 05:10:00 14.3 C 94 % 13.35 C
1216 20-07-2019 05:15:00 14.2 C 94 % 13.25 C
1217 20-07-2019 05:20:00 14.2 C 94 % 13.25 C
1218 20-07-2019 05:25:00 14.2 C 95 % 13.41 C
1219 20-07-2019 05:30:00 14.2 C 94 % 13.25 C
1220 20-07-2019 05:35:00 14.2 C 94 % 13.25 C
1221 20-07-2019 05:40:00 14.1 C 94 % 13.15 C
1222 20-07-2019 05:45:00 14.1 C 94 % 13.15 C
1223 20-07-2019 05:50:00 14.1 C 94 % 13.15 C
1224 20-07-2019 05:55:00 14 C 94 % 13.05 C
1225 20-07-2019 06:00:00 14 C 94 % 13.05 C
Sensor: Nr:Datum:Temp:Feuchte:Taupunkt:
Aussen-T/F 1226 20-07-2019 06:05:00 13.9 C 95 % 13.11 C
1227 20-07-2019 06:10:00 13.9 C 95 % 13.11 C
1228 20-07-2019 06:15:00 13.9 C 95 % 13.11 C
1229 20-07-2019 06:20:00 13.9 C 95 % 13.11 C
1230 20-07-2019 06:25:00 13.9 C 95 % 13.11 C
1231 20-07-2019 06:30:00 13.9 C 95 % 13.11 C
1232 20-07-2019 06:35:00 13.9 C 95 % 13.11 C
1233 20-07-2019 06:40:00 13.9 C 95 % 13.11 C
1234 20-07-2019 06:45:00 14.1 C 95 % 13.31 C
1235 20-07-2019 06:50:00 14.1 C 95 % 13.31 C
1236 20-07-2019 06:55:00 14.2 C 95 % 13.41 C
1237 20-07-2019 07:00:00 14.2 C 95 % 13.41 C
1238 20-07-2019 07:05:00 14.2 C 95 % 13.41 C
1239 20-07-2019 07:10:00 14.3 C 95 % 13.51 C
1240 20-07-2019 07:15:00 14.4 C 96 % 13.77 C
1241 20-07-2019 07:20:00 14.4 C 96 % 13.77 C
1242 20-07-2019 07:25:00 14.5 C 96 % 13.87 C
1243 20-07-2019 07:30:00 14.6 C 96 % 13.97 C
1244 20-07-2019 07:35:00 14.7 C 96 % 14.07 C
1245 20-07-2019 07:40:00 14.8 C 96 % 14.17 C
1246 20-07-2019 07:45:00 14.8 C 96 % 14.17 C
1247 20-07-2019 07:50:00 14.9 C 96 % 14.27 C
1248 20-07-2019 07:55:00 15 C 96 % 14.37 C
1249 20-07-2019 08:00:00 15.1 C 96 % 14.47 C
1250 20-07-2019 08:05:00 15.3 C 96 % 14.67 C
Sensor: Nr:Datum:Temp:Feuchte:Taupunkt:
Aussen-T/F 1251 20-07-2019 08:10:00 15.4 C 96 % 14.77 C
1252 20-07-2019 08:15:00 15.5 C 96 % 14.86 C
1253 20-07-2019 08:20:00 15.7 C 96 % 15.06 C
1254 20-07-2019 08:25:00 15.8 C 96 % 15.16 C
1255 20-07-2019 08:30:00 15.9 C 96 % 15.26 C
1256 20-07-2019 08:35:00 16.1 C 96 % 15.46 C
1257 20-07-2019 08:40:00 16.2 C 96 % 15.56 C
1258 20-07-2019 08:45:00 16.3 C 96 % 15.66 C
1259 20-07-2019 08:50:00 16.5 C 96 % 15.86 C
1260 20-07-2019 08:55:00 16.6 C 96 % 15.96 C
1261 20-07-2019 09:00:00 16.8 C 96 % 16.16 C
1262 20-07-2019 09:05:00 16.9 C 96 % 16.26 C
1263 20-07-2019 09:10:00 17 C 96 % 16.36 C
1264 20-07-2019 09:15:00 17.2 C 96 % 16.56 C
1265 20-07-2019 09:20:00 17.3 C 96 % 16.66 C
1266 20-07-2019 09:25:00 17.6 C 95 % 16.79 C
1267 20-07-2019 09:30:00 17.8 C 95 % 16.99 C
1268 20-07-2019 09:35:00 17.9 C 95 % 17.09 C
1269 20-07-2019 09:40:00 18.2 C 94 % 17.22 C
1270 20-07-2019 09:45:00 18.4 C 94 % 17.42 C
1271 20-07-2019 09:50:00 18.7 C 93 % 17.54 C
1272 20-07-2019 09:55:00 19 C 92 % 17.67 C
1273 20-07-2019 10:00:00 19.3 C 91 % 17.79 C
1274 20-07-2019 10:05:00 19.8 C 91 % 18.29 C
1275 20-07-2019 10:10:00 20.2 C 89 % 18.33 C
Sensor: Nr:Datum:Temp:Feuchte:Taupunkt:
Aussen-T/F 1276 20-07-2019 10:15:00 20.7 C 89 % 18.82 C
1277 20-07-2019 10:20:00 21.1 C 88 % 19.03 C
1278 20-07-2019 10:25:00 21.4 C 88 % 19.33 C
1279 20-07-2019 10:30:00 21.8 C 88 % 19.72 C
1280 20-07-2019 10:35:00 22 C 87 % 19.74 C
1281 20-07-2019 10:40:00 22.3 C 87 % 20.03 C
1282 20-07-2019 10:45:00 22.5 C 86 % 20.04 C
1283 20-07-2019 10:50:00 22.7 C 83 % 19.66 C
1284 20-07-2019 10:55:00 23 C 80 % 19.36 C
1285 20-07-2019 11:00:00 23.3 C 75 % 18.62 C
1286 20-07-2019 11:05:00 23.7 C 73 % 18.57 C
1287 20-07-2019 11:10:00 24.2 C 73 % 19.05 C
1288 20-07-2019 11:15:00 24.7 C 69 % 18.63 C
1289 20-07-2019 11:20:00 25.3 C 67 % 18.73 C
1290 20-07-2019 11:25:00 25.7 C 64 % 18.38 C
1291 20-07-2019 11:30:00 26.3 C 62 % 18.44 C
1292 20-07-2019 11:35:00 26.8 C 56 % 17.29 C
1293 20-07-2019 11:40:00 27.2 C 55 % 17.37 C
1294 20-07-2019 11:45:00 27.3 C 54 % 17.18 C
1295 20-07-2019 11:50:00 27.4 C 56 % 17.84 C
1296 20-07-2019 11:55:00 27.7 C 55 % 17.84 C
1297 20-07-2019 12:00:00 27.7 C 51 % 16.64 C
1298 20-07-2019 12:05:00 27.7 C 52 % 16.95 C
1299 20-07-2019 12:10:00 27.8 C 53 % 17.34 C
1300 20-07-2019 12:15:00 27.8 C 52 % 17.04 C
Sensor: Nr:Datum:Temp:Feuchte:Taupunkt:
Aussen-T/F 1301 20-07-2019 12:20:00 27.8 C 51 % 16.73 C
1302 20-07-2019 12:25:00 27.8 C 51 % 16.73 C
1303 20-07-2019 12:30:00 27.8 C 51 % 16.73 C
1304 20-07-2019 12:35:00 27.8 C 50 % 16.42 C
1305 20-07-2019 12:40:00 27.7 C 53 % 17.25 C
1306 20-07-2019 12:45:00 27.8 C 51 % 16.73 C
1307 20-07-2019 12:50:00 27.8 C 52 % 17.04 C
1308 20-07-2019 12:55:00 27.8 C 50 % 16.42 C
1309 20-07-2019 13:00:00 27.9 C 51 % 16.83 C
1310 20-07-2019 13:05:00 27.9 C 51 % 16.83 C
1311 20-07-2019 13:10:00 28.1 C 51 % 17.01 C
1312 20-07-2019 13:15:00 28.1 C 50 % 16.7 C
1313 20-07-2019 13:20:00 28 C 51 % 16.92 C
1314 20-07-2019 13:25:00 27.9 C 52 % 17.13 C
1315 20-07-2019 13:30:00 28 C 51 % 16.92 C
1316 20-07-2019 13:35:00 28.1 C 51 % 17.01 C
1317 20-07-2019 13:40:00 28.3 C 51 % 17.19 C
1318 20-07-2019 13:45:00 28.4 C 49 % 16.65 C
1319 20-07-2019 13:50:00 28.6 C 50 % 17.16 C
1320 20-07-2019 13:55:00 28.8 C 48 % 16.69 C
1321 20-07-2019 14:00:00 29.1 C 49 % 17.29 C
1322 20-07-2019 14:05:00 29.4 C 48 % 17.24 C
1323 20-07-2019 14:10:00 29.7 C 46 % 16.84 C
1324 20-07-2019 14:15:00 29.7 C 46 % 16.84 C
1325 20-07-2019 14:20:00 29.7 C 45 % 16.5 C
Sensor: Nr:Datum:Temp:Feuchte:Taupunkt:
Aussen-T/F 1326 20-07-2019 14:25:00 29.7 C 46 % 16.84 C
1327 20-07-2019 14:30:00 29.9 C 45 % 16.68 C
1328 20-07-2019 14:35:00 30.1 C 44 % 16.5 C
1329 20-07-2019 14:40:00 30.4 C 44 % 16.77 C
1330 20-07-2019 14:45:00 30.6 C 45 % 17.31 C
1331 20-07-2019 14:50:00 31 C 45 % 17.67 C
1332 20-07-2019 14:55:00 31.2 C 42 % 16.76 C
1333 20-07-2019 15:00:00 31.2 C 43 % 17.13 C
1334 20-07-2019 15:05:00 31.1 C 43 % 17.04 C
1335 20-07-2019 15:10:00 31.1 C 44 % 17.4 C
1336 20-07-2019 15:15:00 31.2 C 44 % 17.49 C
1337 20-07-2019 15:20:00 31.1 C 42 % 16.67 C
1338 20-07-2019 15:25:00 31 C 44 % 17.31 C
1339 20-07-2019 15:30:00 30.9 C 42 % 16.49 C
1340 20-07-2019 15:35:00 30.8 C 44 % 17.13 C
1341 20-07-2019 15:40:00 30.6 C 44 % 16.95 C
1342 20-07-2019 15:45:00 30.3 C 44 % 16.68 C
1343 20-07-2019 15:50:00 30.2 C 46 % 17.3 C
1344 20-07-2019 15:55:00 30.1 C 45 % 16.86 C
1345 20-07-2019 16:00:00 30.2 C 45 % 16.95 C
1346 20-07-2019 16:05:00 30.4 C 45 % 17.13 C
1347 20-07-2019 16:10:00 30.4 C 48 % 18.15 C
1348 20-07-2019 16:15:00 30.3 C 46 % 17.39 C
1349 20-07-2019 16:20:00 29.6 C 56 % 19.89 C
1350 20-07-2019 16:25:00 28.6 C 70 % 22.59 C
Sensor: Nr:Datum:Temp:Feuchte:Taupunkt:
Aussen-T/F 1351 20-07-2019 16:30:00 27.9 C 76 % 23.27 C
1352 20-07-2019 16:35:00 27.9 C 79 % 23.92 C
1353 20-07-2019 16:40:00 28.1 C 80 % 24.32 C
1354 20-07-2019 16:45:00 28.2 C 79 % 24.21 C
1355 20-07-2019 16:50:00 28.1 C 74 % 23.02 C
1356 20-07-2019 16:55:00 27.6 C 75 % 22.76 C
1357 20-07-2019 17:00:00 27.1 C 76 % 22.5 C
1358 20-07-2019 17:05:00 26.8 C 77 % 22.43 C
1359 20-07-2019 17:10:00 27.2 C 76 % 22.6 C
1360 20-07-2019 17:15:00 27.7 C 63 % 20.01 C
1361 20-07-2019 17:20:00 28.7 C 54 % 18.47 C
1362 20-07-2019 17:25:00 29.2 C 64 % 21.68 C
1363 20-07-2019 17:30:00 28.9 C 52 % 18.05 C
1364 20-07-2019 17:35:00 28.9 C 53 % 18.36 C
1365 20-07-2019 17:40:00 29.1 C 60 % 20.54 C
1366 20-07-2019 17:45:00 29 C 51 % 17.84 C
1367 20-07-2019 17:50:00 28.8 C 49 % 17.02 C
1368 20-07-2019 17:55:00 28.8 C 56 % 19.14 C
1369 20-07-2019 18:00:00 28.9 C 50 % 17.43 C
1370 20-07-2019 18:05:00 29 C 52 % 18.15 C
1371 20-07-2019 18:10:00 28.9 C 50 % 17.43 C
1372 20-07-2019 18:15:00 28.8 C 49 % 17.02 C
1373 20-07-2019 18:20:00 28.8 C 49 % 17.02 C
1374 20-07-2019 18:25:00 28.8 C 48 % 16.69 C
1375 20-07-2019 18:30:00 28.9 C 48 % 16.79 C
Sensor: Nr:Datum:Temp:Feuchte:Taupunkt:
Aussen-T/F 1376 20-07-2019 18:35:00 28.9 C 48 % 16.79 C
1377 20-07-2019 18:40:00 28.9 C 52 % 18.05 C
1378 20-07-2019 18:45:00 28.9 C 48 % 16.79 C
1379 20-07-2019 18:50:00 29.1 C 51 % 17.93 C
1380 20-07-2019 18:55:00 29.2 C 47 % 16.73 C
1381 20-07-2019 19:00:00 29.3 C 46 % 16.48 C
1382 20-07-2019 19:05:00 29.3 C 44 % 15.78 C
1383 20-07-2019 19:10:00 29.2 C 47 % 16.73 C
1384 20-07-2019 19:15:00 29.3 C 45 % 16.13 C
1385 20-07-2019 19:20:00 29.3 C 48 % 17.15 C
1386 20-07-2019 19:25:00 29.3 C 44 % 15.78 C
1387 20-07-2019 19:30:00 28.1 C 54 % 17.92 C
1388 20-07-2019 19:35:00 26.8 C 58 % 17.84 C
1389 20-07-2019 19:40:00 25.7 C 61 % 17.61 C
1390 20-07-2019 19:45:00 25 C 64 % 17.72 C
1391 20-07-2019 19:50:00 24.6 C 66 % 17.83 C
1392 20-07-2019 19:55:00 24.2 C 66 % 17.45 C
1393 20-07-2019 20:00:00 24.1 C 67 % 17.59 C
1394 20-07-2019 20:05:00 23.9 C 68 % 17.63 C
1395 20-07-2019 20:10:00 23.8 C 68 % 17.54 C
1396 20-07-2019 20:15:00 23.7 C 68 % 17.44 C
1397 20-07-2019 20:20:00 23.6 C 69 % 17.58 C
1398 20-07-2019 20:25:00 23.4 C 69 % 17.39 C
1399 20-07-2019 20:30:00 23.3 C 69 % 17.29 C
1400 20-07-2019 20:35:00 23.2 C 69 % 17.2 C
Sensor: Nr:Datum:Temp:Feuchte:Taupunkt:
Aussen-T/F 1401 20-07-2019 20:40:00 23.1 C 70 % 17.33 C
1402 20-07-2019 20:45:00 23.1 C 72 % 17.78 C
1403 20-07-2019 20:50:00 23 C 73 % 17.9 C
1404 20-07-2019 20:55:00 22.9 C 73 % 17.8 C
1405 20-07-2019 21:00:00 22.7 C 74 % 17.83 C
1406 20-07-2019 21:05:00 22.5 C 74 % 17.63 C
1407 20-07-2019 21:10:00 22.3 C 74 % 17.44 C
1408 20-07-2019 21:15:00 22.1 C 75 % 17.46 C
1409 20-07-2019 21:20:00 21.8 C 75 % 17.17 C
1410 20-07-2019 21:25:00 21.7 C 76 % 17.28 C
1411 20-07-2019 21:30:00 21.6 C 76 % 17.19 C
1412 20-07-2019 21:35:00 21.4 C 77 % 17.2 C
1413 20-07-2019 21:40:00 21.3 C 78 % 17.31 C
1414 20-07-2019 21:45:00 21.2 C 78 % 17.21 C
1415 20-07-2019 21:50:00 21.1 C 78 % 17.11 C
1416 20-07-2019 21:55:00 21 C 78 % 17.02 C
1417 20-07-2019 22:00:00 20.9 C 78 % 16.92 C
1418 20-07-2019 22:05:00 20.9 C 78 % 16.92 C
1419 20-07-2019 22:10:00 20.8 C 78 % 16.82 C
1420 20-07-2019 22:15:00 20.8 C 79 % 17.02 C
1421 20-07-2019 22:20:00 20.7 C 80 % 17.13 C
1422 20-07-2019 22:25:00 20.7 C 81 % 17.32 C
1423 20-07-2019 22:30:00 20.6 C 81 % 17.22 C
1424 20-07-2019 22:35:00 20.5 C 81 % 17.13 C
1425 20-07-2019 22:40:00 20.3 C 81 % 16.93 C
Sensor: Nr:Datum:Temp:Feuchte:Taupunkt:
Aussen-T/F 1426 20-07-2019 22:45:00 20.3 C 81 % 16.93 C
1427 20-07-2019 22:50:00 20.2 C 81 % 16.84 C
1428 20-07-2019 22:55:00 20.1 C 82 % 16.93 C
1429 20-07-2019 23:00:00 20.1 C 82 % 16.93 C
1430 20-07-2019 23:05:00 20.1 C 83 % 17.12 C
1431 20-07-2019 23:10:00 19.9 C 82 % 16.74 C
1432 20-07-2019 23:15:00 19.9 C 83 % 16.93 C
1433 20-07-2019 23:20:00 19.8 C 83 % 16.83 C
1434 20-07-2019 23:25:00 19.7 C 83 % 16.73 C
1435 20-07-2019 23:30:00 19.7 C 83 % 16.73 C
1436 20-07-2019 23:35:00 19.6 C 84 % 16.82 C
1437 20-07-2019 23:40:00 19.6 C 85 % 17.01 C
1438 20-07-2019 23:45:00 19.6 C 85 % 17.01 C
1439 20-07-2019 23:50:00 19.5 C 85 % 16.91 C
1440 20-07-2019 23:55:00 19.5 C 85 % 16.91 C
1441 21-07-2019 00:00:00 19.4 C 85 % 16.81 C
1442 21-07-2019 00:05:00 19.4 C 85 % 16.81 C
1443 21-07-2019 00:10:00 19.3 C 85 % 16.72 C
1444 21-07-2019 00:15:00 19.2 C 85 % 16.62 C
1445 21-07-2019 00:20:00 19.2 C 85 % 16.62 C
1446 21-07-2019 00:25:00 19.1 C 86 % 16.7 C
1447 21-07-2019 00:30:00 19 C 86 % 16.6 C
1448 21-07-2019 00:35:00 19 C 86 % 16.6 C
1449 21-07-2019 00:40:00 18.9 C 86 % 16.51 C
1450 21-07-2019 00:45:00 18.9 C 86 % 16.51 C
Sensor: Nr:Datum:Temp:Feuchte:Taupunkt:
Aussen-T/F 1451 21-07-2019 00:50:00 18.8 C 86 % 16.41 C
1452 21-07-2019 00:55:00 18.8 C 87 % 16.59 C
1453 21-07-2019 01:00:00 18.7 C 87 % 16.49 C
1454 21-07-2019 01:05:00 18.7 C 87 % 16.49 C
1455 21-07-2019 01:10:00 18.7 C 88 % 16.67 C
1456 21-07-2019 01:15:00 18.7 C 87 % 16.49 C
1457 21-07-2019 01:20:00 18.7 C 88 % 16.67 C
1458 21-07-2019 01:25:00 18.6 C 88 % 16.57 C
1459 21-07-2019 01:30:00 18.6 C 88 % 16.57 C
1460 21-07-2019 01:35:00 18.4 C 88 % 16.38 C
1461 21-07-2019 01:40:00 18.4 C 88 % 16.38 C
1462 21-07-2019 01:45:00 18.4 C 88 % 16.38 C
1463 21-07-2019 01:50:00 18.5 C 89 % 16.65 C
1464 21-07-2019 01:55:00 18.6 C 89 % 16.75 C
1465 21-07-2019 02:00:00 18.7 C 89 % 16.85 C
1466 21-07-2019 02:05:00 18.8 C 88 % 16.77 C
1467 21-07-2019 02:10:00 18.9 C 88 % 16.87 C
1468 21-07-2019 02:15:00 19 C 88 % 16.97 C
1469 21-07-2019 02:20:00 19 C 87 % 16.79 C
1470 21-07-2019 02:25:00 19 C 87 % 16.79 C
1471 21-07-2019 02:30:00 18.9 C 87 % 16.69 C
1472 21-07-2019 02:35:00 18.9 C 87 % 16.69 C
1473 21-07-2019 02:40:00 18.9 C 88 % 16.87 C
1474 21-07-2019 02:45:00 18.8 C 88 % 16.77 C
1475 21-07-2019 02:50:00 18.8 C 88 % 16.77 C
Sensor: Nr:Datum:Temp:Feuchte:Taupunkt:
Aussen-T/F 1476 21-07-2019 02:55:00 18.8 C 88 % 16.77 C
1477 21-07-2019 03:00:00 18.8 C 88 % 16.77 C
1478 21-07-2019 03:05:00 18.7 C 88 % 16.67 C
1479 21-07-2019 03:10:00 18.7 C 88 % 16.67 C
1480 21-07-2019 03:15:00 18.7 C 89 % 16.85 C
1481 21-07-2019 03:20:00 18.7 C 89 % 16.85 C
1482 21-07-2019 03:25:00 18.7 C 89 % 16.85 C
1483 21-07-2019 03:30:00 18.7 C 88 % 16.67 C
1484 21-07-2019 03:35:00 18.7 C 89 % 16.85 C
1485 21-07-2019 03:40:00 18.6 C 89 % 16.75 C
1486 21-07-2019 03:45:00 18.6 C 89 % 16.75 C
1487 21-07-2019 03:50:00 18.5 C 89 % 16.65 C
1488 21-07-2019 03:55:00 18.4 C 89 % 16.55 C
1489 21-07-2019 04:00:00 18.3 C 89 % 16.46 C
1490 21-07-2019 04:05:00 18.2 C 89 % 16.36 C
1491 21-07-2019 04:10:00 18.2 C 89 % 16.36 C
1492 21-07-2019 04:15:00 18.1 C 89 % 16.26 C
1493 21-07-2019 04:20:00 18 C 89 % 16.16 C
1494 21-07-2019 04:25:00 17.9 C 89 % 16.06 C
1495 21-07-2019 04:30:00 17.9 C 89 % 16.06 C
1496 21-07-2019 04:35:00 17.9 C 90 % 16.24 C
1497 21-07-2019 04:40:00 17.8 C 89 % 15.96 C
1498 21-07-2019 04:45:00 17.7 C 90 % 16.04 C
1499 21-07-2019 04:50:00 17.7 C 90 % 16.04 C
1500 21-07-2019 04:55:00 17.7 C 90 % 16.04 C
Sensor: Nr:Datum:Temp:Feuchte:Taupunkt:
Aussen-T/F 1501 21-07-2019 05:00:00 17.6 C 90 % 15.94 C
1502 21-07-2019 05:05:00 17.5 C 90 % 15.84 C
1503 21-07-2019 05:10:00 17.4 C 91 % 15.92 C
1504 21-07-2019 05:15:00 17.4 C 91 % 15.92 C
1505 21-07-2019 05:20:00 17.4 C 91 % 15.92 C
1506 21-07-2019 05:25:00 17.4 C 91 % 15.92 C
1507 21-07-2019 05:30:00 17.4 C 91 % 15.92 C
1508 21-07-2019 05:35:00 17.4 C 91 % 15.92 C
1509 21-07-2019 05:40:00 17.4 C 92 % 16.09 C
1510 21-07-2019 05:45:00 17.5 C 92 % 16.19 C
1511 21-07-2019 05:50:00 17.6 C 92 % 16.28 C
1512 21-07-2019 05:55:00 17.6 C 92 % 16.28 C
1513 21-07-2019 06:00:00 17.6 C 92 % 16.28 C
1514 21-07-2019 06:05:00 17.6 C 92 % 16.28 C
1515 21-07-2019 06:10:00 17.6 C 92 % 16.28 C
1516 21-07-2019 06:15:00 17.7 C 92 % 16.38 C
1517 21-07-2019 06:20:00 17.7 C 92 % 16.38 C
1518 21-07-2019 06:25:00 17.7 C 92 % 16.38 C
1519 21-07-2019 06:30:00 17.7 C 92 % 16.38 C
1520 21-07-2019 06:35:00 17.8 C 92 % 16.48 C
1521 21-07-2019 06:40:00 17.8 C 91 % 16.31 C
1522 21-07-2019 06:45:00 17.8 C 91 % 16.31 C
1523 21-07-2019 06:50:00 17.9 C 91 % 16.41 C
1524 21-07-2019 06:55:00 17.9 C 91 % 16.41 C
1525 21-07-2019 07:00:00 17.9 C 90 % 16.24 C
Sensor: Nr:Datum:Temp:Feuchte:Taupunkt:
Aussen-T/F 1526 21-07-2019 07:05:00 18.1 C 90 % 16.43 C
1527 21-07-2019 07:10:00 18.2 C 90 % 16.53 C
1528 21-07-2019 07:15:00 18.3 C 90 % 16.63 C
1529 21-07-2019 07:20:00 18.4 C 90 % 16.73 C
1530 21-07-2019 07:25:00 18.5 C 90 % 16.83 C
1531 21-07-2019 07:30:00 18.6 C 89 % 16.75 C
1532 21-07-2019 07:35:00 18.7 C 89 % 16.85 C
1533 21-07-2019 07:40:00 18.7 C 89 % 16.85 C
1534 21-07-2019 07:45:00 18.8 C 88 % 16.77 C
1535 21-07-2019 07:50:00 18.9 C 89 % 17.05 C
1536 21-07-2019 07:55:00 18.9 C 86 % 16.51 C
1537 21-07-2019 08:00:00 19 C 84 % 16.24 C
1538 21-07-2019 08:05:00 19.1 C 82 % 15.96 C
1539 21-07-2019 08:10:00 19.2 C 81 % 15.86 C
1540 21-07-2019 08:15:00 19.3 C 81 % 15.96 C
1541 21-07-2019 08:20:00 19.3 C 81 % 15.96 C
1542 21-07-2019 08:25:00 19.3 C 79 % 15.57 C
1543 21-07-2019 08:30:00 19.3 C 80 % 15.76 C
1544 21-07-2019 08:35:00 19.4 C 79 % 15.66 C
1545 21-07-2019 08:40:00 19.4 C 79 % 15.66 C
1546 21-07-2019 08:45:00 19.5 C 79 % 15.76 C
1547 21-07-2019 08:50:00 19.6 C 80 % 16.06 C
1548 21-07-2019 08:55:00 19.7 C 80 % 16.15 C
1549 21-07-2019 09:00:00 19.8 C 79 % 16.05 C
1550 21-07-2019 09:05:00 19.8 C 78 % 15.85 C
Sensor: Nr:Datum:Temp:Feuchte:Taupunkt:
Aussen-T/F 1551 21-07-2019 09:10:00 20.1 C 78 % 16.14 C
1552 21-07-2019 09:15:00 20.1 C 76 % 15.74 C
1553 21-07-2019 09:20:00 20.2 C 74 % 15.42 C
1554 21-07-2019 09:25:00 20.3 C 73 % 15.3 C
1555 21-07-2019 09:30:00 20.4 C 73 % 15.4 C
1556 21-07-2019 09:35:00 20.4 C 73 % 15.4 C
1557 21-07-2019 09:40:00 20.5 C 71 % 15.06 C
1558 21-07-2019 09:45:00 20.6 C 72 % 15.38 C
1559 21-07-2019 09:50:00 20.7 C 70 % 15.03 C
1560 21-07-2019 09:55:00 20.8 C 71 % 15.35 C
1561 21-07-2019 10:00:00 21 C 70 % 15.32 C
1562 21-07-2019 10:05:00 21.1 C 69 % 15.19 C
1563 21-07-2019 10:10:00 21.2 C 69 % 15.29 C
1564 21-07-2019 10:15:00 21.3 C 68 % 15.16 C
1565 21-07-2019 10:20:00 21.5 C 68 % 15.35 C
1566 21-07-2019 10:25:00 21.7 C 68 % 15.54 C
1567 21-07-2019 10:30:00 21.9 C 67 % 15.5 C
1568 21-07-2019 10:35:00 22.1 C 65 % 15.21 C
1569 21-07-2019 10:40:00 22.3 C 64 % 15.16 C
1570 21-07-2019 10:45:00 22.6 C 64 % 15.45 C
1571 21-07-2019 10:50:00 22.8 C 63 % 15.39 C
1572 21-07-2019 10:55:00 22.8 C 60 % 14.63 C
1573 21-07-2019 11:00:00 22.9 C 60 % 14.73 C
1574 21-07-2019 11:05:00 23.1 C 59 % 14.65 C
1575 21-07-2019 11:10:00 23.4 C 56 % 14.13 C
Sensor: Nr:Datum:Temp:Feuchte:Taupunkt:
Aussen-T/F 1576 21-07-2019 11:15:00 23.6 C 54 % 13.75 C
1577 21-07-2019 11:20:00 23.7 C 54 % 13.84 C
1578 21-07-2019 11:25:00 23.8 C 53 % 13.65 C
1579 21-07-2019 11:30:00 24 C 54 % 14.12 C
1580 21-07-2019 11:35:00 24.1 C 52 % 13.63 C
1581 21-07-2019 11:40:00 24.2 C 51 % 13.43 C
1582 21-07-2019 11:45:00 24.2 C 51 % 13.43 C
1583 21-07-2019 11:50:00 24.2 C 51 % 13.43 C
1584 21-07-2019 11:55:00 24.3 C 51 % 13.52 C
1585 21-07-2019 12:00:00 24.4 C 49 % 13 C
1586 21-07-2019 12:05:00 24.6 C 50 % 13.49 C
1587 21-07-2019 12:10:00 24.8 C 51 % 13.98 C
1588 21-07-2019 12:15:00 24.9 C 49 % 13.46 C
1589 21-07-2019 12:20:00 25.1 C 49 % 13.64 C
1590 21-07-2019 12:25:00 25.2 C 51 % 14.35 C
1591 21-07-2019 12:30:00 25.3 C 52 % 14.74 C
1592 21-07-2019 12:35:00 25.1 C 51 % 14.25 C
1593 21-07-2019 12:40:00 25.1 C 52 % 14.55 C
1594 21-07-2019 12:45:00 25.1 C 53 % 14.85 C
1595 21-07-2019 12:50:00 25.1 C 53 % 14.85 C
1596 21-07-2019 12:55:00 24.9 C 53 % 14.66 C
1597 21-07-2019 13:00:00 24.9 C 53 % 14.66 C
1598 21-07-2019 13:05:00 24.9 C 52 % 14.37 C
1599 21-07-2019 13:10:00 24.8 C 53 % 14.57 C
1600 21-07-2019 13:15:00 24.8 C 53 % 14.57 C
Sensor: Nr:Datum:Temp:Feuchte:Taupunkt:
Aussen-T/F 1601 21-07-2019 13:20:00 24.8 C 54 % 14.86 C
1602 21-07-2019 13:25:00 24.8 C 54 % 14.86 C
1603 21-07-2019 13:30:00 24.8 C 54 % 14.86 C
1604 21-07-2019 13:35:00 24.9 C 54 % 14.95 C
1605 21-07-2019 13:40:00 25 C 55 % 15.33 C
1606 21-07-2019 13:45:00 25.2 C 52 % 14.65 C
1607 21-07-2019 13:50:00 25.3 C 53 % 15.03 C
1608 21-07-2019 13:55:00 25.3 C 52 % 14.74 C
1609 21-07-2019 14:00:00 25.4 C 52 % 14.83 C
1610 21-07-2019 14:05:00 25.6 C 55 % 15.89 C
1611 21-07-2019 14:10:00 25.8 C 52 % 15.2 C
1612 21-07-2019 14:15:00 25.9 C 52 % 15.29 C
1613 21-07-2019 14:20:00 26 C 53 % 15.68 C
1614 21-07-2019 14:25:00 26.2 C 50 % 14.96 C
1615 21-07-2019 14:30:00 26.2 C 48 % 14.32 C
1616 21-07-2019 14:35:00 26.2 C 50 % 14.96 C
1617 21-07-2019 14:40:00 26.2 C 50 % 14.96 C
1618 21-07-2019 14:45:00 26.2 C 51 % 15.27 C
1619 21-07-2019 14:50:00 26.2 C 51 % 15.27 C
1620 21-07-2019 14:55:00 26.3 C 49 % 14.74 C
1621 21-07-2019 15:00:00 26.4 C 50 % 15.14 C
1622 21-07-2019 15:05:00 26.7 C 49 % 15.1 C
1623 21-07-2019 15:10:00 26.7 C 49 % 15.1 C
1624 21-07-2019 15:15:00 26.8 C 48 % 14.87 C
1625 21-07-2019 15:20:00 26.9 C 48 % 14.96 C
Sensor: Nr:Datum:Temp:Feuchte:Taupunkt:
Aussen-T/F 1626 21-07-2019 15:25:00 27.2 C 49 % 15.56 C
1627 21-07-2019 15:30:00 27.1 C 47 % 14.82 C
1628 21-07-2019 15:35:00 26.8 C 48 % 14.87 C
1629 21-07-2019 15:40:00 26.7 C 48 % 14.78 C
1630 21-07-2019 15:45:00 26.8 C 49 % 15.19 C
1631 21-07-2019 15:50:00 26.9 C 48 % 14.96 C
1632 21-07-2019 15:55:00 27.1 C 47 % 14.82 C
1633 21-07-2019 16:00:00 27.3 C 46 % 14.67 C
1634 21-07-2019 16:05:00 27.5 C 47 % 15.18 C
1635 21-07-2019 16:10:00 27.6 C 47 % 15.27 C
1636 21-07-2019 16:15:00 27.6 C 46 % 14.94 C
1637 21-07-2019 16:20:00 27.6 C 46 % 14.94 C
1638 21-07-2019 16:25:00 27.8 C 47 % 15.45 C
1639 21-07-2019 16:30:00 27.9 C 45 % 14.87 C
1640 21-07-2019 16:35:00 27.8 C 45 % 14.78 C
1641 21-07-2019 16:40:00 27.9 C 45 % 14.87 C
1642 21-07-2019 16:45:00 28 C 46 % 15.3 C
1643 21-07-2019 16:50:00 28.1 C 46 % 15.39 C
1644 21-07-2019 16:55:00 28.1 C 45 % 15.05 C
1645 21-07-2019 17:00:00 27.9 C 45 % 14.87 C
1646 21-07-2019 17:05:00 27.8 C 47 % 15.45 C
1647 21-07-2019 17:10:00 27.7 C 46 % 15.03 C
1648 21-07-2019 17:15:00 27.3 C 47 % 15 C
1649 21-07-2019 17:20:00 27.3 C 48 % 15.33 C
1650 21-07-2019 17:25:00 27.3 C 48 % 15.33 C
Sensor: Nr:Datum:Temp:Feuchte:Taupunkt:
Aussen-T/F 1651 21-07-2019 17:30:00 27.3 C 48 % 15.33 C
1652 21-07-2019 17:35:00 26.9 C 50 % 15.6 C
1653 21-07-2019 17:40:00 26.8 C 49 % 15.19 C
1654 21-07-2019 17:45:00 26.8 C 49 % 15.19 C
1655 21-07-2019 17:50:00 27 C 47 % 14.73 C
1656 21-07-2019 17:55:00 27.2 C 47 % 14.91 C
1657 21-07-2019 18:00:00 27.2 C 49 % 15.56 C
1658 21-07-2019 18:05:00 27.2 C 48 % 15.24 C
1659 21-07-2019 18:10:00 26.9 C 48 % 14.96 C
1660 21-07-2019 18:15:00 26.7 C 48 % 14.78 C
1661 21-07-2019 18:20:00 26.4 C 48 % 14.51 C
1662 21-07-2019 18:25:00 26.3 C 50 % 15.05 C
1663 21-07-2019 18:30:00 26.2 C 50 % 14.96 C
1664 21-07-2019 18:35:00 26.2 C 50 % 14.96 C
1665 21-07-2019 18:40:00 26.1 C 50 % 14.87 C
1666 21-07-2019 18:45:00 26 C 50 % 14.77 C
1667 21-07-2019 18:50:00 26 C 50 % 14.77 C
1668 21-07-2019 18:55:00 26.1 C 50 % 14.87 C
1669 21-07-2019 19:00:00 26.3 C 50 % 15.05 C
1670 21-07-2019 19:05:00 26.2 C 50 % 14.96 C
1671 21-07-2019 19:10:00 26.1 C 51 % 15.17 C
1672 21-07-2019 19:15:00 25.9 C 50 % 14.68 C
1673 21-07-2019 19:20:00 25.7 C 52 % 15.11 C
1674 21-07-2019 19:25:00 25.4 C 52 % 14.83 C
1675 21-07-2019 19:30:00 25.2 C 53 % 14.94 C
Sensor: Nr:Datum:Temp:Feuchte:Taupunkt:
Aussen-T/F 1676 21-07-2019 19:35:00 25.1 C 53 % 14.85 C
1677 21-07-2019 19:40:00 24.9 C 53 % 14.66 C
1678 21-07-2019 19:45:00 24.8 C 54 % 14.86 C
1679 21-07-2019 19:50:00 24.7 C 54 % 14.77 C
1680 21-07-2019 19:55:00 24.6 C 54 % 14.68 C
1681 21-07-2019 20:00:00 24.5 C 54 % 14.58 C
1682 21-07-2019 20:05:00 24.5 C 54 % 14.58 C
1683 21-07-2019 20:10:00 24.4 C 55 % 14.78 C
1684 21-07-2019 20:15:00 24.4 C 56 % 15.06 C
1685 21-07-2019 20:20:00 24.3 C 55 % 14.68 C
1686 21-07-2019 20:25:00 24.3 C 56 % 14.96 C
1687 21-07-2019 20:30:00 24.4 C 56 % 15.06 C
1688 21-07-2019 20:35:00 24.5 C 55 % 14.87 C
1689 21-07-2019 20:40:00 24.4 C 54 % 14.49 C
1690 21-07-2019 20:45:00 24.4 C 55 % 14.78 C
1691 21-07-2019 20:50:00 24.4 C 54 % 14.49 C
1692 21-07-2019 20:55:00 24.3 C 54 % 14.4 C
1693 21-07-2019 21:00:00 24.2 C 54 % 14.31 C
1694 21-07-2019 21:05:00 24.1 C 55 % 14.5 C
1695 21-07-2019 21:10:00 23.9 C 58 % 15.14 C
1696 21-07-2019 21:15:00 23.7 C 59 % 15.21 C
1697 21-07-2019 21:20:00 23.3 C 60 % 15.1 C
1698 21-07-2019 21:25:00 22.8 C 61 % 14.89 C
1699 21-07-2019 21:30:00 22.4 C 62 % 14.76 C
1700 21-07-2019 21:35:00 22.1 C 63 % 14.73 C
Sensor: Nr:Datum:Temp:Feuchte:Taupunkt:
Aussen-T/F 1701 21-07-2019 21:40:00 21.7 C 64 % 14.6 C
1702 21-07-2019 21:45:00 21.4 C 65 % 14.55 C
1703 21-07-2019 21:50:00 21.2 C 66 % 14.6 C
1704 21-07-2019 21:55:00 20.9 C 67 % 14.55 C
1705 21-07-2019 22:00:00 20.7 C 68 % 14.58 C
1706 21-07-2019 22:05:00 20.5 C 69 % 14.62 C
1707 21-07-2019 22:10:00 20.3 C 70 % 14.65 C
1708 21-07-2019 22:15:00 20.2 C 71 % 14.78 C
1709 21-07-2019 22:20:00 19.9 C 71 % 14.49 C
1710 21-07-2019 22:25:00 19.8 C 71 % 14.39 C
1711 21-07-2019 22:30:00 19.7 C 72 % 14.51 C
1712 21-07-2019 22:35:00 19.6 C 72 % 14.42 C
1713 21-07-2019 22:40:00 19.6 C 72 % 14.42 C
1714 21-07-2019 22:45:00 19.4 C 73 % 14.44 C
1715 21-07-2019 22:50:00 19.3 C 74 % 14.55 C
1716 21-07-2019 22:55:00 19.2 C 75 % 14.66 C
1717 21-07-2019 23:00:00 19.1 C 76 % 14.77 C
1718 21-07-2019 23:05:00 18.9 C 76 % 14.58 C
1719 21-07-2019 23:10:00 18.8 C 77 % 14.68 C
1720 21-07-2019 23:15:00 18.7 C 77 % 14.59 C
1721 21-07-2019 23:20:00 18.6 C 78 % 14.69 C
1722 21-07-2019 23:25:00 18.3 C 78 % 14.4 C
1723 21-07-2019 23:30:00 18.2 C 79 % 14.5 C
1724 21-07-2019 23:35:00 18.1 C 79 % 14.4 C
1725 21-07-2019 23:40:00 18.1 C 79 % 14.4 C
Sensor: Nr:Datum:Temp:Feuchte:Taupunkt:
Aussen-T/F 1726 21-07-2019 23:45:00 17.9 C 79 % 14.21 C
1727 21-07-2019 23:50:00 17.8 C 80 % 14.31 C
1728 21-07-2019 23:55:00 17.7 C 80 % 14.21 C
1729 22-07-2019 00:00:00 17.6 C 80 % 14.11 C
1730 22-07-2019 00:05:00 17.5 C 80 % 14.01 C
1731 22-07-2019 00:10:00 17.4 C 80 % 13.92 C
1732 22-07-2019 00:15:00 17.3 C 80 % 13.82 C
1733 22-07-2019 00:20:00 17.1 C 81 % 13.82 C
1734 22-07-2019 00:25:00 17.1 C 81 % 13.82 C
1735 22-07-2019 00:30:00 16.9 C 81 % 13.62 C
1736 22-07-2019 00:35:00 16.9 C 82 % 13.81 C
1737 22-07-2019 00:40:00 16.9 C 82 % 13.81 C
1738 22-07-2019 00:45:00 16.8 C 82 % 13.71 C
1739 22-07-2019 00:50:00 16.7 C 82 % 13.61 C
1740 22-07-2019 00:55:00 16.7 C 82 % 13.61 C
1741 22-07-2019 01:00:00 16.5 C 82 % 13.42 C
1742 22-07-2019 01:05:00 16.4 C 83 % 13.51 C
1743 22-07-2019 01:10:00 16.4 C 83 % 13.51 C
1744 22-07-2019 01:15:00 16.3 C 84 % 13.59 C
1745 22-07-2019 01:20:00 16.3 C 84 % 13.59 C
1746 22-07-2019 01:25:00 16.2 C 84 % 13.5 C
1747 22-07-2019 01:30:00 16.2 C 84 % 13.5 C
1748 22-07-2019 01:35:00 16.1 C 85 % 13.58 C
1749 22-07-2019 01:40:00 16 C 85 % 13.48 C
1750 22-07-2019 01:45:00 15.9 C 85 % 13.38 C
Sensor: Nr:Datum:Temp:Feuchte:Taupunkt:
Aussen-T/F 1751 22-07-2019 01:50:00 15.8 C 85 % 13.28 C
1752 22-07-2019 01:55:00 15.8 C 86 % 13.46 C
1753 22-07-2019 02:00:00 15.7 C 86 % 13.37 C
1754 22-07-2019 02:05:00 15.7 C 87 % 13.54 C
1755 22-07-2019 02:10:00 15.7 C 87 % 13.54 C
1756 22-07-2019 02:15:00 15.7 C 87 % 13.54 C
1757 22-07-2019 02:20:00 15.7 C 87 % 13.54 C
1758 22-07-2019 02:25:00 15.7 C 87 % 13.54 C
1759 22-07-2019 02:30:00 15.6 C 88 % 13.62 C
1760 22-07-2019 02:35:00 15.6 C 88 % 13.62 C
1761 22-07-2019 02:40:00 15.6 C 88 % 13.62 C
1762 22-07-2019 02:45:00 15.6 C 88 % 13.62 C
1763 22-07-2019 02:50:00 15.6 C 88 % 13.62 C
1764 22-07-2019 02:55:00 15.5 C 88 % 13.52 C
1765 22-07-2019 03:00:00 15.5 C 88 % 13.52 C
1766 22-07-2019 03:05:00 15.5 C 88 % 13.52 C
1767 22-07-2019 03:10:00 15.5 C 88 % 13.52 C
1768 22-07-2019 03:15:00 15.4 C 88 % 13.42 C
1769 22-07-2019 03:20:00 15.4 C 88 % 13.42 C
1770 22-07-2019 03:25:00 15.4 C 88 % 13.42 C
1771 22-07-2019 03:30:00 15.3 C 88 % 13.33 C
1772 22-07-2019 03:35:00 15.3 C 88 % 13.33 C
1773 22-07-2019 03:40:00 15.2 C 89 % 13.4 C
1774 22-07-2019 03:45:00 15.2 C 89 % 13.4 C
1775 22-07-2019 03:50:00 15.2 C 89 % 13.4 C
Sensor: Nr:Datum:Temp:Feuchte:Taupunkt:
Aussen-T/F 1776 22-07-2019 03:55:00 15.1 C 89 % 13.3 C
1777 22-07-2019 04:00:00 15.1 C 89 % 13.3 C
1778 22-07-2019 04:05:00 15 C 89 % 13.2 C
1779 22-07-2019 04:10:00 14.9 C 89 % 13.1 C
1780 22-07-2019 04:15:00 14.8 C 89 % 13.01 C
1781 22-07-2019 04:20:00 14.8 C 89 % 13.01 C
1782 22-07-2019 04:25:00 14.7 C 89 % 12.91 C
1783 22-07-2019 04:30:00 14.7 C 90 % 13.08 C
1784 22-07-2019 04:35:00 14.6 C 90 % 12.98 C
1785 22-07-2019 04:40:00 14.6 C 90 % 12.98 C
1786 22-07-2019 04:45:00 14.6 C 90 % 12.98 C
1787 22-07-2019 04:50:00 14.6 C 90 % 12.98 C
1788 22-07-2019 04:55:00 14.5 C 90 % 12.88 C
1789 22-07-2019 05:00:00 14.4 C 90 % 12.78 C
1790 22-07-2019 05:05:00 14.4 C 90 % 12.78 C
1791 22-07-2019 05:10:00 14.4 C 91 % 12.95 C
1792 22-07-2019 05:15:00 14.3 C 91 % 12.85 C
1793 22-07-2019 05:20:00 14.4 C 91 % 12.95 C
1794 22-07-2019 05:25:00 14.3 C 91 % 12.85 C
1795 22-07-2019 05:30:00 14.3 C 91 % 12.85 C
1796 22-07-2019 05:35:00 14.3 C 91 % 12.85 C
1797 22-07-2019 05:40:00 14.2 C 91 % 12.75 C
1798 22-07-2019 05:45:00 14.2 C 91 % 12.75 C
1799 22-07-2019 05:50:00 14.2 C 91 % 12.75 C
1800 22-07-2019 05:55:00 14.2 C 92 % 12.92 C
Sensor: Nr:Datum:Temp:Feuchte:Taupunkt:
Aussen-T/F 1801 22-07-2019 06:00:00 14.2 C 92 % 12.92 C
1802 22-07-2019 06:05:00 14.2 C 92 % 12.92 C
1803 22-07-2019 06:10:00 14.3 C 92 % 13.02 C
1804 22-07-2019 06:15:00 14.3 C 92 % 13.02 C
1805 22-07-2019 06:20:00 14.2 C 91 % 12.75 C
1806 22-07-2019 06:25:00 14.1 C 91 % 12.65 C
1807 22-07-2019 06:30:00 14.1 C 92 % 12.82 C
1808 22-07-2019 06:35:00 14.1 C 92 % 12.82 C
1809 22-07-2019 06:40:00 14.1 C 92 % 12.82 C
1810 22-07-2019 06:45:00 14.1 C 92 % 12.82 C
1811 22-07-2019 06:50:00 14.2 C 92 % 12.92 C
1812 22-07-2019 06:55:00 14.2 C 92 % 12.92 C
1813 22-07-2019 07:00:00 14.3 C 93 % 13.18 C
1814 22-07-2019 07:05:00 14.3 C 93 % 13.18 C
1815 22-07-2019 07:10:00 14.3 C 93 % 13.18 C
1816 22-07-2019 07:15:00 14.4 C 93 % 13.28 C
1817 22-07-2019 07:20:00 14.5 C 93 % 13.38 C
1818 22-07-2019 07:25:00 14.7 C 93 % 13.58 C
1819 22-07-2019 07:30:00 14.8 C 93 % 13.68 C
1820 22-07-2019 07:35:00 14.9 C 93 % 13.78 C
1821 22-07-2019 07:40:00 14.9 C 93 % 13.78 C
1822 22-07-2019 07:45:00 15.1 C 92 % 13.81 C
1823 22-07-2019 07:50:00 15.2 C 92 % 13.91 C
1824 22-07-2019 07:55:00 15.3 C 92 % 14.01 C
1825 22-07-2019 08:00:00 15.4 C 92 % 14.11 C
Sensor: Nr:Datum:Temp:Feuchte:Taupunkt:
Aussen-T/F 1826 22-07-2019 08:05:00 15.5 C 92 % 14.21 C
1827 22-07-2019 08:10:00 15.6 C 92 % 14.31 C
1828 22-07-2019 08:15:00 15.7 C 91 % 14.24 C
1829 22-07-2019 08:20:00 16 C 91 % 14.53 C
1830 22-07-2019 08:25:00 16.2 C 89 % 14.39 C
1831 22-07-2019 08:30:00 16.4 C 88 % 14.41 C
1832 22-07-2019 08:35:00 16.6 C 88 % 14.6 C
1833 22-07-2019 08:40:00 16.8 C 87 % 14.62 C
1834 22-07-2019 08:45:00 16.9 C 87 % 14.72 C
1835 22-07-2019 08:50:00 17.1 C 87 % 14.92 C
1836 22-07-2019 08:55:00 17.2 C 87 % 15.02 C
1837 22-07-2019 09:00:00 17.3 C 87 % 15.12 C
1838 22-07-2019 09:05:00 17.4 C 86 % 15.03 C
1839 22-07-2019 09:10:00 17.6 C 85 % 15.05 C
1840 22-07-2019 09:15:00 17.7 C 86 % 15.33 C
1841 22-07-2019 09:20:00 17.9 C 85 % 15.34 C
1842 22-07-2019 09:25:00 18.1 C 83 % 15.17 C
1843 22-07-2019 09:30:00 18.3 C 83 % 15.36 C
1844 22-07-2019 09:35:00 18.6 C 82 % 15.47 C
1845 22-07-2019 09:40:00 18.8 C 83 % 15.85 C
1846 22-07-2019 09:45:00 18.8 C 82 % 15.66 C
1847 22-07-2019 09:50:00 18.9 C 83 % 15.95 C
1848 22-07-2019 09:55:00 19.1 C 82 % 15.96 C
1849 22-07-2019 10:00:00 19.3 C 82 % 16.15 C
1850 22-07-2019 10:05:00 19.5 C 81 % 16.15 C
Sensor: Nr:Datum:Temp:Feuchte:Taupunkt:
Aussen-T/F 1851 22-07-2019 10:10:00 19.7 C 79 % 15.96 C
1852 22-07-2019 10:15:00 19.8 C 77 % 15.65 C
1853 22-07-2019 10:20:00 20.2 C 76 % 15.83 C
1854 22-07-2019 10:25:00 20.6 C 76 % 16.22 C
1855 22-07-2019 10:30:00 20.8 C 75 % 16.21 C
1856 22-07-2019 10:35:00 21.2 C 72 % 15.95 C
1857 22-07-2019 10:40:00 21.6 C 71 % 16.12 C
1858 22-07-2019 10:45:00 22 C 72 % 16.72 C
1859 22-07-2019 10:50:00 22.3 C 67 % 15.88 C
1860 22-07-2019 10:55:00 22.7 C 63 % 15.3 C
1861 22-07-2019 11:00:00 23.1 C 60 % 14.91 C
1862 22-07-2019 11:05:00 23.3 C 61 % 15.36 C
1863 22-07-2019 11:10:00 23.4 C 60 % 15.19 C
1864 22-07-2019 11:15:00 23.6 C 61 % 15.64 C
1865 22-07-2019 11:20:00 23.7 C 59 % 15.21 C
1866 22-07-2019 11:25:00 23.8 C 59 % 15.31 C
1867 22-07-2019 11:30:00 24.1 C 58 % 15.32 C
1868 22-07-2019 11:35:00 24.3 C 57 % 15.24 C
1869 22-07-2019 11:40:00 24.4 C 56 % 15.06 C
1870 22-07-2019 11:45:00 24.6 C 56 % 15.24 C
1871 22-07-2019 11:50:00 24.8 C 55 % 15.15 C
1872 22-07-2019 11:55:00 25 C 54 % 15.05 C
1873 22-07-2019 12:00:00 25.1 C 54 % 15.14 C
1874 22-07-2019 12:05:00 25.3 C 53 % 15.03 C
1875 22-07-2019 12:10:00 25.3 C 53 % 15.03 C
Sensor: Nr:Datum:Temp:Feuchte:Taupunkt:
Aussen-T/F 1876 22-07-2019 12:15:00 25.3 C 53 % 15.03 C
1877 22-07-2019 12:20:00 25.4 C 53 % 15.13 C
1878 22-07-2019 12:25:00 25.4 C 53 % 15.13 C
1879 22-07-2019 12:30:00 25.5 C 53 % 15.22 C
1880 22-07-2019 12:35:00 25.7 C 53 % 15.4 C
1881 22-07-2019 12:40:00 25.9 C 52 % 15.29 C
1882 22-07-2019 12:45:00 25.9 C 52 % 15.29 C
1883 22-07-2019 12:50:00 25.9 C 51 % 14.99 C
1884 22-07-2019 12:55:00 26 C 51 % 15.08 C
1885 22-07-2019 13:00:00 26 C 51 % 15.08 C
1886 22-07-2019 13:05:00 26 C 51 % 15.08 C
1887 22-07-2019 13:10:00 26.1 C 51 % 15.17 C
1888 22-07-2019 13:15:00 26.2 C 51 % 15.27 C
1889 22-07-2019 13:20:00 26.2 C 50 % 14.96 C
1890 22-07-2019 13:25:00 26.3 C 51 % 15.36 C
1891 22-07-2019 13:30:00 26.3 C 51 % 15.36 C
1892 22-07-2019 13:35:00 26.4 C 50 % 15.14 C
1893 22-07-2019 13:40:00 26.6 C 50 % 15.32 C
1894 22-07-2019 13:45:00 26.7 C 50 % 15.42 C
1895 22-07-2019 13:50:00 27 C 49 % 15.38 C
1896 22-07-2019 13:55:00 27.2 C 47 % 14.91 C
1897 22-07-2019 14:00:00 27.2 C 48 % 15.24 C
1898 22-07-2019 14:05:00 27.3 C 47 % 15 C
1899 22-07-2019 14:10:00 27.4 C 46 % 14.76 C
1900 22-07-2019 14:15:00 27.7 C 46 % 15.03 C
Sensor: Nr:Datum:Temp:Feuchte:Taupunkt:
Aussen-T/F 1901 22-07-2019 14:20:00 27.7 C 45 % 14.69 C
1902 22-07-2019 14:25:00 27.7 C 45 % 14.69 C
1903 22-07-2019 14:30:00 27.7 C 45 % 14.69 C
1904 22-07-2019 14:35:00 27.8 C 47 % 15.45 C
1905 22-07-2019 14:40:00 28.1 C 46 % 15.39 C
1906 22-07-2019 14:45:00 28.3 C 45 % 15.23 C
1907 22-07-2019 14:50:00 28.2 C 45 % 15.14 C
1908 22-07-2019 14:55:00 28.2 C 44 % 14.79 C
1909 22-07-2019 15:00:00 28.3 C 45 % 15.23 C
1910 22-07-2019 15:05:00 28.4 C 45 % 15.32 C
1911 22-07-2019 15:10:00 28.6 C 45 % 15.5 C
1912 22-07-2019 15:15:00 28.8 C 44 % 15.33 C
1913 22-07-2019 15:20:00 28.9 C 44 % 15.42 C
1914 22-07-2019 15:25:00 29.1 C 42 % 14.88 C
1915 22-07-2019 15:30:00 29.2 C 42 % 14.97 C
1916 22-07-2019 15:35:00 29.1 C 42 % 14.88 C
1917 22-07-2019 15:40:00 29.2 C 44 % 15.69 C
1918 22-07-2019 15:45:00 29.4 C 42 % 15.15 C
1919 22-07-2019 15:50:00 29.7 C 41 % 15.04 C
1920 22-07-2019 15:55:00 29.9 C 41 % 15.22 C
1921 22-07-2019 16:00:00 30.2 C 41 % 15.49 C
1922 22-07-2019 16:05:00 30.4 C 39 % 14.89 C
1923 22-07-2019 16:10:00 30.7 C 40 % 15.55 C
1924 22-07-2019 16:15:00 30.8 C 39 % 15.24 C
1925 22-07-2019 16:20:00 30.9 C 38 % 14.93 C
Sensor: Nr:Datum:Temp:Feuchte:Taupunkt:
Aussen-T/F 1926 22-07-2019 16:25:00 30.8 C 39 % 15.24 C
1927 22-07-2019 16:30:00 30.9 C 38 % 14.93 C
1928 22-07-2019 16:35:00 30.8 C 38 % 14.84 C
1929 22-07-2019 16:40:00 30.7 C 39 % 15.15 C
1930 22-07-2019 16:45:00 31 C 39 % 15.42 C
1931 22-07-2019 16:50:00 31.2 C 38 % 15.19 C
1932 22-07-2019 16:55:00 31.3 C 37 % 14.87 C
1933 22-07-2019 17:00:00 31.4 C 38 % 15.37 C
1934 22-07-2019 17:05:00 31.6 C 37 % 15.13 C
1935 22-07-2019 17:10:00 31.3 C 37 % 14.87 C
1936 22-07-2019 17:15:00 31.2 C 37 % 14.78 C
1937 22-07-2019 17:20:00 31.2 C 37 % 14.78 C
1938 22-07-2019 17:25:00 31.3 C 37 % 14.87 C
1939 22-07-2019 17:30:00 31.3 C 37 % 14.87 C
1940 22-07-2019 17:35:00 31.4 C 37 % 14.96 C
1941 22-07-2019 17:40:00 31.7 C 37 % 15.22 C
1942 22-07-2019 17:45:00 31.8 C 36 % 14.88 C
1943 22-07-2019 17:50:00 31.9 C 36 % 14.97 C
1944 22-07-2019 17:55:00 32.1 C 36 % 15.15 C
1945 22-07-2019 18:00:00 32.1 C 35 % 14.71 C
1946 22-07-2019 18:05:00 32 C 36 % 15.06 C
1947 22-07-2019 18:10:00 32 C 36 % 15.06 C
1948 22-07-2019 18:15:00 32.1 C 36 % 15.15 C
1949 22-07-2019 18:20:00 32.1 C 36 % 15.15 C
1950 22-07-2019 18:25:00 32.2 C 36 % 15.23 C
Sensor: Nr:Datum:Temp:Feuchte:Taupunkt:
Aussen-T/F 1951 22-07-2019 18:30:00 32.3 C 35 % 14.88 C
1952 22-07-2019 18:35:00 32.3 C 35 % 14.88 C
1953 22-07-2019 18:40:00 32.6 C 35 % 15.15 C
1954 22-07-2019 18:45:00 32.7 C 35 % 15.23 C
1955 22-07-2019 18:50:00 32.8 C 34 % 14.87 C
1956 22-07-2019 18:55:00 32.6 C 35 % 15.15 C
1957 22-07-2019 19:00:00 32.3 C 36 % 15.32 C
1958 22-07-2019 19:05:00 32.3 C 35 % 14.88 C
1959 22-07-2019 19:10:00 32.2 C 34 % 14.35 C
1960 22-07-2019 19:15:00 32 C 35 % 14.62 C
1961 22-07-2019 19:20:00 31.9 C 35 % 14.53 C
1962 22-07-2019 19:25:00 31.9 C 36 % 14.97 C
1963 22-07-2019 19:30:00 31.7 C 36 % 14.79 C
1964 22-07-2019 19:35:00 31.2 C 37 % 14.78 C
1965 22-07-2019 19:40:00 30.8 C 37 % 14.43 C
1966 22-07-2019 19:45:00 30.7 C 38 % 14.75 C
1967 22-07-2019 19:50:00 30.4 C 38 % 14.49 C
1968 22-07-2019 19:55:00 30.3 C 39 % 14.8 C
1969 22-07-2019 20:00:00 30.2 C 40 % 15.1 C
1970 22-07-2019 20:05:00 30.1 C 40 % 15.01 C
1971 22-07-2019 20:10:00 30 C 40 % 14.93 C
1972 22-07-2019 20:15:00 29.9 C 40 % 14.84 C
1973 22-07-2019 20:20:00 29.8 C 40 % 14.75 C
1974 22-07-2019 20:25:00 29.7 C 42 % 15.42 C
1975 22-07-2019 20:30:00 29.4 C 42 % 15.15 C
Sensor: Nr:Datum:Temp:Feuchte:Taupunkt:
Aussen-T/F 1976 22-07-2019 20:35:00 29.3 C 43 % 15.42 C
1977 22-07-2019 20:40:00 29.1 C 44 % 15.6 C
1978 22-07-2019 20:45:00 28.8 C 45 % 15.68 C
1979 22-07-2019 20:50:00 28.6 C 48 % 16.51 C
1980 22-07-2019 20:55:00 28.2 C 51 % 17.1 C
1981 22-07-2019 21:00:00 27.9 C 51 % 16.83 C
1982 22-07-2019 21:05:00 27.4 C 52 % 16.67 C
1983 22-07-2019 21:10:00 26.9 C 53 % 16.51 C
1984 22-07-2019 21:15:00 26.4 C 55 % 16.63 C
1985 22-07-2019 21:20:00 26 C 56 % 16.54 C
1986 22-07-2019 21:25:00 25.6 C 57 % 16.45 C
1987 22-07-2019 21:30:00 25.2 C 57 % 16.08 C
1988 22-07-2019 21:35:00 24.8 C 58 % 15.98 C
1989 22-07-2019 21:40:00 24.6 C 58 % 15.79 C
1990 22-07-2019 21:45:00 24.3 C 60 % 16.04 C
1991 22-07-2019 21:50:00 24.1 C 60 % 15.85 C
1992 22-07-2019 21:55:00 23.9 C 61 % 15.92 C
1993 22-07-2019 22:00:00 23.7 C 61 % 15.73 C
1994 22-07-2019 22:05:00 23.6 C 61 % 15.64 C
1995 22-07-2019 22:10:00 23.4 C 62 % 15.71 C
1996 22-07-2019 22:15:00 23.3 C 62 % 15.61 C
1997 22-07-2019 22:20:00 23.1 C 62 % 15.42 C
1998 22-07-2019 22:25:00 22.9 C 63 % 15.48 C
1999 22-07-2019 22:30:00 22.8 C 64 % 15.64 C
2000 22-07-2019 22:35:00 22.6 C 65 % 15.69 C
Sensor: Nr:Datum:Temp:Feuchte:Taupunkt:
Aussen-T/F 2001 22-07-2019 22:40:00 22.4 C 66 % 15.74 C
2002 22-07-2019 22:45:00 22.3 C 66 % 15.64 C
2003 22-07-2019 22:50:00 22.1 C 66 % 15.45 C
2004 22-07-2019 22:55:00 22 C 66 % 15.36 C
2005 22-07-2019 23:00:00 21.9 C 67 % 15.5 C
2006 22-07-2019 23:05:00 21.7 C 68 % 15.54 C
2007 22-07-2019 23:10:00 21.4 C 69 % 15.48 C
2008 22-07-2019 23:15:00 21.2 C 70 % 15.51 C
2009 22-07-2019 23:20:00 21.1 C 70 % 15.42 C
2010 22-07-2019 23:25:00 21 C 71 % 15.54 C
2011 22-07-2019 23:30:00 20.8 C 72 % 15.57 C
2012 22-07-2019 23:35:00 20.7 C 72 % 15.47 C
2013 22-07-2019 23:40:00 20.5 C 72 % 15.28 C
2014 22-07-2019 23:45:00 20.4 C 73 % 15.4 C
2015 22-07-2019 23:50:00 20.3 C 74 % 15.51 C
2016 22-07-2019 23:55:00 20.1 C 74 % 15.32 C
2017 23-07-2019 00:00:00 20 C 75 % 15.43 C
2018 23-07-2019 00:05:00 19.8 C 75 % 15.24 C
2019 23-07-2019 00:10:00 19.8 C 75 % 15.24 C
2020 23-07-2019 00:15:00 19.6 C 75 % 15.05 C
2021 23-07-2019 00:20:00 19.5 C 76 % 15.16 C
2022 23-07-2019 00:25:00 19.4 C 76 % 15.06 C
2023 23-07-2019 00:30:00 19.3 C 76 % 14.97 C
2024 23-07-2019 00:35:00 19.2 C 77 % 15.07 C
2025 23-07-2019 00:40:00 19.2 C 77 % 15.07 C
Sensor: Nr:Datum:Temp:Feuchte:Taupunkt:
Aussen-T/F 2026 23-07-2019 00:45:00 19.1 C 77 % 14.97 C
2027 23-07-2019 00:50:00 19 C 78 % 15.08 C
2028 23-07-2019 00:55:00 18.9 C 78 % 14.98 C
2029 23-07-2019 01:00:00 18.8 C 78 % 14.88 C
2030 23-07-2019 01:05:00 18.8 C 78 % 14.88 C
2031 23-07-2019 01:10:00 18.7 C 79 % 14.99 C
2032 23-07-2019 01:15:00 18.6 C 79 % 14.89 C
2033 23-07-2019 01:20:00 18.5 C 80 % 14.99 C
2034 23-07-2019 01:25:00 18.4 C 80 % 14.89 C
2035 23-07-2019 01:30:00 18.3 C 80 % 14.79 C
2036 23-07-2019 01:35:00 18.2 C 80 % 14.69 C
2037 23-07-2019 01:40:00 18.2 C 81 % 14.89 C
2038 23-07-2019 01:45:00 18.1 C 81 % 14.79 C
2039 23-07-2019 01:50:00 18 C 81 % 14.69 C
2040 23-07-2019 01:55:00 17.9 C 81 % 14.59 C
2041 23-07-2019 02:00:00 17.9 C 81 % 14.59 C
2042 23-07-2019 02:05:00 17.8 C 82 % 14.69 C
2043 23-07-2019 02:10:00 17.8 C 82 % 14.69 C
2044 23-07-2019 02:15:00 17.7 C 82 % 14.59 C
2045 23-07-2019 02:20:00 17.7 C 82 % 14.59 C
2046 23-07-2019 02:25:00 17.6 C 82 % 14.49 C
2047 23-07-2019 02:30:00 17.5 C 83 % 14.58 C
2048 23-07-2019 02:35:00 17.4 C 83 % 14.48 C
2049 23-07-2019 02:40:00 17.4 C 83 % 14.48 C
2050 23-07-2019 02:45:00 17.3 C 83 % 14.39 C
Sensor: Nr:Datum:Temp:Feuchte:Taupunkt:
Aussen-T/F 2051 23-07-2019 02:50:00 17.3 C 83 % 14.39 C
2052 23-07-2019 02:55:00 17.3 C 84 % 14.57 C
2053 23-07-2019 03:00:00 17.2 C 84 % 14.47 C
2054 23-07-2019 03:05:00 17.1 C 84 % 14.38 C
2055 23-07-2019 03:10:00 16.9 C 84 % 14.18 C
2056 23-07-2019 03:15:00 16.9 C 85 % 14.36 C
2057 23-07-2019 03:20:00 16.9 C 85 % 14.36 C
2058 23-07-2019 03:25:00 16.9 C 85 % 14.36 C
2059 23-07-2019 03:30:00 16.8 C 85 % 14.26 C
2060 23-07-2019 03:35:00 16.8 C 85 % 14.26 C
2061 23-07-2019 03:40:00 16.7 C 86 % 14.35 C
2062 23-07-2019 03:45:00 16.7 C 86 % 14.35 C
2063 23-07-2019 03:50:00 16.6 C 86 % 14.25 C
2064 23-07-2019 03:55:00 16.6 C 86 % 14.25 C
2065 23-07-2019 04:00:00 16.6 C 86 % 14.25 C
2066 23-07-2019 04:05:00 16.5 C 87 % 14.33 C
2067 23-07-2019 04:10:00 16.4 C 87 % 14.23 C
2068 23-07-2019 04:15:00 16.4 C 87 % 14.23 C
2069 23-07-2019 04:20:00 16.3 C 87 % 14.13 C
2070 23-07-2019 04:25:00 16.3 C 87 % 14.13 C
2071 23-07-2019 04:30:00 16.2 C 88 % 14.21 C
2072 23-07-2019 04:35:00 16.2 C 88 % 14.21 C
2073 23-07-2019 04:40:00 16.2 C 88 % 14.21 C
2074 23-07-2019 04:45:00 16.2 C 88 % 14.21 C
2075 23-07-2019 04:50:00 16.1 C 88 % 14.11 C
Sensor: Nr:Datum:Temp:Feuchte:Taupunkt:
Aussen-T/F 2076 23-07-2019 04:55:00 16.1 C 88 % 14.11 C
2077 23-07-2019 05:00:00 16.1 C 88 % 14.11 C
2078 23-07-2019 05:05:00 16 C 89 % 14.19 C
2079 23-07-2019 05:10:00 16 C 89 % 14.19 C
2080 23-07-2019 05:15:00 15.9 C 89 % 14.09 C
2081 23-07-2019 05:20:00 15.9 C 89 % 14.09 C
2082 23-07-2019 05:25:00 15.8 C 89 % 13.99 C
2083 23-07-2019 05:30:00 15.8 C 89 % 13.99 C
2084 23-07-2019 05:35:00 15.8 C 89 % 13.99 C
2085 23-07-2019 05:40:00 15.7 C 89 % 13.89 C
2086 23-07-2019 05:45:00 15.7 C 89 % 13.89 C
2087 23-07-2019 05:50:00 15.6 C 90 % 13.97 C
2088 23-07-2019 05:55:00 15.6 C 90 % 13.97 C
2089 23-07-2019 06:00:00 15.6 C 90 % 13.97 C
2090 23-07-2019 06:05:00 15.6 C 90 % 13.97 C
2091 23-07-2019 06:10:00 15.6 C 91 % 14.14 C
2092 23-07-2019 06:15:00 15.6 C 91 % 14.14 C
2093 23-07-2019 06:20:00 15.6 C 91 % 14.14 C
2094 23-07-2019 06:25:00 15.6 C 91 % 14.14 C
2095 23-07-2019 06:30:00 15.7 C 91 % 14.24 C
2096 23-07-2019 06:35:00 15.7 C 91 % 14.24 C
2097 23-07-2019 06:40:00 15.7 C 91 % 14.24 C
2098 23-07-2019 06:45:00 15.7 C 91 % 14.24 C
2099 23-07-2019 06:50:00 15.7 C 91 % 14.24 C
2100 23-07-2019 06:55:00 15.8 C 91 % 14.33 C
Sensor: Nr:Datum:Temp:Feuchte:Taupunkt:
Aussen-T/F 2101 23-07-2019 07:00:00 15.8 C 91 % 14.33 C
2102 23-07-2019 07:05:00 15.9 C 91 % 14.43 C
2103 23-07-2019 07:10:00 16 C 91 % 14.53 C
2104 23-07-2019 07:15:00 16.1 C 91 % 14.63 C
2105 23-07-2019 07:20:00 16.1 C 91 % 14.63 C
2106 23-07-2019 07:25:00 16.1 C 91 % 14.63 C
2107 23-07-2019 07:30:00 16.1 C 91 % 14.63 C
2108 23-07-2019 07:35:00 16.2 C 91 % 14.73 C
2109 23-07-2019 07:40:00 16.2 C 91 % 14.73 C
2110 23-07-2019 07:45:00 16.2 C 91 % 14.73 C
2111 23-07-2019 07:50:00 16.3 C 91 % 14.83 C
2112 23-07-2019 07:55:00 16.3 C 91 % 14.83 C
2113 23-07-2019 08:00:00 16.4 C 91 % 14.93 C
2114 23-07-2019 08:05:00 16.4 C 91 % 14.93 C
2115 23-07-2019 08:10:00 16.5 C 91 % 15.03 C
2116 23-07-2019 08:15:00 16.6 C 91 % 15.13 C
2117 23-07-2019 08:20:00 16.7 C 91 % 15.22 C
2118 23-07-2019 08:25:00 16.7 C 91 % 15.22 C
2119 23-07-2019 08:30:00 16.8 C 91 % 15.32 C
2120 23-07-2019 08:35:00 16.9 C 90 % 15.25 C
2121 23-07-2019 08:40:00 17.1 C 90 % 15.45 C
2122 23-07-2019 08:45:00 17.2 C 90 % 15.55 C
2123 23-07-2019 08:50:00 17.3 C 90 % 15.64 C
2124 23-07-2019 08:55:00 17.4 C 90 % 15.74 C
2125 23-07-2019 09:00:00 17.6 C 90 % 15.94 C
Sensor: Nr:Datum:Temp:Feuchte:Taupunkt:
Aussen-T/F 2126 23-07-2019 09:05:00 17.7 C 89 % 15.86 C
2127 23-07-2019 09:10:00 17.8 C 89 % 15.96 C
2128 23-07-2019 09:15:00 18.1 C 89 % 16.26 C
2129 23-07-2019 09:20:00 18.3 C 88 % 16.28 C
2130 23-07-2019 09:25:00 18.6 C 88 % 16.57 C
2131 23-07-2019 09:30:00 18.8 C 87 % 16.59 C
2132 23-07-2019 09:35:00 19 C 87 % 16.79 C
2133 23-07-2019 09:40:00 19.2 C 86 % 16.8 C
2134 23-07-2019 09:45:00 19.5 C 85 % 16.91 C
2135 23-07-2019 09:50:00 19.8 C 84 % 17.02 C
2136 23-07-2019 09:55:00 20.1 C 83 % 17.12 C
2137 23-07-2019 10:00:00 20.4 C 83 % 17.42 C
2138 23-07-2019 10:05:00 20.7 C 81 % 17.32 C
2139 23-07-2019 10:10:00 21.1 C 80 % 17.51 C
2140 23-07-2019 10:15:00 21.3 C 79 % 17.51 C
2141 23-07-2019 10:20:00 21.6 C 79 % 17.8 C
2142 23-07-2019 10:25:00 21.9 C 77 % 17.68 C
2143 23-07-2019 10:30:00 22.3 C 77 % 18.07 C
2144 23-07-2019 10:35:00 22.7 C 76 % 18.25 C
2145 23-07-2019 10:40:00 23.2 C 73 % 18.09 C
2146 23-07-2019 10:45:00 23.8 C 66 % 17.07 C
2147 23-07-2019 10:50:00 24.8 C 66 % 18.01 C
2148 23-07-2019 10:55:00 25.3 C 63 % 17.75 C
2149 23-07-2019 11:00:00 25.6 C 61 % 17.52 C
2150 23-07-2019 11:05:00 25.9 C 58 % 17 C
Sensor: Nr:Datum:Temp:Feuchte:Taupunkt:
Aussen-T/F 2151 23-07-2019 11:10:00 26.4 C 57 % 17.19 C
2152 23-07-2019 11:15:00 26.9 C 57 % 17.66 C
2153 23-07-2019 11:20:00 27.1 C 57 % 17.85 C
2154 23-07-2019 11:25:00 27.1 C 53 % 16.7 C
2155 23-07-2019 11:30:00 27.4 C 53 % 16.97 C
2156 23-07-2019 11:35:00 27.8 C 51 % 16.73 C
2157 23-07-2019 11:40:00 28.1 C 49 % 16.38 C
2158 23-07-2019 11:45:00 28.4 C 48 % 16.33 C
2159 23-07-2019 11:50:00 28.7 C 47 % 16.27 C
2160 23-07-2019 11:55:00 28.8 C 49 % 17.02 C
2161 23-07-2019 12:00:00 28.9 C 47 % 16.45 C
2162 23-07-2019 12:05:00 29.1 C 45 % 15.95 C
2163 23-07-2019 12:10:00 29.2 C 46 % 16.39 C
2164 23-07-2019 12:15:00 29.3 C 45 % 16.13 C
2165 23-07-2019 12:20:00 29.4 C 46 % 16.57 C
2166 23-07-2019 12:25:00 29.5 C 44 % 15.96 C
2167 23-07-2019 12:30:00 29.6 C 44 % 16.05 C
2168 23-07-2019 12:35:00 29.8 C 42 % 15.51 C
2169 23-07-2019 12:40:00 29.9 C 43 % 15.96 C
2170 23-07-2019 12:45:00 30 C 42 % 15.69 C
2171 23-07-2019 12:50:00 30.2 C 43 % 16.23 C
2172 23-07-2019 12:55:00 30.2 C 41 % 15.49 C
2173 23-07-2019 13:00:00 30.3 C 41 % 15.58 C
2174 23-07-2019 13:05:00 30.3 C 42 % 15.95 C
2175 23-07-2019 13:10:00 30.4 C 41 % 15.67 C
Sensor: Nr:Datum:Temp:Feuchte:Taupunkt:
Aussen-T/F 2176 23-07-2019 13:15:00 30.6 C 40 % 15.46 C
2177 23-07-2019 13:20:00 30.6 C 40 % 15.46 C
2178 23-07-2019 13:25:00 30.7 C 40 % 15.55 C
2179 23-07-2019 13:30:00 30.8 C 40 % 15.64 C
2180 23-07-2019 13:35:00 30.9 C 39 % 15.33 C
2181 23-07-2019 13:40:00 31.1 C 38 % 15.1 C
2182 23-07-2019 13:45:00 31.2 C 40 % 15.99 C
2183 23-07-2019 13:50:00 31.2 C 40 % 15.99 C
2184 23-07-2019 13:55:00 31.3 C 38 % 15.28 C
2185 23-07-2019 14:00:00 31.3 C 39 % 15.69 C
2186 23-07-2019 14:05:00 31.4 C 38 % 15.37 C
2187 23-07-2019 14:10:00 31.7 C 39 % 16.04 C
2188 23-07-2019 14:15:00 31.9 C 38 % 15.81 C
2189 23-07-2019 14:20:00 32.1 C 38 % 15.99 C
2190 23-07-2019 14:25:00 32.2 C 37 % 15.66 C
2191 23-07-2019 14:30:00 32.3 C 36 % 15.32 C
2192 23-07-2019 14:35:00 32.3 C 36 % 15.32 C
2193 23-07-2019 14:40:00 32.4 C 36 % 15.41 C
2194 23-07-2019 14:45:00 32.5 C 36 % 15.5 C
2195 23-07-2019 14:50:00 32.6 C 37 % 16.01 C
2196 23-07-2019 14:55:00 32.7 C 36 % 15.67 C
2197 23-07-2019 15:00:00 32.8 C 37 % 16.19 C
2198 23-07-2019 15:05:00 33.1 C 38 % 16.87 C
2199 23-07-2019 15:10:00 33.2 C 37 % 16.54 C
2200 23-07-2019 15:15:00 33.4 C 36 % 16.29 C
Sensor: Nr:Datum:Temp:Feuchte:Taupunkt:
Aussen-T/F 2201 23-07-2019 15:20:00 33.6 C 36 % 16.46 C
2202 23-07-2019 15:25:00 33.8 C 34 % 15.74 C
2203 23-07-2019 15:30:00 33.8 C 34 % 15.74 C
2204 23-07-2019 15:35:00 34 C 34 % 15.92 C
2205 23-07-2019 15:40:00 34.4 C 34 % 16.26 C
2206 23-07-2019 15:45:00 34.7 C 34 % 16.53 C
2207 23-07-2019 15:50:00 34.9 C 33 % 16.23 C
2208 23-07-2019 15:55:00 35.2 C 34 % 16.96 C
2209 23-07-2019 16:00:00 35.5 C 32 % 16.27 C
2210 23-07-2019 16:05:00 35.6 C 32 % 16.35 C
2211 23-07-2019 16:10:00 35.6 C 30 % 15.34 C
2212 23-07-2019 16:15:00 35.6 C 33 % 16.84 C
2213 23-07-2019 16:20:00 35.8 C 31 % 16.03 C
2214 23-07-2019 16:25:00 35.9 C 31 % 16.11 C
2215 23-07-2019 16:30:00 36.1 C 30 % 15.77 C
2216 23-07-2019 16:35:00 36 C 31 % 16.2 C
2217 23-07-2019 16:40:00 35.8 C 31 % 16.03 C
2218 23-07-2019 16:45:00 35.8 C 30 % 15.52 C
2219 23-07-2019 16:50:00 35.8 C 30 % 15.52 C
2220 23-07-2019 16:55:00 36.1 C 30 % 15.77 C
2221 23-07-2019 17:00:00 36.1 C 29 % 15.24 C
2222 23-07-2019 17:05:00 36.3 C 30 % 15.94 C
2223 23-07-2019 17:10:00 36.4 C 29 % 15.5 C
2224 23-07-2019 17:15:00 36.3 C 28 % 14.87 C
2225 23-07-2019 17:20:00 36.3 C 29 % 15.41 C
Sensor: Nr:Datum:Temp:Feuchte:Taupunkt:
Aussen-T/F 2226 23-07-2019 17:25:00 36.4 C 29 % 15.5 C
2227 23-07-2019 17:30:00 36.4 C 29 % 15.5 C
2228 23-07-2019 17:35:00 36.5 C 28 % 15.04 C
2229 23-07-2019 17:40:00 36.6 C 28 % 15.12 C
2230 23-07-2019 17:45:00 36.6 C 28 % 15.12 C
2231 23-07-2019 17:50:00 36.3 C 28 % 14.87 C
2232 23-07-2019 17:55:00 36.4 C 29 % 15.5 C
2233 23-07-2019 18:00:00 36.7 C 30 % 16.29 C
2234 23-07-2019 18:05:00 36.8 C 28 % 15.29 C
2235 23-07-2019 18:10:00 36.8 C 28 % 15.29 C
2236 23-07-2019 18:15:00 36.7 C 29 % 15.76 C
2237 23-07-2019 18:20:00 37 C 28 % 15.46 C
2238 23-07-2019 18:25:00 36.9 C 27 % 14.81 C
2239 23-07-2019 18:30:00 36.8 C 28 % 15.29 C
2240 23-07-2019 18:35:00 36.8 C 29 % 15.84 C
2241 23-07-2019 18:40:00 36.9 C 29 % 15.93 C
2242 23-07-2019 18:45:00 36.9 C 27 % 14.81 C
2243 23-07-2019 18:50:00 36.6 C 29 % 15.67 C
2244 23-07-2019 18:55:00 36.3 C 29 % 15.41 C
2245 23-07-2019 19:00:00 36.2 C 29 % 15.33 C
2246 23-07-2019 19:05:00 36.2 C 29 % 15.33 C
2247 23-07-2019 19:10:00 36.3 C 29 % 15.41 C
2248 23-07-2019 19:15:00 36.3 C 30 % 15.94 C
2249 23-07-2019 19:20:00 36.1 C 28 % 14.7 C
2250 23-07-2019 19:25:00 35.8 C 31 % 16.03 C
Sensor: Nr:Datum:Temp:Feuchte:Taupunkt:
Aussen-T/F 2251 23-07-2019 19:30:00 35.6 C 30 % 15.34 C
2252 23-07-2019 19:35:00 35.4 C 31 % 15.68 C
2253 23-07-2019 19:40:00 35.2 C 30 % 15 C
2254 23-07-2019 19:45:00 35 C 33 % 16.32 C
2255 23-07-2019 19:50:00 34.9 C 36 % 17.6 C
2256 23-07-2019 19:55:00 34.7 C 34 % 16.53 C
2257 23-07-2019 20:00:00 34.5 C 33 % 15.88 C
2258 23-07-2019 20:05:00 34.3 C 35 % 16.63 C
2259 23-07-2019 20:10:00 34.2 C 38 % 17.84 C
2260 23-07-2019 20:15:00 33.9 C 39 % 17.99 C
2261 23-07-2019 20:20:00 33.6 C 39 % 17.73 C
2262 23-07-2019 20:25:00 33.3 C 40 % 17.86 C
2263 23-07-2019 20:30:00 32.8 C 45 % 19.3 C
2264 23-07-2019 20:35:00 32.3 C 42 % 17.74 C
2265 23-07-2019 20:40:00 31.7 C 42 % 17.21 C
2266 23-07-2019 20:45:00 31.2 C 44 % 17.49 C
2267 23-07-2019 20:50:00 30.7 C 45 % 17.4 C
2268 23-07-2019 20:55:00 30.2 C 46 % 17.3 C
2269 23-07-2019 21:00:00 29.7 C 47 % 17.18 C
2270 23-07-2019 21:05:00 29.4 C 48 % 17.24 C
2271 23-07-2019 21:10:00 29.1 C 48 % 16.97 C
2272 23-07-2019 21:15:00 28.8 C 49 % 17.02 C
2273 23-07-2019 21:20:00 28.4 C 50 % 16.97 C
2274 23-07-2019 21:25:00 28.1 C 50 % 16.7 C
2275 23-07-2019 21:30:00 27.7 C 51 % 16.64 C
Sensor: Nr:Datum:Temp:Feuchte:Taupunkt:
Aussen-T/F 2276 23-07-2019 21:35:00 27.4 C 52 % 16.67 C
2277 23-07-2019 21:40:00 27.2 C 52 % 16.49 C
2278 23-07-2019 21:45:00 26.9 C 52 % 16.21 C
2279 23-07-2019 21:50:00 26.8 C 53 % 16.42 C
2280 23-07-2019 21:55:00 26.6 C 52 % 15.94 C
2281 23-07-2019 22:00:00 26.5 C 53 % 16.14 C
2282 23-07-2019 22:05:00 26.4 C 53 % 16.05 C
2283 23-07-2019 22:10:00 26.2 C 54 % 16.16 C
2284 23-07-2019 22:15:00 25.8 C 56 % 16.36 C
2285 23-07-2019 22:20:00 25.6 C 57 % 16.45 C
2286 23-07-2019 22:25:00 25.2 C 57 % 16.08 C
2287 23-07-2019 22:30:00 25 C 58 % 16.16 C
2288 23-07-2019 22:35:00 24.8 C 60 % 16.51 C
2289 23-07-2019 22:40:00 24.6 C 60 % 16.32 C
2290 23-07-2019 22:45:00 24.3 C 61 % 16.3 C
2291 23-07-2019 22:50:00 24.1 C 62 % 16.37 C
2292 23-07-2019 22:55:00 23.9 C 63 % 16.43 C
2293 23-07-2019 23:00:00 23.7 C 63 % 16.24 C
2294 23-07-2019 23:05:00 23.5 C 64 % 16.3 C
2295 23-07-2019 23:10:00 23.3 C 65 % 16.35 C
2296 23-07-2019 23:15:00 23.2 C 65 % 16.26 C
2297 23-07-2019 23:20:00 23.1 C 66 % 16.4 C
2298 23-07-2019 23:25:00 23 C 66 % 16.31 C
2299 23-07-2019 23:30:00 22.9 C 66 % 16.21 C
2300 23-07-2019 23:35:00 22.8 C 66 % 16.12 C
Sensor: Nr:Datum:Temp:Feuchte:Taupunkt:
Aussen-T/F 2301 23-07-2019 23:40:00 22.7 C 67 % 16.26 C
2302 23-07-2019 23:45:00 22.5 C 68 % 16.3 C
2303 23-07-2019 23:50:00 22.3 C 68 % 16.11 C
2304 23-07-2019 23:55:00 22.2 C 68 % 16.01 C
2305 24-07-2019 00:00:00 22.1 C 69 % 16.15 C
2306 24-07-2019 00:05:00 21.9 C 70 % 16.18 C
2307 24-07-2019 00:10:00 21.8 C 70 % 16.09 C
2308 24-07-2019 00:15:00 21.7 C 70 % 15.99 C
2309 24-07-2019 00:20:00 21.6 C 71 % 16.12 C
2310 24-07-2019 00:25:00 21.4 C 71 % 15.93 C
2311 24-07-2019 00:30:00 21.4 C 72 % 16.14 C
2312 24-07-2019 00:35:00 21.3 C 72 % 16.05 C
2313 24-07-2019 00:40:00 21.2 C 73 % 16.17 C
2314 24-07-2019 00:45:00 21.1 C 73 % 16.07 C
2315 24-07-2019 00:50:00 20.9 C 73 % 15.88 C
2316 24-07-2019 00:55:00 20.9 C 74 % 16.09 C
2317 24-07-2019 01:00:00 20.8 C 74 % 16 C
2318 24-07-2019 01:05:00 20.7 C 76 % 16.32 C
2319 24-07-2019 01:10:00 20.7 C 76 % 16.32 C
2320 24-07-2019 01:15:00 20.6 C 76 % 16.22 C
2321 24-07-2019 01:20:00 20.6 C 76 % 16.22 C
2322 24-07-2019 01:25:00 20.4 C 76 % 16.03 C
2323 24-07-2019 01:30:00 20.3 C 77 % 16.14 C
2324 24-07-2019 01:35:00 20.2 C 77 % 16.04 C
2325 24-07-2019 01:40:00 20.1 C 77 % 15.94 C
Sensor: Nr:Datum:Temp:Feuchte:Taupunkt:
Aussen-T/F 2326 24-07-2019 01:45:00 19.9 C 77 % 15.75 C
2327 24-07-2019 01:50:00 19.8 C 77 % 15.65 C
2328 24-07-2019 01:55:00 19.7 C 78 % 15.76 C
2329 24-07-2019 02:00:00 19.7 C 78 % 15.76 C
2330 24-07-2019 02:05:00 19.6 C 78 % 15.66 C
2331 24-07-2019 02:10:00 19.5 C 78 % 15.56 C
2332 24-07-2019 02:15:00 19.5 C 78 % 15.56 C
2333 24-07-2019 02:20:00 19.4 C 78 % 15.47 C
2334 24-07-2019 02:25:00 19.4 C 79 % 15.66 C
2335 24-07-2019 02:30:00 19.3 C 79 % 15.57 C
2336 24-07-2019 02:35:00 19.2 C 79 % 15.47 C
2337 24-07-2019 02:40:00 19.1 C 80 % 15.57 C
2338 24-07-2019 02:45:00 19.1 C 80 % 15.57 C
2339 24-07-2019 02:50:00 19 C 80 % 15.47 C
2340 24-07-2019 02:55:00 18.9 C 81 % 15.57 C
2341 24-07-2019 03:00:00 18.9 C 81 % 15.57 C
2342 24-07-2019 03:05:00 19.1 C 81 % 15.76 C
2343 24-07-2019 03:10:00 19.1 C 80 % 15.57 C
2344 24-07-2019 03:15:00 18.9 C 80 % 15.38 C
2345 24-07-2019 03:20:00 18.8 C 80 % 15.28 C
2346 24-07-2019 03:25:00 18.7 C 81 % 15.37 C
2347 24-07-2019 03:30:00 18.6 C 82 % 15.47 C
2348 24-07-2019 03:35:00 18.5 C 83 % 15.56 C
2349 24-07-2019 03:40:00 18.4 C 83 % 15.46 C
2350 24-07-2019 03:45:00 18.3 C 83 % 15.36 C
Sensor: Nr:Datum:Temp:Feuchte:Taupunkt:
Aussen-T/F 2351 24-07-2019 03:50:00 18.2 C 83 % 15.27 C
2352 24-07-2019 03:55:00 18.1 C 84 % 15.35 C
2353 24-07-2019 04:00:00 18.1 C 84 % 15.35 C
2354 24-07-2019 04:05:00 18 C 84 % 15.26 C
2355 24-07-2019 04:10:00 17.9 C 84 % 15.16 C
2356 24-07-2019 04:15:00 17.9 C 84 % 15.16 C
2357 24-07-2019 04:20:00 17.8 C 84 % 15.06 C
2358 24-07-2019 04:25:00 17.8 C 84 % 15.06 C
2359 24-07-2019 04:30:00 17.8 C 85 % 15.25 C
2360 24-07-2019 04:35:00 17.7 C 85 % 15.15 C
2361 24-07-2019 04:40:00 17.7 C 85 % 15.15 C
2362 24-07-2019 04:45:00 17.6 C 85 % 15.05 C
2363 24-07-2019 04:50:00 17.5 C 85 % 14.95 C
2364 24-07-2019 04:55:00 17.4 C 86 % 15.03 C
2365 24-07-2019 05:00:00 17.4 C 86 % 15.03 C
2366 24-07-2019 05:05:00 17.4 C 86 % 15.03 C
2367 24-07-2019 05:10:00 17.3 C 86 % 14.94 C
2368 24-07-2019 05:15:00 17.3 C 87 % 15.12 C
2369 24-07-2019 05:20:00 17.3 C 87 % 15.12 C
2370 24-07-2019 05:25:00 17.2 C 87 % 15.02 C
2371 24-07-2019 05:30:00 17.2 C 87 % 15.02 C
2372 24-07-2019 05:35:00 17.2 C 88 % 15.2 C
2373 24-07-2019 05:40:00 17.2 C 88 % 15.2 C
2374 24-07-2019 05:45:00 17.1 C 88 % 15.1 C
2375 24-07-2019 05:50:00 17.1 C 87 % 14.92 C
Sensor: Nr:Datum:Temp:Feuchte:Taupunkt:
Aussen-T/F 2376 24-07-2019 05:55:00 17.1 C 88 % 15.1 C
2377 24-07-2019 06:00:00 17.1 C 88 % 15.1 C
2378 24-07-2019 06:05:00 17.1 C 88 % 15.1 C
2379 24-07-2019 06:10:00 17.1 C 88 % 15.1 C
2380 24-07-2019 06:15:00 17.1 C 88 % 15.1 C
2381 24-07-2019 06:20:00 17 C 88 % 15 C
2382 24-07-2019 06:25:00 17.1 C 88 % 15.1 C
2383 24-07-2019 06:30:00 17.1 C 88 % 15.1 C
2384 24-07-2019 06:35:00 17 C 88 % 15 C
2385 24-07-2019 06:40:00 17 C 88 % 15 C
2386 24-07-2019 06:45:00 17.1 C 89 % 15.27 C
2387 24-07-2019 06:50:00 17.1 C 89 % 15.27 C
2388 24-07-2019 06:55:00 17.1 C 89 % 15.27 C
2389 24-07-2019 07:00:00 17.1 C 90 % 15.45 C
2390 24-07-2019 07:05:00 17.1 C 90 % 15.45 C
2391 24-07-2019 07:10:00 17.1 C 90 % 15.45 C
2392 24-07-2019 07:15:00 17.1 C 90 % 15.45 C
2393 24-07-2019 07:20:00 17.2 C 90 % 15.55 C
2394 24-07-2019 07:25:00 17.2 C 90 % 15.55 C
2395 24-07-2019 07:30:00 17.3 C 90 % 15.64 C
2396 24-07-2019 07:35:00 17.3 C 90 % 15.64 C
2397 24-07-2019 07:40:00 17.3 C 90 % 15.64 C
2398 24-07-2019 07:45:00 17.4 C 90 % 15.74 C
2399 24-07-2019 07:50:00 17.5 C 90 % 15.84 C
2400 24-07-2019 07:55:00 17.6 C 90 % 15.94 C
Sensor: Nr:Datum:Temp:Feuchte:Taupunkt:
Aussen-T/F 2401 24-07-2019 08:00:00 17.6 C 90 % 15.94 C
2402 24-07-2019 08:05:00 17.7 C 90 % 16.04 C
2403 24-07-2019 08:10:00 17.8 C 90 % 16.14 C
2404 24-07-2019 08:15:00 18 C 89 % 16.16 C
2405 24-07-2019 08:20:00 18.2 C 89 % 16.36 C
2406 24-07-2019 08:25:00 18.3 C 89 % 16.46 C
2407 24-07-2019 08:30:00 18.4 C 89 % 16.55 C
2408 24-07-2019 08:35:00 18.5 C 88 % 16.48 C
2409 24-07-2019 08:40:00 18.6 C 88 % 16.57 C
2410 24-07-2019 08:45:00 18.8 C 88 % 16.77 C
2411 24-07-2019 08:50:00 18.9 C 88 % 16.87 C
2412 24-07-2019 08:55:00 19.1 C 88 % 17.07 C
2413 24-07-2019 09:00:00 19.2 C 88 % 17.16 C
2414 24-07-2019 09:05:00 19.3 C 88 % 17.26 C
2415 24-07-2019 09:10:00 19.5 C 88 % 17.46 C
2416 24-07-2019 09:15:00 19.6 C 87 % 17.38 C
2417 24-07-2019 09:20:00 19.8 C 87 % 17.57 C
2418 24-07-2019 09:25:00 20.1 C 86 % 17.68 C
2419 24-07-2019 09:30:00 20.3 C 86 % 17.88 C
2420 24-07-2019 09:35:00 20.5 C 85 % 17.89 C
2421 24-07-2019 09:40:00 20.7 C 84 % 17.9 C
2422 24-07-2019 09:45:00 20.9 C 83 % 17.9 C
2423 24-07-2019 09:50:00 21.3 C 82 % 18.1 C
2424 24-07-2019 09:55:00 21.6 C 80 % 18 C
2425 24-07-2019 10:00:00 21.9 C 78 % 17.89 C
Sensor: Nr:Datum:Temp:Feuchte:Taupunkt:
Aussen-T/F 2426 24-07-2019 10:05:00 22.3 C 79 % 18.48 C
2427 24-07-2019 10:10:00 22.6 C 77 % 18.36 C
2428 24-07-2019 10:15:00 22.8 C 75 % 18.14 C
2429 24-07-2019 10:20:00 23.1 C 74 % 18.21 C
2430 24-07-2019 10:25:00 23.6 C 73 % 18.48 C
2431 24-07-2019 10:30:00 24 C 72 % 18.64 C
2432 24-07-2019 10:35:00 24.3 C 71 % 18.7 C
2433 24-07-2019 10:40:00 24.6 C 69 % 18.53 C
2434 24-07-2019 10:45:00 24.9 C 67 % 18.35 C
2435 24-07-2019 10:50:00 25.3 C 67 % 18.73 C
2436 24-07-2019 10:55:00 25.6 C 67 % 19.01 C
2437 24-07-2019 11:00:00 25.8 C 67 % 19.2 C
2438 24-07-2019 11:05:00 26 C 64 % 18.66 C
2439 24-07-2019 11:10:00 26.3 C 66 % 19.44 C
2440 24-07-2019 11:15:00 26.6 C 65 % 19.48 C
2441 24-07-2019 11:20:00 26.8 C 60 % 18.38 C
2442 24-07-2019 11:25:00 27.1 C 60 % 18.66 C
2443 24-07-2019 11:30:00 27.4 C 59 % 18.68 C
2444 24-07-2019 11:35:00 27.9 C 58 % 18.87 C
2445 24-07-2019 11:40:00 28.3 C 55 % 18.39 C
2446 24-07-2019 11:45:00 28.6 C 54 % 18.38 C
2447 24-07-2019 11:50:00 29 C 53 % 18.45 C
2448 24-07-2019 11:55:00 29.4 C 53 % 18.82 C
2449 24-07-2019 12:00:00 29.8 C 53 % 19.19 C
2450 24-07-2019 12:05:00 30.3 C 48 % 18.06 C
Sensor: Nr:Datum:Temp:Feuchte:Taupunkt:
Aussen-T/F 2451 24-07-2019 12:10:00 30.7 C 47 % 18.09 C
2452 24-07-2019 12:15:00 31.2 C 44 % 17.49 C
2453 24-07-2019 12:20:00 31.7 C 42 % 17.21 C
2454 24-07-2019 12:25:00 32.1 C 43 % 17.94 C
2455 24-07-2019 12:30:00 32.4 C 38 % 16.25 C
2456 24-07-2019 12:35:00 32.8 C 37 % 16.19 C
2457 24-07-2019 12:40:00 33 C 37 % 16.36 C
2458 24-07-2019 12:45:00 33.3 C 38 % 17.05 C
2459 24-07-2019 12:50:00 33.5 C 37 % 16.81 C
2460 24-07-2019 12:55:00 33.7 C 36 % 16.55 C
2461 24-07-2019 13:00:00 33.8 C 34 % 15.74 C
2462 24-07-2019 13:05:00 33.9 C 31 % 14.39 C
2463 24-07-2019 13:10:00 33.9 C 30 % 13.89 C
2464 24-07-2019 13:15:00 33.9 C 31 % 14.39 C
2465 24-07-2019 13:20:00 34 C 30 % 13.97 C
2466 24-07-2019 13:25:00 34.1 C 29 % 13.54 C
2467 24-07-2019 13:30:00 34.2 C 28 % 13.08 C
2468 24-07-2019 13:35:00 34.3 C 29 % 13.71 C
2469 24-07-2019 13:40:00 34.3 C 27 % 12.61 C
2470 24-07-2019 13:45:00 34.4 C 27 % 12.7 C
2471 24-07-2019 13:50:00 34.6 C 27 % 12.87 C
2472 24-07-2019 13:55:00 34.7 C 26 % 12.38 C
2473 24-07-2019 14:00:00 34.8 C 27 % 13.04 C
2474 24-07-2019 14:05:00 34.8 C 26 % 12.46 C
2475 24-07-2019 14:10:00 34.9 C 27 % 13.12 C
Sensor: Nr:Datum:Temp:Feuchte:Taupunkt:
Aussen-T/F 2476 24-07-2019 14:15:00 35 C 27 % 13.21 C
2477 24-07-2019 14:20:00 35.1 C 26 % 12.71 C
2478 24-07-2019 14:25:00 35.3 C 27 % 13.46 C
2479 24-07-2019 14:30:00 35.3 C 26 % 12.88 C
2480 24-07-2019 14:35:00 35.5 C 26 % 13.05 C
2481 24-07-2019 14:40:00 35.6 C 28 % 14.27 C
2482 24-07-2019 14:45:00 35.8 C 27 % 13.88 C
2483 24-07-2019 14:50:00 35.8 C 27 % 13.88 C
2484 24-07-2019 14:55:00 35.9 C 28 % 14.53 C
2485 24-07-2019 15:00:00 35.9 C 28 % 14.53 C
2486 24-07-2019 15:05:00 36.1 C 30 % 15.77 C
2487 24-07-2019 15:10:00 36.2 C 28 % 14.78 C
2488 24-07-2019 15:15:00 36.3 C 27 % 14.31 C
2489 24-07-2019 15:20:00 36.3 C 26 % 13.72 C
2490 24-07-2019 15:25:00 36.4 C 25 % 13.21 C
2491 24-07-2019 15:30:00 36.8 C 25 % 13.54 C
2492 24-07-2019 15:35:00 37.2 C 23 % 12.6 C
2493 24-07-2019 15:40:00 37.4 C 24 % 13.42 C
2494 24-07-2019 15:45:00 37.9 C 26 % 15.07 C
2495 24-07-2019 15:50:00 38.4 C 25 % 14.88 C
2496 24-07-2019 15:55:00 38.8 C 25 % 15.22 C
2497 24-07-2019 16:00:00 39.2 C 23 % 14.26 C
2498 24-07-2019 16:05:00 39.3 C 22 % 13.65 C
2499 24-07-2019 16:10:00 39.4 C 23 % 14.42 C
2500 24-07-2019 16:15:00 39.4 C 25 % 15.72 C
Sensor: Nr:Datum:Temp:Feuchte:Taupunkt:
Aussen-T/F 2501 24-07-2019 16:20:00 39.5 C 25 % 15.8 C
2502 24-07-2019 16:25:00 39.7 C 24 % 15.33 C
2503 24-07-2019 16:30:00 39.8 C 22 % 14.06 C
2504 24-07-2019 16:35:00 39.7 C 22 % 13.98 C
2505 24-07-2019 16:40:00 39.6 C 22 % 13.9 C
2506 24-07-2019 16:45:00 39.7 C 23 % 14.67 C
2507 24-07-2019 16:50:00 39.9 C 22 % 14.15 C
2508 24-07-2019 16:55:00 39.9 C 24 % 15.5 C
2509 24-07-2019 17:00:00 39.9 C 23 % 14.83 C
2510 24-07-2019 17:05:00 40.1 C 27 % 17.52 C
2511 24-07-2019 17:10:00 39.9 C 21 % 13.43 C
2512 24-07-2019 17:15:00 39.9 C 23 % 14.83 C
2513 24-07-2019 17:20:00 40 C 22 % 14.23 C
2514 24-07-2019 17:25:00 39.9 C 22 % 14.15 C
2515 24-07-2019 17:30:00 39.8 C 22 % 14.06 C
2516 24-07-2019 17:35:00 39.5 C 23 % 14.5 C
2517 24-07-2019 17:40:00 39.3 C 22 % 13.65 C
2518 24-07-2019 17:45:00 39 C 23 % 14.09 C
2519 24-07-2019 17:50:00 38.9 C 23 % 14.01 C
2520 24-07-2019 17:55:00 39.1 C 24 % 14.83 C
2521 24-07-2019 18:00:00 39.4 C 23 % 14.42 C
2522 24-07-2019 18:05:00 39.6 C 24 % 15.25 C
2523 24-07-2019 18:10:00 39.8 C 22 % 14.06 C
2524 24-07-2019 18:15:00 39.8 C 22 % 14.06 C
2525 24-07-2019 18:20:00 39.4 C 22 % 13.74 C
Sensor: Nr:Datum:Temp:Feuchte:Taupunkt:
Aussen-T/F 2526 24-07-2019 18:25:00 39.2 C 23 % 14.26 C
2527 24-07-2019 18:30:00 39.2 C 22 % 13.57 C
2528 24-07-2019 18:35:00 39.2 C 23 % 14.26 C
2529 24-07-2019 18:40:00 39.1 C 23 % 14.17 C
2530 24-07-2019 18:45:00 39.1 C 22 % 13.49 C
2531 24-07-2019 18:50:00 39.1 C 23 % 14.17 C
2532 24-07-2019 18:55:00 38.9 C 23 % 14.01 C
2533 24-07-2019 19:00:00 38.8 C 22 % 13.24 C
2534 24-07-2019 19:05:00 38.7 C 23 % 13.84 C
2535 24-07-2019 19:10:00 38.6 C 27 % 16.25 C
2536 24-07-2019 19:15:00 38.7 C 26 % 15.74 C
2537 24-07-2019 19:20:00 38.8 C 23 % 13.92 C
2538 24-07-2019 19:25:00 38.8 C 28 % 16.99 C
2539 24-07-2019 19:30:00 38.7 C 29 % 17.46 C
2540 24-07-2019 19:35:00 38.7 C 30 % 18 C
2541 24-07-2019 19:40:00 38.4 C 31 % 18.26 C
2542 24-07-2019 19:45:00 38.2 C 30 % 17.57 C
2543 24-07-2019 19:50:00 37.9 C 31 % 17.83 C
2544 24-07-2019 19:55:00 37.6 C 31 % 17.58 C
2545 24-07-2019 20:00:00 37.1 C 34 % 18.61 C
2546 24-07-2019 20:05:00 36.4 C 33 % 17.53 C
2547 24-07-2019 20:10:00 35.6 C 34 % 17.31 C
2548 24-07-2019 20:15:00 34.8 C 35 % 17.07 C
2549 24-07-2019 20:20:00 33.9 C 38 % 17.58 C
2550 24-07-2019 20:25:00 33.1 C 40 % 17.68 C
Sensor: Nr:Datum:Temp:Feuchte:Taupunkt:
Aussen-T/F 2551 24-07-2019 20:30:00 32.4 C 42 % 17.83 C
2552 24-07-2019 20:35:00 31.7 C 44 % 17.94 C
2553 24-07-2019 20:40:00 31.2 C 44 % 17.49 C
2554 24-07-2019 20:45:00 30.8 C 45 % 17.49 C
2555 24-07-2019 20:50:00 30.4 C 45 % 17.13 C
2556 24-07-2019 20:55:00 30.2 C 46 % 17.3 C
2557 24-07-2019 21:00:00 29.9 C 47 % 17.36 C
2558 24-07-2019 21:05:00 29.7 C 47 % 17.18 C
2559 24-07-2019 21:10:00 29.4 C 48 % 17.24 C
2560 24-07-2019 21:15:00 29.2 C 48 % 17.06 C
2561 24-07-2019 21:20:00 29 C 49 % 17.2 C
2562 24-07-2019 21:25:00 28.8 C 49 % 17.02 C
2563 24-07-2019 21:30:00 28.7 C 49 % 16.93 C
2564 24-07-2019 21:35:00 28.5 C 50 % 17.06 C
2565 24-07-2019 21:40:00 28.3 C 49 % 16.56 C
2566 24-07-2019 21:45:00 28.2 C 50 % 16.79 C
2567 24-07-2019 21:50:00 28.1 C 50 % 16.7 C
2568 24-07-2019 21:55:00 28.1 C 50 % 16.7 C
2569 24-07-2019 22:00:00 27.9 C 50 % 16.51 C
2570 24-07-2019 22:05:00 27.8 C 51 % 16.73 C
2571 24-07-2019 22:10:00 27.8 C 51 % 16.73 C
2572 24-07-2019 22:15:00 27.7 C 51 % 16.64 C
2573 24-07-2019 22:20:00 27.6 C 51 % 16.55 C
2574 24-07-2019 22:25:00 27.4 C 52 % 16.67 C
2575 24-07-2019 22:30:00 27.3 C 52 % 16.58 C
Sensor: Nr:Datum:Temp:Feuchte:Taupunkt:
Aussen-T/F 2576 24-07-2019 22:35:00 27.2 C 53 % 16.79 C
2577 24-07-2019 22:40:00 27.1 C 53 % 16.7 C
2578 24-07-2019 22:45:00 27 C 53 % 16.6 C
2579 24-07-2019 22:50:00 26.9 C 53 % 16.51 C
2580 24-07-2019 22:55:00 26.8 C 54 % 16.71 C
2581 24-07-2019 23:00:00 26.8 C 54 % 16.71 C
2582 24-07-2019 23:05:00 26.6 C 55 % 16.82 C
2583 24-07-2019 23:10:00 26.4 C 56 % 16.92 C
2584 24-07-2019 23:15:00 26.2 C 57 % 17.01 C
2585 24-07-2019 23:20:00 25.9 C 58 % 17 C
2586 24-07-2019 23:25:00 25.7 C 58 % 16.82 C
2587 24-07-2019 23:30:00 25.4 C 58 % 16.54 C
2588 24-07-2019 23:35:00 25.2 C 58 % 16.35 C
2589 24-07-2019 23:40:00 25 C 60 % 16.7 C
2590 24-07-2019 23:45:00 24.8 C 61 % 16.77 C
2591 24-07-2019 23:50:00 24.6 C 62 % 16.84 C
2592 24-07-2019 23:55:00 24.4 C 63 % 16.9 C
2593 25-07-2019 00:00:00 24.3 C 62 % 16.55 C
2594 25-07-2019 00:05:00 24 C 61 % 16.02 C
2595 25-07-2019 00:10:00 23.9 C 63 % 16.43 C
2596 25-07-2019 00:15:00 23.9 C 63 % 16.43 C
2597 25-07-2019 00:20:00 23.8 C 63 % 16.33 C
2598 25-07-2019 00:25:00 23.7 C 62 % 15.99 C
2599 25-07-2019 00:30:00 23.6 C 62 % 15.89 C
2600 25-07-2019 00:35:00 23.6 C 64 % 16.39 C
Sensor: Nr:Datum:Temp:Feuchte:Taupunkt:
Aussen-T/F 2601 25-07-2019 00:40:00 23.4 C 64 % 16.2 C
2602 25-07-2019 00:45:00 23.3 C 63 % 15.86 C
2603 25-07-2019 00:50:00 23.4 C 64 % 16.2 C
2604 25-07-2019 00:55:00 23.3 C 66 % 16.59 C
2605 25-07-2019 01:00:00 23.2 C 65 % 16.26 C
2606 25-07-2019 01:05:00 23.1 C 65 % 16.16 C
2607 25-07-2019 01:10:00 22.9 C 66 % 16.21 C
2608 25-07-2019 01:15:00 22.7 C 66 % 16.02 C
2609 25-07-2019 01:20:00 22.6 C 67 % 16.16 C
2610 25-07-2019 01:25:00 22.4 C 66 % 15.74 C
2611 25-07-2019 01:30:00 22.3 C 67 % 15.88 C
2612 25-07-2019 01:35:00 22.3 C 65 % 15.4 C
2613 25-07-2019 01:40:00 22.3 C 68 % 16.11 C
2614 25-07-2019 01:45:00 22.3 C 68 % 16.11 C
2615 25-07-2019 01:50:00 22.2 C 68 % 16.01 C
2616 25-07-2019 01:55:00 22.1 C 68 % 15.92 C
2617 25-07-2019 02:00:00 22 C 69 % 16.05 C
2618 25-07-2019 02:05:00 21.9 C 70 % 16.18 C
2619 25-07-2019 02:10:00 21.8 C 70 % 16.09 C
2620 25-07-2019 02:15:00 21.7 C 70 % 15.99 C
2621 25-07-2019 02:20:00 21.7 C 70 % 15.99 C
2622 25-07-2019 02:25:00 21.7 C 71 % 16.21 C
2623 25-07-2019 02:30:00 21.6 C 70 % 15.89 C
2624 25-07-2019 02:35:00 21.5 C 70 % 15.8 C
2625 25-07-2019 02:40:00 21.4 C 71 % 15.93 C
Sensor: Nr:Datum:Temp:Feuchte:Taupunkt:
Aussen-T/F 2626 25-07-2019 02:45:00 21.4 C 71 % 15.93 C
2627 25-07-2019 02:50:00 21.3 C 72 % 16.05 C
2628 25-07-2019 02:55:00 21.2 C 72 % 15.95 C
2629 25-07-2019 03:00:00 21.2 C 72 % 15.95 C
2630 25-07-2019 03:05:00 21.2 C 73 % 16.17 C
2631 25-07-2019 03:10:00 21.2 C 73 % 16.17 C
2632 25-07-2019 03:15:00 21.1 C 73 % 16.07 C
2633 25-07-2019 03:20:00 20.9 C 74 % 16.09 C
2634 25-07-2019 03:25:00 20.8 C 74 % 16 C
2635 25-07-2019 03:30:00 20.8 C 74 % 16 C
2636 25-07-2019 03:35:00 20.8 C 74 % 16 C
2637 25-07-2019 03:40:00 20.8 C 74 % 16 C
2638 25-07-2019 03:45:00 20.7 C 75 % 16.11 C
2639 25-07-2019 03:50:00 20.6 C 75 % 16.01 C
2640 25-07-2019 03:55:00 20.6 C 76 % 16.22 C
2641 25-07-2019 04:00:00 20.4 C 76 % 16.03 C
2642 25-07-2019 04:05:00 20.3 C 76 % 15.93 C
2643 25-07-2019 04:10:00 20.2 C 77 % 16.04 C
2644 25-07-2019 04:15:00 20.1 C 77 % 15.94 C
2645 25-07-2019 04:20:00 19.9 C 78 % 15.95 C
2646 25-07-2019 04:25:00 20.1 C 78 % 16.14 C
2647 25-07-2019 04:30:00 20.1 C 78 % 16.14 C
2648 25-07-2019 04:35:00 20.1 C 78 % 16.14 C
2649 25-07-2019 04:40:00 20.1 C 78 % 16.14 C
2650 25-07-2019 04:45:00 19.9 C 79 % 16.15 C
Sensor: Nr:Datum:Temp:Feuchte:Taupunkt:
Aussen-T/F 2651 25-07-2019 04:50:00 19.9 C 79 % 16.15 C
2652 25-07-2019 04:55:00 19.8 C 79 % 16.05 C
2653 25-07-2019 05:00:00 19.7 C 79 % 15.96 C
2654 25-07-2019 05:05:00 19.6 C 79 % 15.86 C
2655 25-07-2019 05:10:00 19.6 C 80 % 16.06 C
2656 25-07-2019 05:15:00 19.4 C 80 % 15.86 C
2657 25-07-2019 05:20:00 19.4 C 80 % 15.86 C
2658 25-07-2019 05:25:00 19.3 C 80 % 15.76 C
2659 25-07-2019 05:30:00 19.3 C 80 % 15.76 C
2660 25-07-2019 05:35:00 19.3 C 80 % 15.76 C
2661 25-07-2019 05:40:00 19.2 C 80 % 15.67 C
2662 25-07-2019 05:45:00 19.2 C 80 % 15.67 C
2663 25-07-2019 05:50:00 19.2 C 81 % 15.86 C
2664 25-07-2019 05:55:00 19.1 C 81 % 15.76 C
2665 25-07-2019 06:00:00 19.1 C 82 % 15.96 C
2666 25-07-2019 06:05:00 19.1 C 82 % 15.96 C
2667 25-07-2019 06:10:00 19.1 C 82 % 15.96 C
2668 25-07-2019 06:15:00 19.2 C 82 % 16.05 C
2669 25-07-2019 06:20:00 19.2 C 82 % 16.05 C
2670 25-07-2019 06:25:00 19.1 C 82 % 15.96 C
2671 25-07-2019 06:30:00 19.2 C 82 % 16.05 C
2672 25-07-2019 06:35:00 19.2 C 82 % 16.05 C
2673 25-07-2019 06:40:00 19.2 C 82 % 16.05 C
2674 25-07-2019 06:45:00 19.3 C 83 % 16.34 C
2675 25-07-2019 06:50:00 19.3 C 83 % 16.34 C
Sensor: Nr:Datum:Temp:Feuchte:Taupunkt:
Aussen-T/F 2676 25-07-2019 06:55:00 19.3 C 83 % 16.34 C
2677 25-07-2019 07:00:00 19.3 C 83 % 16.34 C
2678 25-07-2019 07:05:00 19.3 C 83 % 16.34 C
2679 25-07-2019 07:10:00 19.4 C 84 % 16.63 C
2680 25-07-2019 07:15:00 19.4 C 84 % 16.63 C
2681 25-07-2019 07:20:00 19.4 C 84 % 16.63 C
2682 25-07-2019 07:25:00 19.5 C 84 % 16.72 C
2683 25-07-2019 07:30:00 19.6 C 84 % 16.82 C
2684 25-07-2019 07:35:00 19.6 C 84 % 16.82 C
2685 25-07-2019 07:40:00 19.7 C 84 % 16.92 C
2686 25-07-2019 07:45:00 19.8 C 84 % 17.02 C
2687 25-07-2019 07:50:00 19.8 C 84 % 17.02 C
2688 25-07-2019 07:55:00 19.9 C 84 % 17.12 C
2689 25-07-2019 08:00:00 20 C 83 % 17.02 C
2690 25-07-2019 08:05:00 20.1 C 84 % 17.31 C
2691 25-07-2019 08:10:00 20.2 C 83 % 17.22 C
2692 25-07-2019 08:15:00 20.3 C 82 % 17.13 C
2693 25-07-2019 08:20:00 20.5 C 83 % 17.51 C
2694 25-07-2019 08:25:00 20.7 C 83 % 17.71 C
2695 25-07-2019 08:30:00 20.8 C 83 % 17.81 C
2696 25-07-2019 08:35:00 20.9 C 82 % 17.71 C
2697 25-07-2019 08:40:00 21.1 C 83 % 18.1 C
2698 25-07-2019 08:45:00 21.2 C 83 % 18.2 C
2699 25-07-2019 08:50:00 21.4 C 82 % 18.2 C
2700 25-07-2019 08:55:00 21.6 C 82 % 18.39 C
Sensor: Nr:Datum:Temp:Feuchte:Taupunkt:
Aussen-T/F 2701 25-07-2019 09:00:00 21.7 C 81 % 18.3 C
2702 25-07-2019 09:05:00 21.8 C 79 % 18 C
2703 25-07-2019 09:10:00 22.1 C 81 % 18.69 C
2704 25-07-2019 09:15:00 22.2 C 81 % 18.78 C
2705 25-07-2019 09:20:00 22.3 C 78 % 18.28 C
2706 25-07-2019 09:25:00 22.6 C 78 % 18.57 C
2707 25-07-2019 09:30:00 22.8 C 77 % 18.56 C
2708 25-07-2019 09:35:00 23.1 C 77 % 18.85 C
2709 25-07-2019 09:40:00 23.3 C 75 % 18.62 C
2710 25-07-2019 09:45:00 23.5 C 74 % 18.6 C
2711 25-07-2019 09:50:00 23.7 C 72 % 18.35 C
2712 25-07-2019 09:55:00 24 C 70 % 18.19 C
2713 25-07-2019 10:00:00 24.3 C 70 % 18.48 C
2714 25-07-2019 10:05:00 24.6 C 71 % 18.99 C
2715 25-07-2019 10:10:00 24.9 C 70 % 19.05 C
2716 25-07-2019 10:15:00 25.1 C 69 % 19.01 C
2717 25-07-2019 10:20:00 25.3 C 68 % 18.97 C
2718 25-07-2019 10:25:00 25.6 C 69 % 19.49 C
2719 25-07-2019 10:30:00 25.9 C 67 % 19.3 C
2720 25-07-2019 10:35:00 26.2 C 65 % 19.1 C
2721 25-07-2019 10:40:00 26.6 C 63 % 18.97 C
2722 25-07-2019 10:45:00 26.9 C 62 % 19 C
2723 25-07-2019 10:50:00 27.2 C 63 % 19.54 C
2724 25-07-2019 10:55:00 27.5 C 63 % 19.82 C
2725 25-07-2019 11:00:00 27.8 C 61 % 19.59 C
Sensor: Nr:Datum:Temp:Feuchte:Taupunkt:
Aussen-T/F 2726 25-07-2019 11:05:00 28.2 C 60 % 19.69 C
2727 25-07-2019 11:10:00 28.6 C 56 % 18.96 C
2728 25-07-2019 11:15:00 29.1 C 58 % 19.99 C
2729 25-07-2019 11:20:00 29.4 C 54 % 19.12 C
2730 25-07-2019 11:25:00 29.8 C 55 % 19.78 C
2731 25-07-2019 11:30:00 30.1 C 54 % 19.76 C
2732 25-07-2019 11:35:00 30.5 C 53 % 19.83 C
2733 25-07-2019 11:40:00 30.8 C 50 % 19.17 C
2734 25-07-2019 11:45:00 31.2 C 48 % 18.88 C
2735 25-07-2019 11:50:00 31.6 C 47 % 18.91 C
2736 25-07-2019 11:55:00 32.1 C 44 % 18.3 C
2737 25-07-2019 12:00:00 32.6 C 41 % 17.63 C
2738 25-07-2019 12:05:00 33 C 40 % 17.59 C
2739 25-07-2019 12:10:00 33.4 C 38 % 17.14 C
2740 25-07-2019 12:15:00 33.8 C 38 % 17.49 C
2741 25-07-2019 12:20:00 34.3 C 35 % 16.63 C
2742 25-07-2019 12:25:00 34.7 C 35 % 16.98 C
2743 25-07-2019 12:30:00 34.9 C 35 % 17.16 C
2744 25-07-2019 12:35:00 35.2 C 33 % 16.49 C
2745 25-07-2019 12:40:00 35.3 C 33 % 16.58 C
2746 25-07-2019 12:45:00 35.5 C 33 % 16.75 C
2747 25-07-2019 12:50:00 35.7 C 33 % 16.92 C
2748 25-07-2019 12:55:00 35.9 C 31 % 16.11 C
2749 25-07-2019 13:00:00 36 C 32 % 16.7 C
2750 25-07-2019 13:05:00 36.1 C 32 % 16.79 C
Sensor: Nr:Datum:Temp:Feuchte:Taupunkt:
Aussen-T/F 2751 25-07-2019 13:10:00 36.2 C 32 % 16.87 C
2752 25-07-2019 13:15:00 36.3 C 32 % 16.96 C
2753 25-07-2019 13:20:00 36.3 C 30 % 15.94 C
2754 25-07-2019 13:25:00 36.4 C 31 % 16.54 C
2755 25-07-2019 13:30:00 36.4 C 31 % 16.54 C
2756 25-07-2019 13:35:00 36.6 C 31 % 16.72 C
2757 25-07-2019 13:40:00 36.7 C 31 % 16.8 C
2758 25-07-2019 13:45:00 36.8 C 30 % 16.37 C
2759 25-07-2019 13:50:00 36.9 C 31 % 16.97 C
2760 25-07-2019 13:55:00 36.9 C 29 % 15.93 C
2761 25-07-2019 14:00:00 36.9 C 30 % 16.46 C
2762 25-07-2019 14:05:00 37.1 C 30 % 16.63 C
2763 25-07-2019 14:10:00 37.2 C 29 % 16.18 C
2764 25-07-2019 14:15:00 37.3 C 30 % 16.8 C
2765 25-07-2019 14:20:00 37.4 C 29 % 16.35 C
2766 25-07-2019 14:25:00 37.4 C 27 % 15.24 C
2767 25-07-2019 14:30:00 37.4 C 30 % 16.89 C
2768 25-07-2019 14:35:00 37.6 C 28 % 15.97 C
2769 25-07-2019 14:40:00 37.6 C 29 % 16.52 C
2770 25-07-2019 14:45:00 37.7 C 27 % 15.49 C
2771 25-07-2019 14:50:00 37.7 C 29 % 16.61 C
2772 25-07-2019 14:55:00 37.8 C 28 % 16.14 C
2773 25-07-2019 15:00:00 37.9 C 28 % 16.23 C
2774 25-07-2019 15:05:00 38.2 C 28 % 16.48 C
2775 25-07-2019 15:10:00 38.3 C 28 % 16.57 C
Sensor: Nr:Datum:Temp:Feuchte:Taupunkt:
Aussen-T/F 2776 25-07-2019 15:15:00 38.5 C 27 % 16.16 C
2777 25-07-2019 15:20:00 38.7 C 26 % 15.74 C
2778 25-07-2019 15:25:00 38.8 C 26 % 15.83 C
2779 25-07-2019 15:30:00 38.9 C 26 % 15.91 C
2780 25-07-2019 15:35:00 38.7 C 26 % 15.74 C
2781 25-07-2019 15:40:00 38.8 C 26 % 15.83 C
2782 25-07-2019 15:45:00 39.2 C 25 % 15.55 C
2783 25-07-2019 15:50:00 39.6 C 26 % 16.5 C
2784 25-07-2019 15:55:00 39.9 C 24 % 15.5 C
2785 25-07-2019 16:00:00 40.1 C 23 % 15 C
2786 25-07-2019 16:05:00 40.2 C 24 % 15.75 C
2787 25-07-2019 16:10:00 40.2 C 25 % 16.39 C
2788 25-07-2019 16:15:00 40.3 C 23 % 15.17 C
2789 25-07-2019 16:20:00 40.4 C 24 % 15.91 C
2790 25-07-2019 16:25:00 40.4 C 25 % 16.55 C
2791 25-07-2019 16:30:00 40.4 C 23 % 15.25 C
2792 25-07-2019 16:35:00 40.3 C 23 % 15.17 C
2793 25-07-2019 16:40:00 40 C 23 % 14.92 C
2794 25-07-2019 16:45:00 39.9 C 23 % 14.83 C
2795 25-07-2019 16:50:00 39.9 C 25 % 16.13 C
2796 25-07-2019 16:55:00 39.7 C 23 % 14.67 C
2797 25-07-2019 17:00:00 39.8 C 24 % 15.41 C
2798 25-07-2019 17:05:00 39.9 C 24 % 15.5 C
2799 25-07-2019 17:10:00 40.3 C 23 % 15.17 C
2800 25-07-2019 17:15:00 40.3 C 22 % 14.48 C
Sensor: Nr:Datum:Temp:Feuchte:Taupunkt:
Aussen-T/F 2801 25-07-2019 17:20:00 40.1 C 22 % 14.31 C
2802 25-07-2019 17:25:00 39.9 C 22 % 14.15 C
2803 25-07-2019 17:30:00 39.6 C 22 % 13.9 C
2804 25-07-2019 17:35:00 39.5 C 22 % 13.82 C
2805 25-07-2019 17:40:00 39.5 C 22 % 13.82 C
2806 25-07-2019 17:45:00 39.5 C 22 % 13.82 C
2807 25-07-2019 17:50:00 39.6 C 23 % 14.59 C
2808 25-07-2019 17:55:00 39.7 C 23 % 14.67 C
2809 25-07-2019 18:00:00 39.6 C 23 % 14.59 C
2810 25-07-2019 18:05:00 39.4 C 23 % 14.42 C
2811 25-07-2019 18:10:00 39.4 C 22 % 13.74 C
2812 25-07-2019 18:15:00 39.4 C 23 % 14.42 C
2813 25-07-2019 18:20:00 39.3 C 22 % 13.65 C
2814 25-07-2019 18:25:00 39.3 C 23 % 14.34 C
2815 25-07-2019 18:30:00 39.2 C 23 % 14.26 C
2816 25-07-2019 18:35:00 39.1 C 23 % 14.17 C
2817 25-07-2019 18:40:00 38.8 C 23 % 13.92 C
2818 25-07-2019 18:45:00 38.6 C 24 % 14.42 C
2819 25-07-2019 18:50:00 38.6 C 24 % 14.42 C
2820 25-07-2019 18:55:00 38.4 C 29 % 17.2 C
2821 25-07-2019 19:00:00 38.3 C 25 % 14.8 C
2822 25-07-2019 19:05:00 38.2 C 31 % 18.09 C
2823 25-07-2019 19:10:00 38 C 28 % 16.31 C
2824 25-07-2019 19:15:00 37.8 C 33 % 18.74 C
2825 25-07-2019 19:20:00 37.4 C 32 % 17.91 C
Sensor: Nr:Datum:Temp:Feuchte:Taupunkt:
Aussen-T/F 2826 25-07-2019 19:25:00 37 C 33 % 18.05 C
2827 25-07-2019 19:30:00 36.6 C 33 % 17.7 C
2828 25-07-2019 19:35:00 36.2 C 35 % 18.29 C
2829 25-07-2019 19:40:00 35.7 C 36 % 18.3 C
2830 25-07-2019 19:45:00 35.3 C 39 % 19.23 C
2831 25-07-2019 19:50:00 34.9 C 38 % 18.46 C
2832 25-07-2019 19:55:00 34.6 C 38 % 18.2 C
2833 25-07-2019 20:00:00 34.3 C 41 % 19.15 C
2834 25-07-2019 20:05:00 33.9 C 41 % 18.79 C
2835 25-07-2019 20:10:00 33.7 C 40 % 18.22 C
2836 25-07-2019 20:15:00 33.4 C 40 % 17.95 C
2837 25-07-2019 20:20:00 33.2 C 42 % 18.55 C
2838 25-07-2019 20:25:00 32.9 C 41 % 17.9 C
2839 25-07-2019 20:30:00 32.7 C 42 % 18.1 C
2840 25-07-2019 20:35:00 32.4 C 42 % 17.83 C
2841 25-07-2019 20:40:00 32.2 C 43 % 18.03 C
2842 25-07-2019 20:45:00 31.9 C 43 % 17.76 C
2843 25-07-2019 20:50:00 31.7 C 44 % 17.94 C
2844 25-07-2019 20:55:00 31.5 C 43 % 17.4 C
2845 25-07-2019 21:00:00 31.3 C 44 % 17.58 C
2846 25-07-2019 21:05:00 31.1 C 44 % 17.4 C
2847 25-07-2019 21:10:00 30.9 C 45 % 17.58 C
2848 25-07-2019 21:15:00 30.7 C 44 % 17.04 C
2849 25-07-2019 21:20:00 30.5 C 44 % 16.86 C
2850 25-07-2019 21:25:00 30.3 C 45 % 17.04 C
Sensor: Nr:Datum:Temp:Feuchte:Taupunkt:
Aussen-T/F 2851 25-07-2019 21:30:00 30.2 C 45 % 16.95 C
2852 25-07-2019 21:35:00 30.1 C 45 % 16.86 C
2853 25-07-2019 21:40:00 29.9 C 45 % 16.68 C
2854 25-07-2019 21:45:00 29.8 C 45 % 16.59 C
2855 25-07-2019 21:50:00 29.7 C 45 % 16.5 C
2856 25-07-2019 21:55:00 29.6 C 45 % 16.41 C
2857 25-07-2019 22:00:00 29.4 C 45 % 16.23 C
2858 25-07-2019 22:05:00 29.3 C 46 % 16.48 C
2859 25-07-2019 22:10:00 29.2 C 46 % 16.39 C
2860 25-07-2019 22:15:00 29.1 C 47 % 16.64 C
2861 25-07-2019 22:20:00 28.9 C 46 % 16.12 C
2862 25-07-2019 22:25:00 28.8 C 48 % 16.69 C
2863 25-07-2019 22:30:00 28.7 C 48 % 16.6 C
2864 25-07-2019 22:35:00 28.5 C 48 % 16.42 C
2865 25-07-2019 22:40:00 28.4 C 48 % 16.33 C
2866 25-07-2019 22:45:00 28.3 C 48 % 16.24 C
2867 25-07-2019 22:50:00 28.3 C 49 % 16.56 C
2868 25-07-2019 22:55:00 28.2 C 48 % 16.15 C
2869 25-07-2019 23:00:00 28.1 C 49 % 16.38 C
2870 25-07-2019 23:05:00 28 C 48 % 15.97 C
2871 25-07-2019 23:10:00 27.9 C 49 % 16.2 C
2872 25-07-2019 23:15:00 27.8 C 48 % 15.78 C
2873 25-07-2019 23:20:00 27.8 C 49 % 16.11 C
2874 25-07-2019 23:25:00 27.7 C 50 % 16.33 C
2875 25-07-2019 23:30:00 27.6 C 49 % 15.92 C
Sensor: Nr:Datum:Temp:Feuchte:Taupunkt:
Aussen-T/F 2876 25-07-2019 23:35:00 27.4 C 50 % 16.06 C
2877 25-07-2019 23:40:00 27.3 C 50 % 15.97 C
2878 25-07-2019 23:45:00 27.2 C 50 % 15.87 C
2879 25-07-2019 23:50:00 27.1 C 51 % 16.09 C
2880 25-07-2019 23:55:00 26.9 C 53 % 16.51 C
2881 26-07-2019 00:00:00 26.8 C 53 % 16.42 C
2882 26-07-2019 00:05:00 26.7 C 53 % 16.33 C
2883 26-07-2019 00:10:00 26.5 C 52 % 15.84 C
2884 26-07-2019 00:15:00 26.4 C 53 % 16.05 C
2885 26-07-2019 00:20:00 26.3 C 53 % 15.96 C
2886 26-07-2019 00:25:00 26.2 C 54 % 16.16 C
2887 26-07-2019 00:30:00 26.1 C 54 % 16.07 C
2888 26-07-2019 00:35:00 26 C 53 % 15.68 C
2889 26-07-2019 00:40:00 25.9 C 54 % 15.88 C
2890 26-07-2019 00:45:00 25.9 C 54 % 15.88 C
2891 26-07-2019 00:50:00 25.8 C 54 % 15.79 C
2892 26-07-2019 00:55:00 25.7 C 54 % 15.7 C
2893 26-07-2019 01:00:00 25.6 C 54 % 15.6 C
2894 26-07-2019 01:05:00 25.5 C 55 % 15.8 C
2895 26-07-2019 01:10:00 25.4 C 54 % 15.42 C
2896 26-07-2019 01:15:00 25.3 C 56 % 15.89 C
2897 26-07-2019 01:20:00 25.2 C 56 % 15.8 C
2898 26-07-2019 01:25:00 25.2 C 57 % 16.08 C
2899 26-07-2019 01:30:00 25.1 C 56 % 15.71 C
2900 26-07-2019 01:35:00 24.9 C 58 % 16.07 C
Sensor: Nr:Datum:Temp:Feuchte:Taupunkt:
Aussen-T/F 2901 26-07-2019 01:40:00 24.8 C 59 % 16.24 C
2902 26-07-2019 01:45:00 24.6 C 60 % 16.32 C
2903 26-07-2019 01:50:00 24.3 C 60 % 16.04 C
2904 26-07-2019 01:55:00 24.1 C 60 % 15.85 C
2905 26-07-2019 02:00:00 23.8 C 62 % 16.08 C
2906 26-07-2019 02:05:00 23.6 C 64 % 16.39 C
2907 26-07-2019 02:10:00 23.3 C 65 % 16.35 C
2908 26-07-2019 02:15:00 23 C 66 % 16.31 C
2909 26-07-2019 02:20:00 22.8 C 67 % 16.35 C
2910 26-07-2019 02:25:00 22.6 C 68 % 16.39 C
2911 26-07-2019 02:30:00 22.3 C 69 % 16.34 C
2912 26-07-2019 02:35:00 22.2 C 69 % 16.24 C
2913 26-07-2019 02:40:00 21.9 C 69 % 15.96 C
2914 26-07-2019 02:45:00 21.7 C 68 % 15.54 C
2915 26-07-2019 02:50:00 21.6 C 69 % 15.67 C
2916 26-07-2019 02:55:00 21.4 C 68 % 15.25 C
2917 26-07-2019 03:00:00 21.3 C 70 % 15.61 C
2918 26-07-2019 03:05:00 21.2 C 71 % 15.73 C
2919 26-07-2019 03:10:00 21.2 C 71 % 15.73 C
2920 26-07-2019 03:15:00 21.1 C 70 % 15.42 C
2921 26-07-2019 03:20:00 21.1 C 71 % 15.64 C
2922 26-07-2019 03:25:00 21 C 71 % 15.54 C
2923 26-07-2019 03:30:00 21 C 72 % 15.76 C
2924 26-07-2019 03:35:00 20.9 C 72 % 15.66 C
2925 26-07-2019 03:40:00 20.8 C 72 % 15.57 C
Sensor: Nr:Datum:Temp:Feuchte:Taupunkt:
Aussen-T/F 2926 26-07-2019 03:45:00 20.8 C 72 % 15.57 C
2927 26-07-2019 03:50:00 20.8 C 74 % 16 C
2928 26-07-2019 03:55:00 20.7 C 74 % 15.9 C
2929 26-07-2019 04:00:00 20.7 C 74 % 15.9 C
2930 26-07-2019 04:05:00 20.6 C 75 % 16.01 C
2931 26-07-2019 04:10:00 20.4 C 75 % 15.82 C
2932 26-07-2019 04:15:00 20.3 C 75 % 15.72 C
2933 26-07-2019 04:20:00 20.3 C 76 % 15.93 C
2934 26-07-2019 04:25:00 20.2 C 77 % 16.04 C
2935 26-07-2019 04:30:00 20.1 C 77 % 15.94 C
2936 26-07-2019 04:35:00 19.9 C 77 % 15.75 C
2937 26-07-2019 04:40:00 19.9 C 78 % 15.95 C
2938 26-07-2019 04:45:00 19.8 C 78 % 15.85 C
2939 26-07-2019 04:50:00 19.7 C 78 % 15.76 C
2940 26-07-2019 04:55:00 19.6 C 79 % 15.86 C
2941 26-07-2019 05:00:00 19.6 C 79 % 15.86 C
2942 26-07-2019 05:05:00 19.5 C 78 % 15.56 C
2943 26-07-2019 05:10:00 19.4 C 78 % 15.47 C
2944 26-07-2019 05:15:00 19.3 C 78 % 15.37 C
2945 26-07-2019 05:20:00 19.3 C 79 % 15.57 C
2946 26-07-2019 05:25:00 19.3 C 78 % 15.37 C
2947 26-07-2019 05:30:00 19.3 C 80 % 15.76 C
2948 26-07-2019 05:35:00 19.3 C 80 % 15.76 C
2949 26-07-2019 05:40:00 19.2 C 80 % 15.67 C
2950 26-07-2019 05:45:00 19.2 C 80 % 15.67 C
Sensor: Nr:Datum:Temp:Feuchte:Taupunkt:
Aussen-T/F 2951 26-07-2019 05:50:00 19.1 C 79 % 15.37 C
2952 26-07-2019 05:55:00 19 C 79 % 15.28 C
2953 26-07-2019 06:00:00 18.9 C 80 % 15.38 C
2954 26-07-2019 06:05:00 19 C 79 % 15.28 C
2955 26-07-2019 06:10:00 19 C 79 % 15.28 C
2956 26-07-2019 06:15:00 18.9 C 80 % 15.38 C
2957 26-07-2019 06:20:00 18.9 C 80 % 15.38 C
2958 26-07-2019 06:25:00 18.9 C 80 % 15.38 C
2959 26-07-2019 06:30:00 18.9 C 80 % 15.38 C
2960 26-07-2019 06:35:00 18.9 C 81 % 15.57 C
2961 26-07-2019 06:40:00 18.9 C 81 % 15.57 C
2962 26-07-2019 06:45:00 19 C 81 % 15.67 C
2963 26-07-2019 06:50:00 19.1 C 81 % 15.76 C
2964 26-07-2019 06:55:00 19.1 C 82 % 15.96 C
2965 26-07-2019 07:00:00 19.2 C 83 % 16.24 C
2966 26-07-2019 07:05:00 19.3 C 83 % 16.34 C
2967 26-07-2019 07:10:00 19.3 C 83 % 16.34 C
2968 26-07-2019 07:15:00 19.4 C 83 % 16.44 C
2969 26-07-2019 07:20:00 19.4 C 82 % 16.25 C
2970 26-07-2019 07:25:00 19.5 C 83 % 16.54 C
2971 26-07-2019 07:30:00 19.6 C 83 % 16.63 C
2972 26-07-2019 07:35:00 19.7 C 83 % 16.73 C
2973 26-07-2019 07:40:00 19.8 C 83 % 16.83 C
2974 26-07-2019 07:45:00 19.9 C 82 % 16.74 C
2975 26-07-2019 07:50:00 20.1 C 81 % 16.74 C
Sensor: Nr:Datum:Temp:Feuchte:Taupunkt:
Aussen-T/F 2976 26-07-2019 07:55:00 20.2 C 81 % 16.84 C
2977 26-07-2019 08:00:00 20.4 C 81 % 17.03 C
2978 26-07-2019 08:05:00 20.5 C 82 % 17.32 C
2979 26-07-2019 08:10:00 20.6 C 81 % 17.22 C
2980 26-07-2019 08:15:00 20.7 C 82 % 17.52 C
2981 26-07-2019 08:20:00 20.8 C 81 % 17.42 C
2982 26-07-2019 08:25:00 20.9 C 80 % 17.32 C
2983 26-07-2019 08:30:00 21.1 C 79 % 17.32 C
2984 26-07-2019 08:35:00 21.3 C 79 % 17.51 C
2985 26-07-2019 08:40:00 21.5 C 78 % 17.5 C
2986 26-07-2019 08:45:00 21.7 C 79 % 17.9 C
2987 26-07-2019 08:50:00 21.9 C 80 % 18.29 C
2988 26-07-2019 08:55:00 21.9 C 78 % 17.89 C
2989 26-07-2019 09:00:00 22.1 C 76 % 17.67 C
2990 26-07-2019 09:05:00 22.3 C 76 % 17.86 C
2991 26-07-2019 09:10:00 22.4 C 74 % 17.54 C
2992 26-07-2019 09:15:00 22.7 C 73 % 17.61 C
2993 26-07-2019 09:20:00 22.9 C 74 % 18.02 C
2994 26-07-2019 09:25:00 23.1 C 70 % 17.33 C
2995 26-07-2019 09:30:00 23.4 C 70 % 17.62 C
2996 26-07-2019 09:35:00 23.7 C 67 % 17.21 C
2997 26-07-2019 09:40:00 24.2 C 67 % 17.68 C
2998 26-07-2019 09:45:00 24.6 C 66 % 17.83 C
2999 26-07-2019 09:50:00 25 C 58 % 16.16 C
3000 26-07-2019 09:55:00 25.7 C 60 % 17.35 C
Sensor: Nr:Datum:Temp:Feuchte:Taupunkt:
Aussen-T/F 3001 26-07-2019 10:00:00 25.9 C 60 % 17.54 C
3002 26-07-2019 10:05:00 26.3 C 58 % 17.38 C
3003 26-07-2019 10:10:00 26.4 C 57 % 17.19 C
3004 26-07-2019 10:15:00 26.8 C 55 % 17 C
3005 26-07-2019 10:20:00 27.2 C 54 % 17.08 C
3006 26-07-2019 10:25:00 27.6 C 48 % 15.6 C
3007 26-07-2019 10:30:00 28.4 C 46 % 15.66 C
3008 26-07-2019 10:35:00 29.1 C 46 % 16.3 C
3009 26-07-2019 10:40:00 29.6 C 44 % 16.05 C
3010 26-07-2019 10:45:00 30.1 C 43 % 16.14 C
3011 26-07-2019 10:50:00 30.5 C 42 % 16.13 C
3012 26-07-2019 10:55:00 30.8 C 41 % 16.02 C
3013 26-07-2019 11:00:00 31 C 39 % 15.42 C
3014 26-07-2019 11:05:00 31.2 C 39 % 15.6 C
3015 26-07-2019 11:10:00 31.4 C 41 % 16.56 C
3016 26-07-2019 11:15:00 31.5 C 40 % 16.26 C
3017 26-07-2019 11:20:00 31.7 C 39 % 16.04 C
3018 26-07-2019 11:25:00 31.9 C 40 % 16.62 C
3019 26-07-2019 11:30:00 32.1 C 38 % 15.99 C
3020 26-07-2019 11:35:00 32.3 C 40 % 16.97 C
3021 26-07-2019 11:40:00 32.6 C 39 % 16.84 C
3022 26-07-2019 11:45:00 32.8 C 37 % 16.19 C
3023 26-07-2019 11:50:00 32.9 C 37 % 16.28 C
3024 26-07-2019 11:55:00 33.2 C 37 % 16.54 C
3025 26-07-2019 12:00:00 33.4 C 36 % 16.29 C
Sensor: Nr:Datum:Temp:Feuchte:Taupunkt:
Aussen-T/F 3026 26-07-2019 12:05:00 33.6 C 35 % 16.02 C
3027 26-07-2019 12:10:00 33.7 C 37 % 16.98 C
3028 26-07-2019 12:15:00 33.8 C 35 % 16.19 C
3029 26-07-2019 12:20:00 34.1 C 35 % 16.46 C
3030 26-07-2019 12:25:00 34.2 C 36 % 16.99 C
3031 26-07-2019 12:30:00 34.3 C 34 % 16.18 C
3032 26-07-2019 12:35:00 34.5 C 34 % 16.35 C
3033 26-07-2019 12:40:00 34.8 C 34 % 16.61 C
3034 26-07-2019 12:45:00 35.1 C 33 % 16.4 C
3035 26-07-2019 12:50:00 35.3 C 33 % 16.58 C
3036 26-07-2019 12:55:00 35.4 C 32 % 16.18 C
3037 26-07-2019 13:00:00 35.5 C 32 % 16.27 C
3038 26-07-2019 13:05:00 35.6 C 31 % 15.86 C
3039 26-07-2019 13:10:00 35.7 C 31 % 15.94 C
3040 26-07-2019 13:15:00 35.7 C 32 % 16.44 C
3041 26-07-2019 13:20:00 35.8 C 32 % 16.53 C
3042 26-07-2019 13:25:00 35.8 C 31 % 16.03 C
3043 26-07-2019 13:30:00 35.9 C 30 % 15.6 C
3044 26-07-2019 13:35:00 36.1 C 31 % 16.29 C
3045 26-07-2019 13:40:00 36.2 C 31 % 16.37 C
3046 26-07-2019 13:45:00 36.4 C 31 % 16.54 C
3047 26-07-2019 13:50:00 36.6 C 30 % 16.2 C
3048 26-07-2019 13:55:00 36.8 C 29 % 15.84 C
3049 26-07-2019 14:00:00 36.9 C 29 % 15.93 C
3050 26-07-2019 14:05:00 36.9 C 28 % 15.38 C
Sensor: Nr:Datum:Temp:Feuchte:Taupunkt:
Aussen-T/F 3051 26-07-2019 14:10:00 36.8 C 28 % 15.29 C
3052 26-07-2019 14:15:00 36.9 C 28 % 15.38 C
3053 26-07-2019 14:20:00 37.1 C 29 % 16.1 C
3054 26-07-2019 14:25:00 37.4 C 27 % 15.24 C
3055 26-07-2019 14:30:00 37.6 C 26 % 14.82 C
3056 26-07-2019 14:35:00 37.8 C 26 % 14.99 C
3057 26-07-2019 14:40:00 37.8 C 26 % 14.99 C
3058 26-07-2019 14:45:00 37.7 C 24 % 13.67 C
3059 26-07-2019 14:50:00 37.7 C 26 % 14.9 C
3060 26-07-2019 14:55:00 37.7 C 24 % 13.67 C
3061 26-07-2019 15:00:00 38.1 C 25 % 14.63 C
3062 26-07-2019 15:05:00 38.3 C 25 % 14.8 C
3063 26-07-2019 15:10:00 38.6 C 24 % 14.42 C
3064 26-07-2019 15:15:00 38.7 C 25 % 15.13 C
3065 26-07-2019 15:20:00 38.3 C 27 % 16 C
3066 26-07-2019 15:25:00 37.3 C 30 % 16.8 C
3067 26-07-2019 15:30:00 36.8 C 30 % 16.37 C
3068 26-07-2019 15:35:00 36.3 C 31 % 16.46 C
3069 26-07-2019 15:40:00 35.9 C 31 % 16.11 C
3070 26-07-2019 15:45:00 35.6 C 32 % 16.35 C
3071 26-07-2019 15:50:00 35.7 C 30 % 15.43 C
3072 26-07-2019 15:55:00 35.6 C 30 % 15.34 C
3073 26-07-2019 16:00:00 35.4 C 31 % 15.68 C
3074 26-07-2019 16:05:00 35.3 C 32 % 16.09 C
3075 26-07-2019 16:10:00 35.4 C 32 % 16.18 C
Sensor: Nr:Datum:Temp:Feuchte:Taupunkt:
Aussen-T/F 3076 26-07-2019 16:15:00 35.4 C 31 % 15.68 C
3077 26-07-2019 16:20:00 35.5 C 32 % 16.27 C
3078 26-07-2019 16:25:00 35.6 C 37 % 18.65 C
3079 26-07-2019 16:30:00 35.6 C 39 % 19.5 C
3080 26-07-2019 16:35:00 35.6 C 40 % 19.91 C
3081 26-07-2019 16:40:00 35.3 C 32 % 16.09 C
3082 26-07-2019 16:45:00 34.9 C 34 % 16.7 C
3083 26-07-2019 16:50:00 34.8 C 35 % 17.07 C
3084 26-07-2019 16:55:00 34.6 C 33 % 15.97 C
3085 26-07-2019 17:00:00 34.2 C 35 % 16.54 C
3086 26-07-2019 17:05:00 34.1 C 42 % 19.35 C
3087 26-07-2019 17:10:00 33.5 C 39 % 17.64 C
3088 26-07-2019 17:15:00 32.9 C 40 % 17.51 C
3089 26-07-2019 17:20:00 32.6 C 42 % 18.01 C
3090 26-07-2019 17:25:00 32.4 C 44 % 18.57 C
3091 26-07-2019 17:30:00 32.2 C 45 % 18.75 C
3092 26-07-2019 17:35:00 31.9 C 46 % 18.83 C
3093 26-07-2019 17:40:00 31.8 C 43 % 17.67 C
3094 26-07-2019 17:45:00 31.7 C 44 % 17.94 C
3095 26-07-2019 17:50:00 31.4 C 45 % 18.03 C
3096 26-07-2019 17:55:00 31.3 C 44 % 17.58 C
3097 26-07-2019 18:00:00 31.2 C 45 % 17.85 C
3098 26-07-2019 18:05:00 31.1 C 45 % 17.76 C
3099 26-07-2019 18:10:00 30.9 C 44 % 17.22 C
3100 26-07-2019 18:15:00 30.9 C 44 % 17.22 C
Sensor: Nr:Datum:Temp:Feuchte:Taupunkt:
Aussen-T/F 3101 26-07-2019 18:20:00 30.8 C 44 % 17.13 C
3102 26-07-2019 18:25:00 30.7 C 45 % 17.4 C
3103 26-07-2019 18:30:00 30.6 C 45 % 17.31 C
3104 26-07-2019 18:35:00 30.3 C 46 % 17.39 C
3105 26-07-2019 18:40:00 30.1 C 46 % 17.2 C
3106 26-07-2019 18:45:00 29.7 C 46 % 16.84 C
3107 26-07-2019 18:50:00 29.6 C 48 % 17.42 C
3108 26-07-2019 18:55:00 29.4 C 48 % 17.24 C
3109 26-07-2019 19:00:00 29.3 C 49 % 17.48 C
3110 26-07-2019 19:05:00 29.3 C 50 % 17.8 C
3111 26-07-2019 19:10:00 29.2 C 50 % 17.71 C
3112 26-07-2019 19:15:00 29.1 C 50 % 17.61 C
3113 26-07-2019 19:20:00 29.1 C 52 % 18.24 C
3114 26-07-2019 19:25:00 28.9 C 51 % 17.74 C
3115 26-07-2019 19:30:00 28.8 C 53 % 18.26 C
3116 26-07-2019 19:35:00 28.7 C 53 % 18.17 C
3117 26-07-2019 19:40:00 28.6 C 54 % 18.38 C
3118 26-07-2019 19:45:00 28.4 C 54 % 18.19 C
3119 26-07-2019 19:50:00 28.3 C 54 % 18.1 C
3120 26-07-2019 19:55:00 28.2 C 56 % 18.59 C
3121 26-07-2019 20:00:00 28.1 C 56 % 18.49 C
3122 26-07-2019 20:05:00 28 C 56 % 18.4 C
3123 26-07-2019 20:10:00 27.9 C 57 % 18.59 C
3124 26-07-2019 20:15:00 27.8 C 57 % 18.5 C
3125 26-07-2019 20:20:00 27.7 C 58 % 18.68 C
Sensor: Nr:Datum:Temp:Feuchte:Taupunkt:
Aussen-T/F 3126 26-07-2019 20:25:00 27.6 C 57 % 18.31 C
3127 26-07-2019 20:30:00 27.5 C 59 % 18.77 C
3128 26-07-2019 20:35:00 27.4 C 57 % 18.13 C
3129 26-07-2019 20:40:00 27.2 C 59 % 18.49 C
3130 26-07-2019 20:45:00 27.1 C 59 % 18.4 C
3131 26-07-2019 20:50:00 27.1 C 59 % 18.4 C
3132 26-07-2019 20:55:00 26.9 C 59 % 18.21 C
3133 26-07-2019 21:00:00 26.8 C 59 % 18.11 C
3134 26-07-2019 21:05:00 26.7 C 59 % 18.02 C
3135 26-07-2019 21:10:00 26.7 C 59 % 18.02 C
3136 26-07-2019 21:15:00 26.6 C 60 % 18.2 C
3137 26-07-2019 21:20:00 26.4 C 59 % 17.74 C
3138 26-07-2019 21:25:00 26.3 C 59 % 17.65 C
3139 26-07-2019 21:30:00 26.2 C 59 % 17.55 C
3140 26-07-2019 21:35:00 26.2 C 59 % 17.55 C
3141 26-07-2019 21:40:00 26.1 C 59 % 17.46 C
3142 26-07-2019 21:45:00 26.1 C 60 % 17.73 C
3143 26-07-2019 21:50:00 26 C 60 % 17.63 C
3144 26-07-2019 21:55:00 25.9 C 60 % 17.54 C
3145 26-07-2019 22:00:00 25.9 C 60 % 17.54 C
3146 26-07-2019 22:05:00 25.8 C 61 % 17.71 C
3147 26-07-2019 22:10:00 25.7 C 61 % 17.61 C
3148 26-07-2019 22:15:00 25.7 C 61 % 17.61 C
3149 26-07-2019 22:20:00 25.7 C 62 % 17.87 C
3150 26-07-2019 22:25:00 25.7 C 62 % 17.87 C
Sensor: Nr:Datum:Temp:Feuchte:Taupunkt:
Aussen-T/F 3151 26-07-2019 22:30:00 25.6 C 63 % 18.03 C
3152 26-07-2019 22:35:00 25.4 C 63 % 17.84 C
3153 26-07-2019 22:40:00 25.3 C 62 % 17.5 C
3154 26-07-2019 22:45:00 25.2 C 63 % 17.65 C
3155 26-07-2019 22:50:00 25.1 C 63 % 17.56 C
3156 26-07-2019 22:55:00 24.9 C 64 % 17.62 C
3157 26-07-2019 23:00:00 24.8 C 65 % 17.77 C
3158 26-07-2019 23:05:00 24.8 C 65 % 17.77 C
3159 26-07-2019 23:10:00 24.7 C 66 % 17.92 C
3160 26-07-2019 23:15:00 24.6 C 66 % 17.83 C
3161 26-07-2019 23:20:00 24.5 C 67 % 17.97 C
3162 26-07-2019 23:25:00 24.4 C 67 % 17.87 C
3163 26-07-2019 23:30:00 24.3 C 67 % 17.78 C
3164 26-07-2019 23:35:00 24.2 C 67 % 17.68 C
3165 26-07-2019 23:40:00 24.2 C 67 % 17.68 C
3166 26-07-2019 23:45:00 24.1 C 68 % 17.82 C
3167 26-07-2019 23:50:00 23.9 C 68 % 17.63 C
3168 26-07-2019 23:55:00 23.8 C 68 % 17.54 C
3169 27-07-2019 00:00:00 23.6 C 69 % 17.58 C
3170 27-07-2019 00:05:00 23.4 C 69 % 17.39 C
3171 27-07-2019 00:10:00 23.3 C 69 % 17.29 C
3172 27-07-2019 00:15:00 23.3 C 70 % 17.52 C
3173 27-07-2019 00:20:00 23.2 C 70 % 17.42 C
3174 27-07-2019 00:25:00 23.2 C 70 % 17.42 C
3175 27-07-2019 00:30:00 23.1 C 70 % 17.33 C
Sensor: Nr:Datum:Temp:Feuchte:Taupunkt:
Aussen-T/F 3176 27-07-2019 00:35:00 23.1 C 71 % 17.55 C
3177 27-07-2019 00:40:00 23 C 71 % 17.46 C
3178 27-07-2019 00:45:00 22.9 C 71 % 17.36 C
3179 27-07-2019 00:50:00 22.9 C 71 % 17.36 C
3180 27-07-2019 00:55:00 22.8 C 72 % 17.49 C
3181 27-07-2019 01:00:00 22.8 C 72 % 17.49 C
3182 27-07-2019 01:05:00 22.7 C 72 % 17.39 C
3183 27-07-2019 01:10:00 22.7 C 73 % 17.61 C
3184 27-07-2019 01:15:00 22.6 C 73 % 17.51 C
3185 27-07-2019 01:20:00 22.7 C 74 % 17.83 C
3186 27-07-2019 01:25:00 22.7 C 73 % 17.61 C
3187 27-07-2019 01:30:00 22.7 C 73 % 17.61 C
3188 27-07-2019 01:35:00 22.7 C 73 % 17.61 C
3189 27-07-2019 01:40:00 22.7 C 74 % 17.83 C
3190 27-07-2019 01:45:00 22.6 C 74 % 17.73 C
3191 27-07-2019 01:50:00 22.4 C 74 % 17.54 C
3192 27-07-2019 01:55:00 22.3 C 74 % 17.44 C
3193 27-07-2019 02:00:00 22.3 C 74 % 17.44 C
3194 27-07-2019 02:05:00 22.3 C 73 % 17.23 C
3195 27-07-2019 02:10:00 22.3 C 73 % 17.23 C
3196 27-07-2019 02:15:00 22.3 C 75 % 17.65 C
3197 27-07-2019 02:20:00 22.4 C 75 % 17.75 C
3198 27-07-2019 02:25:00 22.4 C 76 % 17.96 C
3199 27-07-2019 02:30:00 22.4 C 76 % 17.96 C
3200 27-07-2019 02:35:00 22.4 C 76 % 17.96 C
Sensor: Nr:Datum:Temp:Feuchte:Taupunkt:
Aussen-T/F 3201 27-07-2019 02:40:00 22.3 C 76 % 17.86 C
3202 27-07-2019 02:45:00 22.3 C 76 % 17.86 C
3203 27-07-2019 02:50:00 22.3 C 76 % 17.86 C
3204 27-07-2019 02:55:00 22.3 C 76 % 17.86 C
3205 27-07-2019 03:00:00 22.3 C 76 % 17.86 C
3206 27-07-2019 03:05:00 22.3 C 76 % 17.86 C
3207 27-07-2019 03:10:00 22.3 C 74 % 17.44 C
3208 27-07-2019 03:15:00 22.4 C 74 % 17.54 C
3209 27-07-2019 03:20:00 22.5 C 73 % 17.42 C
3210 27-07-2019 03:25:00 22.6 C 72 % 17.3 C
3211 27-07-2019 03:30:00 22.6 C 71 % 17.07 C
3212 27-07-2019 03:35:00 22.8 C 69 % 16.82 C
3213 27-07-2019 03:40:00 23.2 C 75 % 18.52 C
3214 27-07-2019 03:45:00 23.1 C 78 % 19.05 C
3215 27-07-2019 03:50:00 22.7 C 79 % 18.87 C
3216 27-07-2019 03:55:00 22.3 C 80 % 18.68 C
3217 27-07-2019 04:00:00 21.9 C 83 % 18.88 C
3218 27-07-2019 04:05:00 21.7 C 84 % 18.88 C
3219 27-07-2019 04:10:00 21.4 C 85 % 18.77 C
3220 27-07-2019 04:15:00 21.1 C 85 % 18.48 C
3221 27-07-2019 04:20:00 20.9 C 86 % 18.47 C
3222 27-07-2019 04:25:00 20.8 C 87 % 18.56 C
3223 27-07-2019 04:30:00 20.7 C 87 % 18.46 C
3224 27-07-2019 04:35:00 20.6 C 87 % 18.36 C
3225 27-07-2019 04:40:00 20.5 C 88 % 18.44 C
Sensor: Nr:Datum:Temp:Feuchte:Taupunkt:
Aussen-T/F 3226 27-07-2019 04:45:00 20.4 C 88 % 18.34 C
3227 27-07-2019 04:50:00 20.4 C 88 % 18.34 C
3228 27-07-2019 04:55:00 20.4 C 89 % 18.53 C
3229 27-07-2019 05:00:00 20.4 C 88 % 18.34 C
3230 27-07-2019 05:05:00 20.4 C 88 % 18.34 C
3231 27-07-2019 05:10:00 20.3 C 89 % 18.43 C
3232 27-07-2019 05:15:00 20.3 C 89 % 18.43 C
3233 27-07-2019 05:20:00 20.3 C 89 % 18.43 C
3234 27-07-2019 05:25:00 20.3 C 89 % 18.43 C
3235 27-07-2019 05:30:00 20.2 C 89 % 18.33 C
3236 27-07-2019 05:35:00 20.3 C 89 % 18.43 C
3237 27-07-2019 05:40:00 20.2 C 89 % 18.33 C
3238 27-07-2019 05:45:00 20.2 C 89 % 18.33 C
3239 27-07-2019 05:50:00 20.2 C 89 % 18.33 C
3240 27-07-2019 05:55:00 20.2 C 88 % 18.15 C
3241 27-07-2019 06:00:00 20.2 C 88 % 18.15 C
3242 27-07-2019 06:05:00 20.3 C 89 % 18.43 C
3243 27-07-2019 06:10:00 20.3 C 88 % 18.25 C
3244 27-07-2019 06:15:00 20.3 C 89 % 18.43 C
3245 27-07-2019 06:20:00 20.3 C 88 % 18.25 C
3246 27-07-2019 06:25:00 20.4 C 89 % 18.53 C
3247 27-07-2019 06:30:00 20.6 C 89 % 18.72 C
3248 27-07-2019 06:35:00 20.7 C 89 % 18.82 C
3249 27-07-2019 06:40:00 20.7 C 88 % 18.64 C
3250 27-07-2019 06:45:00 20.8 C 88 % 18.74 C
Sensor: Nr:Datum:Temp:Feuchte:Taupunkt:
Aussen-T/F 3251 27-07-2019 06:50:00 20.8 C 89 % 18.92 C
3252 27-07-2019 06:55:00 20.9 C 89 % 19.02 C
3253 27-07-2019 07:00:00 20.9 C 89 % 19.02 C
3254 27-07-2019 07:05:00 21 C 89 % 19.12 C
3255 27-07-2019 07:10:00 20.9 C 88 % 18.84 C
3256 27-07-2019 07:15:00 21 C 89 % 19.12 C
3257 27-07-2019 07:20:00 21.1 C 88 % 19.03 C
3258 27-07-2019 07:25:00 21.2 C 88 % 19.13 C
3259 27-07-2019 07:30:00 21.3 C 89 % 19.41 C
3260 27-07-2019 07:35:00 21.4 C 89 % 19.51 C
3261 27-07-2019 07:40:00 21.4 C 88 % 19.33 C
3262 27-07-2019 07:45:00 21.5 C 88 % 19.43 C
3263 27-07-2019 07:50:00 21.6 C 87 % 19.34 C
3264 27-07-2019 07:55:00 21.7 C 86 % 19.25 C
3265 27-07-2019 08:00:00 21.8 C 86 % 19.35 C
3266 27-07-2019 08:05:00 21.9 C 86 % 19.45 C
3267 27-07-2019 08:10:00 22.1 C 86 % 19.65 C
3268 27-07-2019 08:15:00 22.1 C 84 % 19.27 C
3269 27-07-2019 08:20:00 22.2 C 83 % 19.17 C
3270 27-07-2019 08:25:00 22.3 C 82 % 19.08 C
3271 27-07-2019 08:30:00 22.5 C 81 % 19.08 C
3272 27-07-2019 08:35:00 22.8 C 80 % 19.17 C
3273 27-07-2019 08:40:00 23 C 78 % 18.96 C
3274 27-07-2019 08:45:00 23.2 C 78 % 19.15 C
3275 27-07-2019 08:50:00 23.4 C 77 % 19.14 C
Sensor: Nr:Datum:Temp:Feuchte:Taupunkt:
Aussen-T/F 3276 27-07-2019 08:55:00 23.6 C 76 % 19.12 C
3277 27-07-2019 09:00:00 23.8 C 76 % 19.31 C
3278 27-07-2019 09:05:00 24.1 C 76 % 19.6 C
3279 27-07-2019 09:10:00 24.3 C 76 % 19.8 C
3280 27-07-2019 09:15:00 24.4 C 74 % 19.46 C
3281 27-07-2019 09:20:00 24.6 C 73 % 19.44 C
3282 27-07-2019 09:25:00 24.8 C 73 % 19.63 C
3283 27-07-2019 09:30:00 24.9 C 73 % 19.72 C
3284 27-07-2019 09:35:00 25.1 C 73 % 19.92 C
3285 27-07-2019 09:40:00 25.1 C 72 % 19.69 C
3286 27-07-2019 09:45:00 25.2 C 72 % 19.79 C
3287 27-07-2019 09:50:00 25.2 C 72 % 19.79 C
3288 27-07-2019 09:55:00 25.2 C 72 % 19.79 C
3289 27-07-2019 10:00:00 25.2 C 72 % 19.79 C
3290 27-07-2019 10:05:00 25.3 C 71 % 19.66 C
3291 27-07-2019 10:10:00 25.3 C 71 % 19.66 C
3292 27-07-2019 10:15:00 25.3 C 80 % 21.6 C
3293 27-07-2019 10:20:00 25 C 82 % 21.71 C
3294 27-07-2019 10:25:00 24.7 C 84 % 21.81 C
3295 27-07-2019 10:30:00 24.4 C 85 % 21.71 C
3296 27-07-2019 10:35:00 24.2 C 86 % 21.71 C
3297 27-07-2019 10:40:00 24.1 C 87 % 21.8 C
3298 27-07-2019 10:45:00 24.1 C 88 % 21.99 C
3299 27-07-2019 10:50:00 24.1 C 87 % 21.8 C
3300 27-07-2019 10:55:00 24 C 87 % 21.7 C
Sensor: Nr:Datum:Temp:Feuchte:Taupunkt:
Aussen-T/F 3301 27-07-2019 11:00:00 24 C 88 % 21.89 C
3302 27-07-2019 11:05:00 24.1 C 88 % 21.99 C
3303 27-07-2019 11:10:00 24.1 C 88 % 21.99 C
3304 27-07-2019 11:15:00 24.1 C 88 % 21.99 C
3305 27-07-2019 11:20:00 24.2 C 88 % 22.08 C
3306 27-07-2019 11:25:00 24.2 C 88 % 22.08 C
3307 27-07-2019 11:30:00 24.2 C 87 % 21.9 C
3308 27-07-2019 11:35:00 24 C 85 % 21.32 C
3309 27-07-2019 11:40:00 23.9 C 85 % 21.22 C
3310 27-07-2019 11:45:00 23.7 C 85 % 21.03 C
3311 27-07-2019 11:50:00 23.5 C 84 % 20.64 C
3312 27-07-2019 11:55:00 23.3 C 85 % 20.63 C
3313 27-07-2019 12:00:00 23.2 C 85 % 20.54 C
3314 27-07-2019 12:05:00 23.2 C 87 % 20.91 C
3315 27-07-2019 12:10:00 23.2 C 88 % 21.1 C
3316 27-07-2019 12:15:00 23.2 C 88 % 21.1 C
3317 27-07-2019 12:20:00 23.2 C 86 % 20.73 C
3318 27-07-2019 12:25:00 23.3 C 85 % 20.63 C
3319 27-07-2019 12:30:00 23.5 C 84 % 20.64 C
3320 27-07-2019 12:35:00 23.8 C 81 % 20.34 C
3321 27-07-2019 12:40:00 24.1 C 80 % 20.43 C
3322 27-07-2019 12:45:00 24.4 C 82 % 21.12 C
3323 27-07-2019 12:50:00 24.8 C 78 % 20.7 C
3324 27-07-2019 12:55:00 25.1 C 78 % 20.99 C
3325 27-07-2019 13:00:00 25.3 C 75 % 20.55 C
Sensor: Nr:Datum:Temp:Feuchte:Taupunkt:
Aussen-T/F 3326 27-07-2019 13:05:00 25.5 C 76 % 20.95 C
3327 27-07-2019 13:10:00 25.7 C 74 % 20.71 C
3328 27-07-2019 13:15:00 26 C 75 % 21.22 C
3329 27-07-2019 13:20:00 26.2 C 74 % 21.2 C
3330 27-07-2019 13:25:00 26.2 C 74 % 21.2 C
3331 27-07-2019 13:30:00 26.1 C 75 % 21.32 C
3332 27-07-2019 13:35:00 26.2 C 75 % 21.41 C
3333 27-07-2019 13:40:00 26.2 C 74 % 21.2 C
3334 27-07-2019 13:45:00 26.2 C 72 % 20.75 C
3335 27-07-2019 13:50:00 26.2 C 70 % 20.29 C
3336 27-07-2019 13:55:00 26.2 C 72 % 20.75 C
3337 27-07-2019 14:00:00 26.2 C 69 % 20.06 C
3338 27-07-2019 14:05:00 26.1 C 70 % 20.2 C
3339 27-07-2019 14:10:00 25.9 C 70 % 20.01 C
3340 27-07-2019 14:15:00 25.9 C 68 % 19.54 C
3341 27-07-2019 14:20:00 25.8 C 70 % 19.91 C
3342 27-07-2019 14:25:00 25.7 C 69 % 19.58 C
3343 27-07-2019 14:30:00 25.6 C 71 % 19.95 C
3344 27-07-2019 14:35:00 25.5 C 71 % 19.85 C
3345 27-07-2019 14:40:00 25.5 C 73 % 20.3 C
3346 27-07-2019 14:45:00 25.5 C 73 % 20.3 C
3347 27-07-2019 14:50:00 25.5 C 75 % 20.74 C
3348 27-07-2019 14:55:00 25.5 C 74 % 20.52 C
3349 27-07-2019 15:00:00 25.3 C 74 % 20.33 C
3350 27-07-2019 15:05:00 25.1 C 74 % 20.14 C
Sensor: Nr:Datum:Temp:Feuchte:Taupunkt:
Aussen-T/F 3351 27-07-2019 15:10:00 24.8 C 74 % 19.85 C
3352 27-07-2019 15:15:00 24.7 C 75 % 19.97 C
3353 27-07-2019 15:20:00 24.7 C 75 % 19.97 C
3354 27-07-2019 15:25:00 24.8 C 75 % 20.06 C
3355 27-07-2019 15:30:00 24.8 C 74 % 19.85 C
3356 27-07-2019 15:35:00 25 C 74 % 20.04 C
3357 27-07-2019 15:40:00 25.1 C 74 % 20.14 C
3358 27-07-2019 15:45:00 25.2 C 73 % 20.01 C
3359 27-07-2019 15:50:00 25.4 C 73 % 20.21 C
3360 27-07-2019 15:55:00 25.6 C 74 % 20.62 C
3361 27-07-2019 16:00:00 25.8 C 72 % 20.37 C
3362 27-07-2019 16:05:00 26.1 C 70 % 20.2 C
3363 27-07-2019 16:10:00 26.2 C 68 % 19.82 C
3364 27-07-2019 16:15:00 26.2 C 67 % 19.59 C
3365 27-07-2019 16:20:00 26.2 C 68 % 19.82 C
3366 27-07-2019 16:25:00 26.3 C 68 % 19.92 C
3367 27-07-2019 16:30:00 26.3 C 67 % 19.68 C
3368 27-07-2019 16:35:00 26.2 C 67 % 19.59 C
3369 27-07-2019 16:40:00 25.9 C 68 % 19.54 C
3370 27-07-2019 16:45:00 25.7 C 67 % 19.11 C
3371 27-07-2019 16:50:00 25.5 C 69 % 19.39 C
3372 27-07-2019 16:55:00 25.2 C 71 % 19.56 C
3373 27-07-2019 17:00:00 24.9 C 73 % 19.72 C
3374 27-07-2019 17:05:00 24.6 C 74 % 19.66 C
3375 27-07-2019 17:10:00 24.5 C 76 % 19.99 C
Sensor: Nr:Datum:Temp:Feuchte:Taupunkt:
Aussen-T/F 3376 27-07-2019 17:15:00 24.5 C 77 % 20.2 C
3377 27-07-2019 17:20:00 24.5 C 77 % 20.2 C
3378 27-07-2019 17:25:00 24.5 C 77 % 20.2 C
3379 27-07-2019 17:30:00 24.4 C 76 % 19.89 C
3380 27-07-2019 17:35:00 24.4 C 76 % 19.89 C
3381 27-07-2019 17:40:00 24.4 C 77 % 20.1 C
3382 27-07-2019 17:45:00 24.4 C 76 % 19.89 C
3383 27-07-2019 17:50:00 24.4 C 76 % 19.89 C
3384 27-07-2019 17:55:00 24.4 C 76 % 19.89 C
3385 27-07-2019 18:00:00 24.4 C 77 % 20.1 C
3386 27-07-2019 18:05:00 24.4 C 77 % 20.1 C
3387 27-07-2019 18:10:00 24.4 C 76 % 19.89 C
3388 27-07-2019 18:15:00 24.6 C 77 % 20.3 C
3389 27-07-2019 18:20:00 24.8 C 76 % 20.28 C
3390 27-07-2019 18:25:00 25.1 C 75 % 20.35 C
3391 27-07-2019 18:30:00 25.4 C 75 % 20.64 C
3392 27-07-2019 18:35:00 25.3 C 75 % 20.55 C
3393 27-07-2019 18:40:00 25.3 C 75 % 20.55 C
3394 27-07-2019 18:45:00 25.2 C 75 % 20.45 C
3395 27-07-2019 18:50:00 25.1 C 75 % 20.35 C
3396 27-07-2019 18:55:00 24.9 C 76 % 20.38 C
3397 27-07-2019 19:00:00 24.7 C 77 % 20.39 C
3398 27-07-2019 19:05:00 24.5 C 77 % 20.2 C
3399 27-07-2019 19:10:00 24.3 C 76 % 19.8 C
3400 27-07-2019 19:15:00 24.1 C 77 % 19.81 C
Sensor: Nr:Datum:Temp:Feuchte:Taupunkt:
Aussen-T/F 3401 27-07-2019 19:20:00 23.9 C 79 % 20.03 C
3402 27-07-2019 19:25:00 23.8 C 81 % 20.34 C
3403 27-07-2019 19:30:00 23.7 C 82 % 20.44 C
3404 27-07-2019 19:35:00 23.6 C 83 % 20.54 C
3405 27-07-2019 19:40:00 23.4 C 84 % 20.54 C
3406 27-07-2019 19:45:00 23.4 C 84 % 20.54 C
3407 27-07-2019 19:50:00 23.4 C 85 % 20.73 C
3408 27-07-2019 19:55:00 23.3 C 84 % 20.44 C
3409 27-07-2019 20:00:00 23.2 C 84 % 20.34 C
3410 27-07-2019 20:05:00 23.1 C 85 % 20.44 C
3411 27-07-2019 20:10:00 23.1 C 85 % 20.44 C
3412 27-07-2019 20:15:00 23 C 85 % 20.34 C
3413 27-07-2019 20:20:00 23 C 85 % 20.34 C
3414 27-07-2019 20:25:00 22.9 C 85 % 20.24 C
3415 27-07-2019 20:30:00 22.8 C 85 % 20.14 C
3416 27-07-2019 20:35:00 22.8 C 85 % 20.14 C
3417 27-07-2019 20:40:00 22.8 C 85 % 20.14 C
3418 27-07-2019 20:45:00 22.7 C 85 % 20.05 C
3419 27-07-2019 20:50:00 22.6 C 85 % 19.95 C
3420 27-07-2019 20:55:00 22.6 C 85 % 19.95 C
3421 27-07-2019 21:00:00 22.4 C 85 % 19.75 C
3422 27-07-2019 21:05:00 22.4 C 85 % 19.75 C
3423 27-07-2019 21:10:00 22.3 C 85 % 19.65 C
3424 27-07-2019 21:15:00 22.3 C 85 % 19.65 C
3425 27-07-2019 21:20:00 22.2 C 86 % 19.75 C
Sensor: Nr:Datum:Temp:Feuchte:Taupunkt:
Aussen-T/F 3426 27-07-2019 21:25:00 22.1 C 86 % 19.65 C
3427 27-07-2019 21:30:00 22.1 C 86 % 19.65 C
3428 27-07-2019 21:35:00 21.9 C 86 % 19.45 C
3429 27-07-2019 21:40:00 21.9 C 86 % 19.45 C
3430 27-07-2019 21:45:00 21.8 C 86 % 19.35 C
3431 27-07-2019 21:50:00 21.8 C 86 % 19.35 C
3432 27-07-2019 21:55:00 21.7 C 86 % 19.25 C
3433 27-07-2019 22:00:00 21.7 C 86 % 19.25 C
3434 27-07-2019 22:05:00 21.6 C 87 % 19.34 C
3435 27-07-2019 22:10:00 21.6 C 87 % 19.34 C
3436 27-07-2019 22:15:00 21.6 C 87 % 19.34 C
3437 27-07-2019 22:20:00 21.5 C 87 % 19.24 C
3438 27-07-2019 22:25:00 21.4 C 87 % 19.15 C
3439 27-07-2019 22:30:00 21.4 C 87 % 19.15 C
3440 27-07-2019 22:35:00 21.4 C 87 % 19.15 C
3441 27-07-2019 22:40:00 21.3 C 87 % 19.05 C
3442 27-07-2019 22:45:00 21.3 C 88 % 19.23 C
3443 27-07-2019 22:50:00 21.3 C 88 % 19.23 C
3444 27-07-2019 22:55:00 21.3 C 88 % 19.23 C
3445 27-07-2019 23:00:00 21.3 C 88 % 19.23 C
3446 27-07-2019 23:05:00 21.2 C 88 % 19.13 C
3447 27-07-2019 23:10:00 21.2 C 88 % 19.13 C
3448 27-07-2019 23:15:00 21.2 C 89 % 19.31 C
3449 27-07-2019 23:20:00 21.2 C 89 % 19.31 C
3450 27-07-2019 23:25:00 21.2 C 89 % 19.31 C
Sensor: Nr:Datum:Temp:Feuchte:Taupunkt:
Aussen-T/F 3451 27-07-2019 23:30:00 21.1 C 89 % 19.22 C
3452 27-07-2019 23:35:00 21.1 C 89 % 19.22 C
3453 27-07-2019 23:40:00 21.1 C 89 % 19.22 C
3454 27-07-2019 23:45:00 21.1 C 89 % 19.22 C
3455 27-07-2019 23:50:00 21 C 89 % 19.12 C
3456 27-07-2019 23:55:00 21 C 89 % 19.12 C
3457 28-07-2019 00:00:00 20.9 C 89 % 19.02 C
3458 28-07-2019 00:05:00 20.9 C 90 % 19.2 C
3459 28-07-2019 00:10:00 20.9 C 90 % 19.2 C
3460 28-07-2019 00:15:00 20.9 C 90 % 19.2 C
3461 28-07-2019 00:20:00 20.8 C 90 % 19.1 C
3462 28-07-2019 00:25:00 20.8 C 90 % 19.1 C
3463 28-07-2019 00:30:00 20.8 C 90 % 19.1 C
3464 28-07-2019 00:35:00 20.8 C 90 % 19.1 C
3465 28-07-2019 00:40:00 20.8 C 90 % 19.1 C
3466 28-07-2019 00:45:00 20.8 C 90 % 19.1 C
3467 28-07-2019 00:50:00 20.8 C 90 % 19.1 C
3468 28-07-2019 00:55:00 20.8 C 90 % 19.1 C
3469 28-07-2019 01:00:00 20.8 C 90 % 19.1 C
3470 28-07-2019 01:05:00 20.7 C 90 % 19 C
3471 28-07-2019 01:10:00 20.7 C 90 % 19 C
3472 28-07-2019 01:15:00 20.7 C 90 % 19 C
3473 28-07-2019 01:20:00 20.7 C 90 % 19 C
3474 28-07-2019 01:25:00 20.7 C 90 % 19 C
3475 28-07-2019 01:30:00 20.7 C 90 % 19 C
Sensor: Nr:Datum:Temp:Feuchte:Taupunkt:
Aussen-T/F 3476 28-07-2019 01:35:00 20.7 C 90 % 19 C
3477 28-07-2019 01:40:00 20.7 C 90 % 19 C
3478 28-07-2019 01:45:00 20.7 C 90 % 19 C
3479 28-07-2019 01:50:00 20.7 C 90 % 19 C
3480 28-07-2019 01:55:00 20.7 C 90 % 19 C
3481 28-07-2019 02:00:00 20.7 C 90 % 19 C
3482 28-07-2019 02:05:00 20.7 C 90 % 19 C
3483 28-07-2019 02:10:00 20.7 C 90 % 19 C
3484 28-07-2019 02:15:00 20.7 C 90 % 19 C
3485 28-07-2019 02:20:00 20.7 C 90 % 19 C
3486 28-07-2019 02:25:00 20.7 C 90 % 19 C
3487 28-07-2019 02:30:00 20.7 C 90 % 19 C
3488 28-07-2019 02:35:00 20.7 C 90 % 19 C
3489 28-07-2019 02:40:00 20.7 C 90 % 19 C
3490 28-07-2019 02:45:00 20.7 C 90 % 19 C
3491 28-07-2019 02:50:00 20.7 C 90 % 19 C
3492 28-07-2019 02:55:00 20.7 C 90 % 19 C
3493 28-07-2019 03:00:00 20.7 C 90 % 19 C
3494 28-07-2019 03:05:00 20.7 C 90 % 19 C
3495 28-07-2019 03:10:00 20.7 C 90 % 19 C
3496 28-07-2019 03:15:00 20.7 C 90 % 19 C
3497 28-07-2019 03:20:00 20.7 C 90 % 19 C
3498 28-07-2019 03:25:00 20.7 C 90 % 19 C
3499 28-07-2019 03:30:00 20.7 C 90 % 19 C
3500 28-07-2019 03:35:00 20.7 C 90 % 19 C
Sensor: Nr:Datum:Temp:Feuchte:Taupunkt:
Aussen-T/F 3501 28-07-2019 03:40:00 20.7 C 90 % 19 C
3502 28-07-2019 03:45:00 20.7 C 90 % 19 C
3503 28-07-2019 03:50:00 20.6 C 90 % 18.9 C
3504 28-07-2019 03:55:00 20.6 C 90 % 18.9 C
3505 28-07-2019 04:00:00 20.7 C 90 % 19 C
3506 28-07-2019 04:05:00 20.6 C 90 % 18.9 C
3507 28-07-2019 04:10:00 20.6 C 91 % 19.08 C
3508 28-07-2019 04:15:00 20.6 C 91 % 19.08 C
3509 28-07-2019 04:20:00 20.6 C 91 % 19.08 C
3510 28-07-2019 04:25:00 20.6 C 91 % 19.08 C
3511 28-07-2019 04:30:00 20.6 C 91 % 19.08 C
3512 28-07-2019 04:35:00 20.6 C 91 % 19.08 C
3513 28-07-2019 04:40:00 20.6 C 91 % 19.08 C
3514 28-07-2019 04:45:00 20.6 C 91 % 19.08 C
3515 28-07-2019 04:50:00 20.6 C 91 % 19.08 C
3516 28-07-2019 04:55:00 20.6 C 91 % 19.08 C
3517 28-07-2019 05:00:00 20.6 C 91 % 19.08 C
3518 28-07-2019 05:05:00 20.6 C 91 % 19.08 C
3519 28-07-2019 05:10:00 20.6 C 91 % 19.08 C
3520 28-07-2019 05:15:00 20.6 C 91 % 19.08 C
3521 28-07-2019 05:20:00 20.6 C 91 % 19.08 C
3522 28-07-2019 05:25:00 20.6 C 91 % 19.08 C
3523 28-07-2019 05:30:00 20.5 C 91 % 18.98 C
3524 28-07-2019 05:35:00 20.5 C 91 % 18.98 C
3525 28-07-2019 05:40:00 20.5 C 91 % 18.98 C
Sensor: Nr:Datum:Temp:Feuchte:Taupunkt:
Aussen-T/F 3526 28-07-2019 05:45:00 20.5 C 91 % 18.98 C
3527 28-07-2019 05:50:00 20.5 C 91 % 18.98 C
3528 28-07-2019 05:55:00 20.5 C 91 % 18.98 C
3529 28-07-2019 06:00:00 20.5 C 91 % 18.98 C
3530 28-07-2019 06:05:00 20.5 C 91 % 18.98 C
3531 28-07-2019 06:10:00 20.5 C 91 % 18.98 C
3532 28-07-2019 06:15:00 20.5 C 91 % 18.98 C
3533 28-07-2019 06:20:00 20.5 C 91 % 18.98 C
3534 28-07-2019 06:25:00 20.5 C 91 % 18.98 C
3535 28-07-2019 06:30:00 20.5 C 91 % 18.98 C
3536 28-07-2019 06:35:00 20.6 C 91 % 19.08 C
3537 28-07-2019 06:40:00 20.6 C 91 % 19.08 C
3538 28-07-2019 06:45:00 20.6 C 91 % 19.08 C
3539 28-07-2019 06:50:00 20.6 C 91 % 19.08 C
3540 28-07-2019 06:55:00 20.6 C 91 % 19.08 C
3541 28-07-2019 07:00:00 20.6 C 91 % 19.08 C
3542 28-07-2019 07:05:00 20.7 C 91 % 19.18 C
3543 28-07-2019 07:10:00 20.7 C 91 % 19.18 C
3544 28-07-2019 07:15:00 20.7 C 90 % 19 C
3545 28-07-2019 07:20:00 20.7 C 90 % 19 C
3546 28-07-2019 07:25:00 20.7 C 90 % 19 C
3547 28-07-2019 07:30:00 20.7 C 90 % 19 C
3548 28-07-2019 07:35:00 20.7 C 90 % 19 C
3549 28-07-2019 07:40:00 20.7 C 90 % 19 C
3550 28-07-2019 07:45:00 20.7 C 89 % 18.82 C
Sensor: Nr:Datum:Temp:Feuchte:Taupunkt:
Aussen-T/F 3551 28-07-2019 07:50:00 20.7 C 89 % 18.82 C
3552 28-07-2019 07:55:00 20.7 C 89 % 18.82 C
3553 28-07-2019 08:00:00 20.7 C 89 % 18.82 C
3554 28-07-2019 08:05:00 20.7 C 89 % 18.82 C
3555 28-07-2019 08:10:00 20.8 C 89 % 18.92 C
3556 28-07-2019 08:15:00 20.8 C 89 % 18.92 C
3557 28-07-2019 08:20:00 20.7 C 89 % 18.82 C
3558 28-07-2019 08:25:00 20.7 C 89 % 18.82 C
3559 28-07-2019 08:30:00 20.7 C 89 % 18.82 C
3560 28-07-2019 08:35:00 20.7 C 89 % 18.82 C
3561 28-07-2019 08:40:00 20.7 C 89 % 18.82 C
3562 28-07-2019 08:45:00 20.7 C 89 % 18.82 C
3563 28-07-2019 08:50:00 20.7 C 89 % 18.82 C
3564 28-07-2019 08:55:00 20.7 C 90 % 19 C
3565 28-07-2019 09:00:00 20.6 C 90 % 18.9 C
3566 28-07-2019 09:05:00 20.6 C 90 % 18.9 C
3567 28-07-2019 09:10:00 20.6 C 90 % 18.9 C
3568 28-07-2019 09:15:00 20.6 C 90 % 18.9 C
3569 28-07-2019 09:20:00 20.5 C 90 % 18.8 C
3570 28-07-2019 09:25:00 20.4 C 90 % 18.7 C
3571 28-07-2019 09:30:00 20.4 C 90 % 18.7 C
3572 28-07-2019 09:35:00 20.3 C 90 % 18.61 C
3573 28-07-2019 09:40:00 20.3 C 91 % 18.78 C
3574 28-07-2019 09:45:00 20.3 C 91 % 18.78 C
3575 28-07-2019 09:50:00 20.3 C 91 % 18.78 C
Sensor: Nr:Datum:Temp:Feuchte:Taupunkt:
Aussen-T/F 3576 28-07-2019 09:55:00 20.2 C 91 % 18.68 C
3577 28-07-2019 10:00:00 20.2 C 91 % 18.68 C
3578 28-07-2019 10:05:00 20.2 C 91 % 18.68 C
3579 28-07-2019 10:10:00 20.2 C 91 % 18.68 C
3580 28-07-2019 10:15:00 20.2 C 91 % 18.68 C
3581 28-07-2019 10:20:00 20.1 C 91 % 18.58 C
3582 28-07-2019 10:25:00 20.1 C 92 % 18.76 C
3583 28-07-2019 10:30:00 19.9 C 92 % 18.56 C
3584 28-07-2019 10:35:00 19.9 C 92 % 18.56 C
3585 28-07-2019 10:40:00 19.9 C 92 % 18.56 C
3586 28-07-2019 10:45:00 19.9 C 93 % 18.73 C
3587 28-07-2019 10:50:00 19.8 C 93 % 18.63 C
3588 28-07-2019 10:55:00 19.9 C 93 % 18.73 C
3589 28-07-2019 11:00:00 19.8 C 93 % 18.63 C
3590 28-07-2019 11:05:00 19.8 C 93 % 18.63 C
3591 28-07-2019 11:10:00 19.8 C 93 % 18.63 C
3592 28-07-2019 11:15:00 19.8 C 93 % 18.63 C
3593 28-07-2019 11:20:00 19.9 C 93 % 18.73 C
3594 28-07-2019 11:25:00 19.9 C 93 % 18.73 C
3595 28-07-2019 11:30:00 20.1 C 92 % 18.76 C
3596 28-07-2019 11:35:00 20.2 C 92 % 18.86 C
3597 28-07-2019 11:40:00 20.3 C 91 % 18.78 C
3598 28-07-2019 11:45:00 20.4 C 90 % 18.7 C
3599 28-07-2019 11:50:00 20.4 C 90 % 18.7 C
3600 28-07-2019 11:55:00 20.6 C 89 % 18.72 C
Sensor: Nr:Datum:Temp:Feuchte:Taupunkt:
Aussen-T/F 3601 28-07-2019 12:00:00 20.6 C 89 % 18.72 C
3602 28-07-2019 12:05:00 20.5 C 89 % 18.62 C
3603 28-07-2019 12:10:00 20.5 C 89 % 18.62 C
3604 28-07-2019 12:15:00 20.5 C 88 % 18.44 C
3605 28-07-2019 12:20:00 20.5 C 88 % 18.44 C
3606 28-07-2019 12:25:00 20.5 C 88 % 18.44 C
3607 28-07-2019 12:30:00 20.4 C 87 % 18.16 C
3608 28-07-2019 12:35:00 20.5 C 87 % 18.26 C
3609 28-07-2019 12:40:00 20.6 C 88 % 18.54 C
3610 28-07-2019 12:45:00 20.5 C 87 % 18.26 C
3611 28-07-2019 12:50:00 20.5 C 87 % 18.26 C
3612 28-07-2019 12:55:00 20.5 C 87 % 18.26 C
3613 28-07-2019 13:00:00 20.5 C 87 % 18.26 C
3614 28-07-2019 13:05:00 20.6 C 87 % 18.36 C
3615 28-07-2019 13:10:00 20.5 C 86 % 18.08 C
3616 28-07-2019 13:15:00 20.5 C 86 % 18.08 C
3617 28-07-2019 13:20:00 20.4 C 86 % 17.98 C
3618 28-07-2019 13:25:00 20.4 C 87 % 18.16 C
3619 28-07-2019 13:30:00 20.4 C 87 % 18.16 C
3620 28-07-2019 13:35:00 20.3 C 87 % 18.06 C
3621 28-07-2019 13:40:00 20.2 C 88 % 18.15 C
3622 28-07-2019 13:45:00 20.1 C 89 % 18.23 C
3623 28-07-2019 13:50:00 19.9 C 89 % 18.03 C
3624 28-07-2019 13:55:00 19.9 C 89 % 18.03 C
3625 28-07-2019 14:00:00 19.9 C 89 % 18.03 C
Sensor: Nr:Datum:Temp:Feuchte:Taupunkt:
Aussen-T/F 3626 28-07-2019 14:05:00 19.9 C 89 % 18.03 C
3627 28-07-2019 14:10:00 19.9 C 90 % 18.21 C
3628 28-07-2019 14:15:00 19.9 C 90 % 18.21 C
3629 28-07-2019 14:20:00 19.9 C 90 % 18.21 C
3630 28-07-2019 14:25:00 20 C 89 % 18.13 C
3631 28-07-2019 14:30:00 20.1 C 89 % 18.23 C
3632 28-07-2019 14:35:00 20.1 C 89 % 18.23 C
3633 28-07-2019 14:40:00 20.1 C 89 % 18.23 C
3634 28-07-2019 14:45:00 20.1 C 89 % 18.23 C
3635 28-07-2019 14:50:00 20 C 89 % 18.13 C
3636 28-07-2019 14:55:00 19.9 C 89 % 18.03 C
3637 28-07-2019 15:00:00 20 C 89 % 18.13 C
3638 28-07-2019 15:05:00 19.9 C 89 % 18.03 C
3639 28-07-2019 15:10:00 19.9 C 88 % 17.85 C
3640 28-07-2019 15:15:00 19.9 C 88 % 17.85 C
3641 28-07-2019 15:20:00 19.9 C 89 % 18.03 C
3642 28-07-2019 15:25:00 19.9 C 88 % 17.85 C
3643 28-07-2019 15:30:00 19.9 C 88 % 17.85 C
3644 28-07-2019 15:35:00 19.9 C 88 % 17.85 C
3645 28-07-2019 15:40:00 19.9 C 88 % 17.85 C
3646 28-07-2019 15:45:00 19.9 C 88 % 17.85 C
3647 28-07-2019 15:50:00 19.9 C 88 % 17.85 C
3648 28-07-2019 15:55:00 19.9 C 87 % 17.67 C
3649 28-07-2019 16:00:00 19.9 C 88 % 17.85 C
3650 28-07-2019 16:05:00 19.9 C 87 % 17.67 C
Sensor: Nr:Datum:Temp:Feuchte:Taupunkt:
Aussen-T/F 3651 28-07-2019 16:10:00 19.9 C 87 % 17.67 C
3652 28-07-2019 16:15:00 19.9 C 87 % 17.67 C
3653 28-07-2019 16:20:00 19.8 C 87 % 17.57 C
3654 28-07-2019 16:25:00 19.8 C 88 % 17.75 C
3655 28-07-2019 16:30:00 19.8 C 88 % 17.75 C
3656 28-07-2019 16:35:00 19.8 C 88 % 17.75 C
3657 28-07-2019 16:40:00 19.8 C 88 % 17.75 C
3658 28-07-2019 16:45:00 19.7 C 88 % 17.66 C
3659 28-07-2019 16:50:00 19.7 C 88 % 17.66 C
3660 28-07-2019 16:55:00 19.8 C 88 % 17.75 C
3661 28-07-2019 17:00:00 19.7 C 88 % 17.66 C
3662 28-07-2019 17:05:00 19.8 C 89 % 17.93 C
3663 28-07-2019 17:10:00 19.7 C 89 % 17.84 C
3664 28-07-2019 17:15:00 19.6 C 89 % 17.74 C
3665 28-07-2019 17:20:00 19.4 C 89 % 17.54 C
3666 28-07-2019 17:25:00 19.4 C 90 % 17.72 C
3667 28-07-2019 17:30:00 19.4 C 90 % 17.72 C
3668 28-07-2019 17:35:00 19.3 C 90 % 17.62 C
3669 28-07-2019 17:40:00 19.3 C 90 % 17.62 C
3670 28-07-2019 17:45:00 19.3 C 91 % 17.79 C
3671 28-07-2019 17:50:00 19.3 C 91 % 17.79 C
3672 28-07-2019 17:55:00 19.3 C 92 % 17.97 C
3673 28-07-2019 18:00:00 19.2 C 91 % 17.69 C
3674 28-07-2019 18:05:00 19.2 C 91 % 17.69 C
3675 28-07-2019 18:10:00 19.2 C 91 % 17.69 C
Sensor: Nr:Datum:Temp:Feuchte:Taupunkt:
Aussen-T/F 3676 28-07-2019 18:15:00 19.3 C 91 % 17.79 C
3677 28-07-2019 18:20:00 19.2 C 90 % 17.52 C
3678 28-07-2019 18:25:00 19.2 C 90 % 17.52 C
3679 28-07-2019 18:30:00 19.2 C 90 % 17.52 C
3680 28-07-2019 18:35:00 19.2 C 90 % 17.52 C
3681 28-07-2019 18:40:00 19.1 C 90 % 17.42 C
3682 28-07-2019 18:45:00 19.1 C 90 % 17.42 C
3683 28-07-2019 18:50:00 19.1 C 90 % 17.42 C
3684 28-07-2019 18:55:00 19.1 C 91 % 17.6 C
3685 28-07-2019 19:00:00 19.1 C 91 % 17.6 C
3686 28-07-2019 19:05:00 19.1 C 91 % 17.6 C
3687 28-07-2019 19:10:00 19 C 91 % 17.5 C
3688 28-07-2019 19:15:00 18.9 C 91 % 17.4 C
3689 28-07-2019 19:20:00 18.9 C 91 % 17.4 C
3690 28-07-2019 19:25:00 18.9 C 92 % 17.57 C
3691 28-07-2019 19:30:00 18.9 C 92 % 17.57 C
3692 28-07-2019 19:35:00 18.8 C 92 % 17.47 C
3693 28-07-2019 19:40:00 18.8 C 92 % 17.47 C
3694 28-07-2019 19:45:00 18.7 C 92 % 17.37 C
3695 28-07-2019 19:50:00 18.7 C 92 % 17.37 C
3696 28-07-2019 19:55:00 18.7 C 92 % 17.37 C
3697 28-07-2019 20:00:00 18.7 C 92 % 17.37 C
3698 28-07-2019 20:05:00 18.7 C 92 % 17.37 C
3699 28-07-2019 20:10:00 18.6 C 92 % 17.27 C
3700 28-07-2019 20:15:00 18.6 C 93 % 17.45 C
Sensor: Nr:Datum:Temp:Feuchte:Taupunkt:
Aussen-T/F 3701 28-07-2019 20:20:00 18.6 C 93 % 17.45 C
3702 28-07-2019 20:25:00 18.6 C 93 % 17.45 C
3703 28-07-2019 20:30:00 18.5 C 93 % 17.35 C
3704 28-07-2019 20:35:00 18.4 C 93 % 17.25 C
3705 28-07-2019 20:40:00 18.4 C 93 % 17.25 C
3706 28-07-2019 20:45:00 18.3 C 93 % 17.15 C
3707 28-07-2019 20:50:00 18.3 C 93 % 17.15 C
3708 28-07-2019 20:55:00 18.3 C 93 % 17.15 C
3709 28-07-2019 21:00:00 18.2 C 93 % 17.05 C
3710 28-07-2019 21:05:00 18.2 C 93 % 17.05 C
3711 28-07-2019 21:10:00 18.2 C 94 % 17.22 C
3712 28-07-2019 21:15:00 18.2 C 94 % 17.22 C
3713 28-07-2019 21:20:00 18.2 C 94 % 17.22 C
3714 28-07-2019 21:25:00 18.2 C 94 % 17.22 C
3715 28-07-2019 21:30:00 18.2 C 94 % 17.22 C
3716 28-07-2019 21:35:00 18.2 C 94 % 17.22 C
3717 28-07-2019 21:40:00 18.2 C 94 % 17.22 C
3718 28-07-2019 21:45:00 18.1 C 94 % 17.12 C
3719 28-07-2019 21:50:00 18.1 C 94 % 17.12 C
3720 28-07-2019 21:55:00 18.1 C 94 % 17.12 C
3721 28-07-2019 22:00:00 18.1 C 94 % 17.12 C
3722 28-07-2019 22:05:00 18.1 C 94 % 17.12 C
3723 28-07-2019 22:10:00 18 C 94 % 17.02 C
3724 28-07-2019 22:15:00 17.9 C 95 % 17.09 C
3725 28-07-2019 22:20:00 17.9 C 95 % 17.09 C
Sensor: Nr:Datum:Temp:Feuchte:Taupunkt:
Aussen-T/F 3726 28-07-2019 22:25:00 17.9 C 95 % 17.09 C
3727 28-07-2019 22:30:00 17.9 C 95 % 17.09 C
3728 28-07-2019 22:35:00 17.9 C 95 % 17.09 C
3729 28-07-2019 22:40:00 17.8 C 95 % 16.99 C
3730 28-07-2019 22:45:00 17.8 C 95 % 16.99 C
3731 28-07-2019 22:50:00 17.8 C 95 % 16.99 C
3732 28-07-2019 22:55:00 17.8 C 95 % 16.99 C
3733 28-07-2019 23:00:00 17.7 C 95 % 16.89 C
3734 28-07-2019 23:05:00 17.7 C 95 % 16.89 C
3735 28-07-2019 23:10:00 17.7 C 95 % 16.89 C
3736 28-07-2019 23:15:00 17.7 C 95 % 16.89 C
3737 28-07-2019 23:20:00 17.7 C 95 % 16.89 C
3738 28-07-2019 23:25:00 17.6 C 95 % 16.79 C
3739 28-07-2019 23:30:00 17.6 C 95 % 16.79 C
3740 28-07-2019 23:35:00 17.6 C 95 % 16.79 C
3741 28-07-2019 23:40:00 17.5 C 95 % 16.69 C
3742 28-07-2019 23:45:00 17.5 C 95 % 16.69 C
3743 28-07-2019 23:50:00 17.4 C 95 % 16.59 C
3744 28-07-2019 23:55:00 17.5 C 95 % 16.69 C
3745 29-07-2019 00:00:00 17.4 C 95 % 16.59 C
3746 29-07-2019 00:05:00 17.4 C 95 % 16.59 C
3747 29-07-2019 00:10:00 17.4 C 95 % 16.59 C
3748 29-07-2019 00:15:00 17.4 C 95 % 16.59 C
3749 29-07-2019 00:20:00 17.4 C 95 % 16.59 C
3750 29-07-2019 00:25:00 17.4 C 95 % 16.59 C
Sensor: Nr:Datum:Temp:Feuchte:Taupunkt:
Aussen-T/F 3751 29-07-2019 00:30:00 17.3 C 95 % 16.49 C
3752 29-07-2019 00:35:00 17.3 C 95 % 16.49 C
3753 29-07-2019 00:40:00 17.3 C 95 % 16.49 C
3754 29-07-2019 00:45:00 17.2 C 95 % 16.39 C
3755 29-07-2019 00:50:00 17.2 C 95 % 16.39 C
3756 29-07-2019 00:55:00 17.2 C 95 % 16.39 C
3757 29-07-2019 01:00:00 17.1 C 95 % 16.29 C
3758 29-07-2019 01:05:00 17.2 C 95 % 16.39 C
3759 29-07-2019 01:10:00 17.1 C 95 % 16.29 C
3760 29-07-2019 01:15:00 17.1 C 95 % 16.29 C
3761 29-07-2019 01:20:00 17.1 C 95 % 16.29 C
3762 29-07-2019 01:25:00 17.1 C 95 % 16.29 C
3763 29-07-2019 01:30:00 17.1 C 95 % 16.29 C
3764 29-07-2019 01:35:00 17.1 C 95 % 16.29 C
3765 29-07-2019 01:40:00 17.1 C 95 % 16.29 C
3766 29-07-2019 01:45:00 17.1 C 95 % 16.29 C
3767 29-07-2019 01:50:00 17.1 C 95 % 16.29 C
3768 29-07-2019 01:55:00 17.1 C 95 % 16.29 C
3769 29-07-2019 02:00:00 17.1 C 95 % 16.29 C
3770 29-07-2019 02:05:00 17 C 95 % 16.19 C
3771 29-07-2019 02:10:00 17 C 95 % 16.19 C
3772 29-07-2019 02:15:00 17 C 96 % 16.36 C
3773 29-07-2019 02:20:00 17 C 96 % 16.36 C
3774 29-07-2019 02:25:00 17 C 96 % 16.36 C
3775 29-07-2019 02:30:00 17 C 96 % 16.36 C
Sensor: Nr:Datum:Temp:Feuchte:Taupunkt:
Aussen-T/F 3776 29-07-2019 02:35:00 17 C 96 % 16.36 C
3777 29-07-2019 02:40:00 16.9 C 96 % 16.26 C
3778 29-07-2019 02:45:00 16.9 C 96 % 16.26 C
3779 29-07-2019 02:50:00 16.9 C 96 % 16.26 C
3780 29-07-2019 02:55:00 16.9 C 96 % 16.26 C
3781 29-07-2019 03:00:00 16.9 C 96 % 16.26 C
3782 29-07-2019 03:05:00 16.9 C 96 % 16.26 C
3783 29-07-2019 03:10:00 16.9 C 96 % 16.26 C
3784 29-07-2019 03:15:00 16.9 C 96 % 16.26 C
3785 29-07-2019 03:20:00 16.9 C 96 % 16.26 C
3786 29-07-2019 03:25:00 16.8 C 96 % 16.16 C
3787 29-07-2019 03:30:00 16.8 C 96 % 16.16 C
3788 29-07-2019 03:35:00 16.8 C 96 % 16.16 C
3789 29-07-2019 03:40:00 16.8 C 96 % 16.16 C
3790 29-07-2019 03:45:00 16.8 C 96 % 16.16 C
3791 29-07-2019 03:50:00 16.8 C 96 % 16.16 C
3792 29-07-2019 03:55:00 16.8 C 96 % 16.16 C
3793 29-07-2019 04:00:00 16.9 C 96 % 16.26 C
3794 29-07-2019 04:05:00 16.8 C 96 % 16.16 C
3795 29-07-2019 04:10:00 16.8 C 96 % 16.16 C
3796 29-07-2019 04:15:00 16.8 C 96 % 16.16 C
3797 29-07-2019 04:20:00 16.8 C 96 % 16.16 C
3798 29-07-2019 04:25:00 16.8 C 96 % 16.16 C
3799 29-07-2019 04:30:00 16.8 C 96 % 16.16 C
3800 29-07-2019 04:35:00 16.8 C 96 % 16.16 C
Sensor: Nr:Datum:Temp:Feuchte:Taupunkt:
Aussen-T/F 3801 29-07-2019 04:40:00 16.8 C 96 % 16.16 C
3802 29-07-2019 04:45:00 16.8 C 96 % 16.16 C
3803 29-07-2019 04:50:00 16.8 C 96 % 16.16 C
3804 29-07-2019 04:55:00 16.8 C 96 % 16.16 C
3805 29-07-2019 05:00:00 16.8 C 96 % 16.16 C
3806 29-07-2019 05:05:00 16.8 C 96 % 16.16 C
3807 29-07-2019 05:10:00 16.8 C 96 % 16.16 C
3808 29-07-2019 05:15:00 16.8 C 96 % 16.16 C
3809 29-07-2019 05:20:00 16.8 C 96 % 16.16 C
3810 29-07-2019 05:25:00 16.7 C 96 % 16.06 C
3811 29-07-2019 05:30:00 16.7 C 96 % 16.06 C
3812 29-07-2019 05:35:00 16.7 C 96 % 16.06 C
3813 29-07-2019 05:40:00 16.7 C 96 % 16.06 C
3814 29-07-2019 05:45:00 16.7 C 96 % 16.06 C
3815 29-07-2019 05:50:00 16.7 C 96 % 16.06 C
3816 29-07-2019 05:55:00 16.7 C 96 % 16.06 C
3817 29-07-2019 06:00:00 16.7 C 96 % 16.06 C
3818 29-07-2019 06:05:00 16.7 C 96 % 16.06 C
3819 29-07-2019 06:10:00 16.7 C 96 % 16.06 C
3820 29-07-2019 06:15:00 16.7 C 96 % 16.06 C
3821 29-07-2019 06:20:00 16.7 C 96 % 16.06 C
3822 29-07-2019 06:25:00 16.7 C 96 % 16.06 C
3823 29-07-2019 06:30:00 16.7 C 96 % 16.06 C
3824 29-07-2019 06:35:00 16.7 C 96 % 16.06 C
3825 29-07-2019 06:40:00 16.7 C 96 % 16.06 C
Sensor: Nr:Datum:Temp:Feuchte:Taupunkt:
Aussen-T/F 3826 29-07-2019 06:45:00 16.8 C 96 % 16.16 C
3827 29-07-2019 06:50:00 16.8 C 96 % 16.16 C
3828 29-07-2019 06:55:00 16.8 C 96 % 16.16 C
3829 29-07-2019 07:00:00 16.9 C 96 % 16.26 C
3830 29-07-2019 07:05:00 16.9 C 96 % 16.26 C
3831 29-07-2019 07:10:00 16.9 C 96 % 16.26 C
3832 29-07-2019 07:15:00 17 C 96 % 16.36 C
3833 29-07-2019 07:20:00 17.1 C 96 % 16.46 C
3834 29-07-2019 07:25:00 17.1 C 96 % 16.46 C
3835 29-07-2019 07:30:00 16.9 C 96 % 16.26 C
3836 29-07-2019 07:35:00 16.9 C 96 % 16.26 C
3837 29-07-2019 07:40:00 17 C 96 % 16.36 C
3838 29-07-2019 07:45:00 17 C 95 % 16.19 C
3839 29-07-2019 07:50:00 17.1 C 95 % 16.29 C
3840 29-07-2019 07:55:00 17.1 C 95 % 16.29 C
3841 29-07-2019 08:00:00 17.2 C 95 % 16.39 C
3842 29-07-2019 08:05:00 17.2 C 94 % 16.23 C
3843 29-07-2019 08:10:00 17.3 C 94 % 16.33 C
3844 29-07-2019 08:15:00 17.3 C 93 % 16.16 C
3845 29-07-2019 08:20:00 17.4 C 94 % 16.42 C
3846 29-07-2019 08:25:00 17.4 C 93 % 16.26 C
3847 29-07-2019 08:30:00 17.4 C 92 % 16.09 C
3848 29-07-2019 08:35:00 17.6 C 92 % 16.28 C
3849 29-07-2019 08:40:00 17.6 C 92 % 16.28 C
3850 29-07-2019 08:45:00 17.6 C 91 % 16.11 C
Sensor: Nr:Datum:Temp:Feuchte:Taupunkt:
Aussen-T/F 3851 29-07-2019 08:50:00 17.7 C 90 % 16.04 C
3852 29-07-2019 08:55:00 17.9 C 91 % 16.41 C
3853 29-07-2019 09:00:00 18 C 90 % 16.34 C
3854 29-07-2019 09:05:00 18.2 C 90 % 16.53 C
3855 29-07-2019 09:10:00 18.2 C 88 % 16.18 C
3856 29-07-2019 09:15:00 18.3 C 88 % 16.28 C
3857 29-07-2019 09:20:00 18.3 C 88 % 16.28 C
3858 29-07-2019 09:25:00 18.4 C 87 % 16.2 C
3859 29-07-2019 09:30:00 18.6 C 86 % 16.21 C
3860 29-07-2019 09:35:00 18.7 C 86 % 16.31 C
3861 29-07-2019 09:40:00 18.8 C 84 % 16.04 C
3862 29-07-2019 09:45:00 18.8 C 83 % 15.85 C
3863 29-07-2019 09:50:00 18.8 C 83 % 15.85 C
3864 29-07-2019 09:55:00 18.8 C 83 % 15.85 C
3865 29-07-2019 10:00:00 18.8 C 82 % 15.66 C
3866 29-07-2019 10:05:00 18.8 C 83 % 15.85 C
3867 29-07-2019 10:10:00 18.9 C 83 % 15.95 C
3868 29-07-2019 10:15:00 19.1 C 81 % 15.76 C
3869 29-07-2019 10:20:00 19.3 C 80 % 15.76 C
3870 29-07-2019 10:25:00 19.4 C 79 % 15.66 C
3871 29-07-2019 10:30:00 19.5 C 79 % 15.76 C
3872 29-07-2019 10:35:00 19.7 C 79 % 15.96 C
3873 29-07-2019 10:40:00 19.7 C 77 % 15.56 C
3874 29-07-2019 10:45:00 19.8 C 78 % 15.85 C
3875 29-07-2019 10:50:00 19.8 C 76 % 15.45 C
Sensor: Nr:Datum:Temp:Feuchte:Taupunkt:
Aussen-T/F 3876 29-07-2019 10:55:00 19.9 C 75 % 15.34 C
3877 29-07-2019 11:00:00